[[{"header":{"parameterUnit":"m.s-1","parameterCategory":1,"la1":30.6,"la2":29.2853,"lo1":-89.7004,"lo2":-87.6739,"dy":0.0162,"dx":0.0183,"nx":112,"ny":82,"refTime":"2024-09-12T12:00:00:Z","depth":0,"parameterNumber":2,"parameterNumberName":"U-component_of_WINDS"},"data":[0.0,0.0,0.0,0.0,0.0,0.0,0.0,0.0,0.0,0.0,0.0,0.0,0.0,0.0,0.0,0.0,0.0,0.0,0.0,0.0,0.0,0.0,0.0,0.0,0.0,0.0,0.0,0.0,0.0,0.0,0.0,0.0,0.0,0.0,0.0,0.0,0.0,0.0,0.0,0.0,0.0,0.0,0.0,0.0,0.0,0.0,0.0,0.0,0.0,0.0,0.0,0.0,0.0,0.0,0.0,0.0,0.0,0.0,0.0,0.0,0.0,0.0,0.0,0.0,0.0,0.0,0.0,0.0,0.0,0.0,0.0,0.0,0.0,0.0,0.0,0.0,0.0,0.0,0.0,0.0,0.0,0.0,0.0,0.0,0.0,0.0,0.0,0.0,0.0,0.0,2.6076,2.7088,2.6948,2.6745,2.6641,2.5803,2.5244,2.5231,0.0,0.0,0.0,0.0,0.0,0.0,0.0,0.0,0.0,0.0,0.0,0.0,0.0,0.0,0.0,0.0,0.0,0.0,0.0,0.0,0.0,0.0,0.0,0.0,0.0,0.0,0.0,0.0,0.0,0.0,0.0,0.0,0.0,0.0,0.0,0.0,0.0,0.0,0.0,0.0,0.0,0.0,0.0,0.0,0.0,0.0,0.0,0.0,0.0,0.0,0.0,0.0,0.0,0.0,0.0,0.0,0.0,0.0,0.0,0.0,0.0,0.0,0.0,0.0,0.0,0.0,0.0,0.0,0.0,0.0,0.0,0.0,0.0,0.0,0.0,0.0,0.0,0.0,0.0,0.0,0.0,0.0,0.0,0.0,0.0,0.0,0.0,0.0,0.0,0.0,0.0,0.0,0.0,0.0,0.0,0.0,0.0,0.0,0.0,0.0,0.0,0.0,0.0,0.0,2.6305,2.7858,2.7233,2.673,2.678,2.6003,2.546,2.5292,0.0,0.0,0.0,0.0,0.0,0.0,0.0,0.0,0.0,0.0,0.0,0.0,0.0,0.0,0.0,0.0,0.0,0.0,0.0,0.0,0.0,0.0,0.0,0.0,0.0,0.0,0.0,0.0,0.0,0.0,0.0,0.0,0.0,0.0,0.0,0.0,0.0,0.0,0.0,0.0,0.0,0.0,0.0,0.0,0.0,0.0,0.0,0.0,0.0,0.0,0.0,0.0,0.0,0.0,0.0,0.0,0.0,0.0,0.0,0.0,0.0,0.0,0.0,0.0,0.0,0.0,0.0,0.0,0.0,0.0,0.0,0.0,0.0,0.0,0.0,0.0,0.0,0.0,0.0,0.0,0.0,0.0,0.0,0.0,0.0,0.0,0.0,0.0,0.0,0.0,0.0,0.0,0.0,0.0,0.0,0.0,0.0,0.0,0.0,0.0,0.0,0.0,0.0,2.6195,2.7201,2.9332,2.7873,2.6967,2.7466,2.6262,2.5456,2.536,2.3694,0.0,0.0,0.0,0.0,0.0,0.0,0.0,0.0,0.0,0.0,0.0,0.0,0.0,0.0,0.0,0.0,0.0,0.0,0.0,0.0,0.0,0.0,0.0,0.0,0.0,0.0,0.0,0.0,0.0,0.0,0.0,0.0,0.0,0.0,0.0,0.0,0.0,0.0,0.0,0.0,0.0,0.0,0.0,0.0,0.0,0.0,0.0,0.0,0.0,0.0,0.0,0.0,0.0,0.0,0.0,0.0,0.0,0.0,0.0,0.0,0.0,0.0,0.0,0.0,0.0,0.0,0.0,0.0,0.0,0.0,0.0,0.0,0.0,0.0,0.0,0.0,0.0,0.0,0.0,0.0,0.0,0.0,0.0,0.0,0.0,0.0,0.0,0.0,0.0,0.0,0.0,0.0,0.0,0.0,0.0,0.0,0.0,0.0,0.0,0.0,0.0,0.0,2.7537,2.7878,3.0182,2.8267,2.7082,2.7756,2.6183,2.524,2.5398,2.3596,0.0,0.0,0.0,0.0,0.0,0.0,0.0,0.0,0.0,0.0,0.0,0.0,0.0,0.0,0.0,0.0,0.0,0.0,0.0,0.0,0.0,0.0,0.0,0.0,0.0,0.0,0.0,0.0,0.0,0.0,0.0,0.0,0.0,0.0,0.0,0.0,0.0,0.0,0.0,0.0,0.0,0.0,0.0,0.0,0.0,0.0,0.0,0.0,0.0,0.0,0.0,0.0,0.0,0.0,0.0,0.0,0.0,0.0,0.0,0.0,0.0,0.0,0.0,0.0,0.0,0.0,0.0,0.0,0.0,0.0,0.0,0.0,0.0,0.0,0.0,0.0,0.0,0.0,0.0,0.0,0.0,0.0,0.0,0.0,0.0,0.0,0.0,0.0,0.0,0.0,0.0,0.0,0.0,0.0,0.0,0.0,0.0,0.0,0.0,0.0,0.0,0.0,2.7475,2.7624,2.9489,2.8018,2.6918,2.6985,2.5438,2.4734,2.5367,2.3114,0.0,0.0,0.0,0.0,0.0,0.0,0.0,0.0,0.0,0.0,0.0,0.0,0.0,0.0,0.0,0.0,0.0,0.0,0.0,0.0,0.0,0.0,0.0,0.0,0.0,0.0,0.0,0.0,0.0,0.0,0.0,0.0,0.0,0.0,0.0,0.0,0.0,0.0,0.0,0.0,0.0,0.0,0.0,0.0,0.0,0.0,0.0,0.0,0.0,0.0,0.0,0.0,0.0,0.0,0.0,0.0,0.0,0.0,0.0,0.0,0.0,0.0,0.0,0.0,0.0,0.0,0.0,0.0,0.0,0.0,0.0,0.0,0.0,0.0,0.0,0.0,0.0,0.0,0.0,0.0,0.0,0.0,0.0,0.0,0.0,0.0,0.0,0.0,0.0,0.0,0.0,0.0,0.0,0.0,0.0,0.0,0.0,0.0,0.0,0.0,0.0,0.0,2.7044,2.7042,2.9357,2.7498,2.633,2.6903,2.5847,2.5051,2.4793,0.0,0.0,0.0,0.0,0.0,0.0,0.0,0.0,0.0,0.0,0.0,0.0,0.0,0.0,0.0,0.0,0.0,0.0,0.0,0.0,0.0,0.0,0.0,0.0,0.0,0.0,0.0,0.0,0.0,0.0,0.0,0.0,0.0,0.0,0.0,0.0,0.0,0.0,0.0,0.0,0.0,0.0,0.0,0.0,0.0,0.0,0.0,0.0,0.0,0.0,0.0,0.0,0.0,0.0,0.0,0.0,0.0,0.0,0.0,0.0,0.0,0.0,0.0,0.0,0.0,0.0,0.0,0.0,0.0,0.0,0.0,0.0,0.0,0.0,0.0,0.0,0.0,0.0,0.0,0.0,0.0,0.0,0.0,0.0,0.0,0.0,0.0,0.0,0.0,0.0,0.0,0.0,0.0,0.0,0.0,0.0,0.0,0.0,0.0,0.0,0.0,0.0,2.7854,2.678,2.6605,2.8947,2.7059,2.5882,2.6522,2.5753,2.4978,2.4401,0.0,0.0,0.0,0.0,0.0,0.0,0.0,0.0,0.0,0.0,0.0,0.0,0.0,0.0,0.0,0.0,0.0,0.0,0.0,0.0,0.0,0.0,0.0,0.0,0.0,0.0,0.0,0.0,0.0,0.0,0.0,0.0,0.0,0.0,0.0,0.0,0.0,0.0,0.0,0.0,0.0,0.0,0.0,0.0,0.0,0.0,0.0,0.0,0.0,0.0,0.0,0.0,0.0,0.0,0.0,0.0,0.0,0.0,0.0,0.0,0.0,0.0,0.0,0.0,0.0,0.0,0.0,0.0,0.0,0.0,0.0,0.0,0.0,0.0,0.0,0.0,0.0,0.0,0.0,0.0,0.0,0.0,0.0,0.0,0.0,0.0,0.0,0.0,0.0,0.0,0.0,0.0,0.0,0.0,0.0,0.0,0.0,0.0,0.0,0.0,0.0,0.0,2.7854,2.678,2.6371,2.8108,2.6741,2.5703,2.569,2.4914,2.4386,0.0,0.0,0.0,0.0,0.0,0.0,0.0,0.0,0.0,0.0,0.0,0.0,0.0,0.0,0.0,0.0,0.0,0.0,0.0,0.0,0.0,0.0,0.0,0.0,0.0,0.0,0.0,0.0,0.0,0.0,0.0,0.0,0.0,0.0,0.0,0.0,0.0,0.0,0.0,0.0,0.0,0.0,0.0,0.0,0.0,0.0,0.0,0.0,0.0,0.0,0.0,0.0,0.0,0.0,0.0,0.0,0.0,0.0,0.0,0.0,0.0,0.0,0.0,0.0,0.0,0.0,0.0,0.0,0.0,0.0,0.0,0.0,0.0,0.0,0.0,0.0,0.0,0.0,0.0,0.0,0.0,0.0,0.0,0.0,0.0,0.0,0.0,0.0,0.0,0.0,0.0,0.0,0.0,0.0,0.0,0.0,0.0,0.0,0.0,0.0,0.0,0.0,0.0,2.7932,2.7308,2.7054,2.8186,2.6741,2.5705,2.5703,2.5425,2.4725,2.3533,0.0,0.0,0.0,0.0,0.0,0.0,0.0,0.0,0.0,0.0,0.0,0.0,0.0,0.0,0.0,0.0,0.0,0.0,0.0,0.0,0.0,0.0,0.0,0.0,0.0,0.0,0.0,0.0,0.0,0.0,0.0,0.0,0.0,0.0,0.0,0.0,0.0,0.0,0.0,0.0,0.0,0.0,0.0,0.0,0.0,0.0,0.0,0.0,0.0,0.0,0.0,0.0,0.0,0.0,0.0,0.0,0.0,0.0,0.0,0.0,0.0,0.0,0.0,0.0,0.0,0.0,0.0,0.0,0.0,0.0,0.0,0.0,0.0,0.0,0.0,0.0,0.0,0.0,0.0,0.0,0.0,0.0,0.0,0.0,0.0,0.0,0.0,0.0,0.0,0.0,0.0,0.0,0.0,0.0,0.0,0.0,0.0,0.0,0.0,0.0,0.0,0.0,2.7952,2.7542,2.7327,2.8205,2.6741,2.5705,2.5701,2.5665,2.5044,2.3669,0.0,0.0,0.0,0.0,0.0,0.0,0.0,0.0,0.0,0.0,0.0,0.0,0.0,0.0,0.0,0.0,0.0,0.0,0.0,0.0,0.0,0.0,0.0,0.0,0.0,0.0,0.0,0.0,0.0,0.0,0.0,0.0,0.0,0.0,0.0,0.0,0.0,0.0,0.0,0.0,0.0,0.0,0.0,0.0,0.0,0.0,0.0,0.0,0.0,0.0,0.0,0.0,0.0,0.0,0.0,0.0,0.0,0.0,0.0,0.0,0.0,0.0,0.0,0.0,0.0,0.0,0.0,0.0,0.0,0.0,0.0,0.0,0.0,0.0,0.0,0.0,0.0,0.0,0.0,0.0,0.0,0.0,0.0,0.0,0.0,0.0,0.0,0.0,0.0,0.0,0.0,0.0,0.0,0.0,0.0,0.0,0.0,0.0,0.0,0.0,0.0,0.0,2.7971,2.7678,2.7503,2.8225,2.682,2.5781,2.5712,2.569,2.5308,2.4369,0.0,0.0,0.0,0.0,0.0,0.0,0.0,0.0,0.0,0.0,0.0,0.0,0.0,0.0,0.0,0.0,0.0,0.0,0.0,0.0,0.0,0.0,0.0,0.0,0.0,0.0,0.0,0.0,0.0,0.0,0.0,0.0,0.0,0.0,0.0,0.0,0.0,0.0,0.0,0.0,0.0,0.0,0.0,0.0,0.0,0.0,0.0,0.0,0.0,0.0,0.0,0.0,0.0,0.0,0.0,0.0,0.0,0.0,0.0,0.0,2.2861,2.2745,0.0,0.0,0.0,0.0,0.0,0.0,0.0,0.0,0.0,0.0,0.0,0.0,0.0,0.0,0.0,0.0,0.0,0.0,0.0,0.0,0.0,0.0,0.0,0.0,0.0,0.0,0.0,0.0,0.0,0.0,0.0,0.0,0.0,0.0,0.0,0.0,0.0,0.0,0.0,0.0,2.8049,2.8732,2.885,2.8342,2.7347,2.6449,2.5763,2.5696,2.5311,2.4429,2.34,0.0,0.0,0.0,0.0,0.0,0.0,0.0,0.0,0.0,0.0,0.0,0.0,0.0,0.0,0.0,0.0,0.0,0.0,0.0,0.0,0.0,0.0,0.0,0.0,0.0,0.0,0.0,0.0,0.0,0.0,0.0,0.0,0.0,0.0,0.0,0.0,0.0,0.0,0.0,0.0,0.0,0.0,0.0,0.0,0.0,0.0,0.0,0.0,0.0,0.0,0.0,0.0,0.0,0.0,0.0,0.0,0.0,0.0,0.0,2.4699,2.4157,0.0,0.0,0.0,0.0,0.0,0.0,0.0,0.0,0.0,0.0,0.0,0.0,0.0,0.0,0.0,0.0,0.0,0.0,0.0,0.0,0.0,0.0,0.0,0.0,0.0,0.0,0.0,0.0,0.0,0.0,0.0,0.0,0.0,0.0,0.0,0.0,0.0,0.0,0.0,0.0,2.8127,2.9064,2.9259,2.8381,2.7522,2.6646,2.5765,2.5703,2.5495,2.5021,2.4191,0.0,0.0,0.0,0.0,0.0,0.0,0.0,0.0,0.0,0.0,0.0,0.0,0.0,0.0,0.0,0.0,0.0,0.0,0.0,0.0,0.0,0.0,0.0,0.0,0.0,0.0,0.0,0.0,0.0,0.0,0.0,0.0,0.0,0.0,0.0,0.0,0.0,0.0,0.0,0.0,0.0,0.0,0.0,0.0,0.0,0.0,0.0,0.0,0.0,0.0,0.0,0.0,0.0,2.7591,2.8045,2.8431,2.7851,2.7909,2.8373,2.7136,2.6343,2.5936,2.5936,0.0,0.0,0.0,0.0,0.0,0.0,0.0,0.0,0.0,0.0,0.0,0.0,0.0,0.0,0.0,0.0,0.0,0.0,0.0,0.0,0.0,0.0,2.6478,2.7696,2.8014,2.7279,2.4501,0.0,0.0,0.0,0.0,0.0,0.0,0.0,0.0,0.0,0.0,0.0,2.8381,2.9279,2.9474,2.8615,2.7756,2.6878,2.6,2.5785,2.5676,2.5605,2.4978,2.4257,0.0,0.0,0.0,0.0,0.0,0.0,0.0,0.0,0.0,0.0,0.0,0.0,0.0,0.0,0.0,0.0,0.0,0.0,0.0,0.0,0.0,0.0,0.0,0.0,0.0,0.0,0.0,0.0,0.0,0.0,0.0,0.0,2.0295,2.2197,0.0,0.0,0.0,0.0,0.0,0.0,0.0,0.0,0.0,0.0,0.0,0.0,0.0,2.6729,2.7484,2.9224,2.9708,2.8973,3.1197,3.1545,3.0288,3.0868,3.081,3.0288,3.0772,0.0,2.7658,2.7658,0.0,0.0,0.0,0.0,0.0,0.0,0.0,0.0,0.0,0.0,0.0,0.0,0.0,0.0,0.0,0.0,0.0,0.0,0.0,0.0,0.0,0.0,2.8664,2.8131,2.8092,2.8053,2.7608,2.6978,2.6461,2.6393,2.5215,2.4151,0.0,0.0,0.0,0.0,0.0,0.0,2.922,3.0138,3.0333,2.9513,2.8654,2.7776,2.69,2.6136,2.5676,2.5605,2.5504,2.5386,2.5251,2.4533,0.0,0.0,0.0,0.0,0.0,0.0,0.0,0.0,0.0,0.0,0.0,0.0,0.0,0.0,0.0,0.0,0.0,0.0,0.0,0.0,0.0,0.0,0.0,0.0,0.0,0.0,0.0,0.0,0.0,2.0853,2.3197,2.3484,2.39,2.3967,0.0,0.0,0.0,0.0,0.0,0.0,0.0,0.0,0.0,2.8857,2.934,2.9747,3.0133,3.1391,3.1816,3.1449,3.256,3.2715,3.2029,3.2367,3.2338,3.2029,3.2367,3.1913,3.0791,2.9843,2.9166,2.8683,0.0,0.0,0.0,0.0,2.9282,2.9012,2.9843,2.936,2.8335,2.8219,0.0,0.0,0.0,0.0,0.0,0.0,0.0,2.936,2.8992,2.9457,2.9921,2.9553,2.9515,2.956,2.9547,2.926,2.871,2.7813,2.7457,2.6852,2.5389,2.5621,0.0,0.0,0.0,2.8735,2.9496,3.0294,3.0489,2.9689,2.9259,2.8479,2.7114,2.6646,2.6186,2.5644,2.5601,2.56,2.5601,2.5232,2.463,0.0,0.0,0.0,0.0,0.0,0.0,0.0,0.0,0.0,0.0,0.0,0.0,0.0,0.0,0.0,0.0,0.0,0.0,0.0,0.0,0.0,0.0,0.0,0.0,0.0,0.0,0.0,0.0,2.2953,2.5158,2.4513,2.5379,2.5697,0.0,0.0,0.0,0.0,0.0,0.0,2.8936,2.9593,3.0327,3.1217,3.1816,3.2126,3.2126,3.2996,3.3441,3.3441,3.3866,3.4069,3.4069,3.4069,3.4069,3.4049,3.3847,3.3654,3.3325,3.1855,3.0868,3.0269,3.0269,3.0675,3.1313,3.1913,3.1758,3.1333,3.1932,3.1584,3.0849,3.0404,2.9669,2.8857,2.8199,0.0,0.0,0.0,0.0,3.1236,3.1236,3.1062,3.0907,3.0907,3.0926,3.0935,3.0948,3.119,3.0959,2.9471,2.9609,2.9375,2.7632,2.824,0.0,2.7503,2.8791,2.9982,3.0216,3.0567,3.0567,2.9962,2.9728,2.9066,2.7778,2.7466,2.7025,2.6303,2.6264,2.6262,2.6242,2.6048,2.564,2.498,0.0,0.0,0.0,0.0,0.0,0.0,0.0,0.0,0.0,0.0,0.0,0.0,0.0,0.0,0.0,0.0,0.0,0.0,0.0,0.0,0.0,0.0,0.0,0.0,0.0,0.0,0.0,0.0,0.0,2.5348,2.6776,0.0,0.0,0.0,0.0,2.9023,2.9835,3.0695,3.1555,3.1652,3.2058,3.2947,3.3005,3.3024,3.3024,3.3905,3.4331,3.435,3.5955,3.6709,3.6709,3.6709,3.6709,3.6671,3.5897,3.5104,3.4253,3.3344,3.2947,3.2908,3.2908,3.2928,3.2966,3.3024,3.3005,3.2966,3.3024,3.2464,3.1874,3.2638,3.2309,3.1603,3.1565,3.1565,0.0,0.0,3.2328,3.2966,3.2966,3.2348,3.1739,3.1739,3.1797,3.1855,3.1922,3.2618,3.299,3.2085,3.1328,3.1035,3.1676,0.0,3.0997,3.168,3.1192,3.1036,3.1875,3.1289,3.0782,3.0743,3.006,2.9554,2.9476,2.8713,2.8193,2.8076,2.8076,2.8033,2.799,2.7233,2.6805,2.6767,2.5096,0.0,0.0,0.0,0.0,0.0,0.0,0.0,0.0,0.0,0.0,0.0,0.0,0.0,0.0,0.0,0.0,0.0,0.0,0.0,0.0,0.0,0.0,0.0,0.0,0.0,0.0,0.0,0.0,2.7845,2.934,0.0,2.9216,3.02,3.0886,3.0907,3.169,3.2541,3.3421,3.346,3.4118,3.551,3.5549,3.582,3.6381,3.669,3.6845,3.6845,3.7444,3.7735,3.7735,3.7735,3.7735,3.7715,3.7425,3.7135,3.6826,3.6516,3.5414,3.3944,3.3944,3.4272,3.4775,3.4775,3.4775,3.4698,3.4137,3.3731,3.3421,3.3189,3.2889,3.2745,3.3305,3.346,3.3596,3.4156,3.4524,3.464,3.4079,3.3712,3.3325,3.2783,3.2638,3.2687,3.2687,3.3037,3.3418,3.3656,3.306,3.2421,3.2143,3.2331,3.2419,3.2148,3.2304,3.2383,3.2129,3.1836,3.1426,3.086,3.0548,3.0157,2.963,2.9318,2.8879,2.8232,2.8193,2.817,2.8107,2.733,2.6903,2.6903,2.5737,2.4008,0.0,0.0,0.0,0.0,0.0,0.0,0.0,0.0,0.0,0.0,0.0,0.0,0.0,0.0,0.0,0.0,0.0,0.0,0.0,0.0,0.0,0.0,0.0,0.0,0.0,2.8568,3.0563,2.9644,3.1122,3.1868,3.1011,3.2237,3.3089,3.3102,3.4176,3.5065,3.5646,3.5684,3.6187,3.7309,3.7348,3.7618,3.8199,3.8199,3.8199,3.8199,3.8508,3.8644,3.8644,3.8644,3.8644,3.8624,3.8334,3.8199,3.8199,3.8199,3.7212,3.5684,3.5684,3.6033,3.6535,3.6535,3.6361,3.5974,3.5123,3.4833,3.4737,3.4156,3.3982,3.4079,3.4659,3.4833,3.4949,3.553,3.5704,3.5568,3.4988,3.4621,3.4253,3.3673,3.3538,3.3538,3.3576,3.3863,3.4315,3.493,3.4386,3.3747,3.3452,3.3893,3.4078,3.3495,3.3651,3.3632,3.3046,3.2714,3.2207,3.1328,3.1231,3.0899,3.0079,2.9767,2.9447,2.9102,2.8532,2.8301,2.8565,2.7509,2.6901,2.6901,2.6034,2.4746,2.3018,0.0,0.0,0.0,0.0,0.0,0.0,0.0,0.0,0.0,0.0,0.0,0.0,0.0,0.0,0.0,0.0,0.0,0.0,0.0,0.0,0.0,0.0,0.0,2.811,3.0179,3.146,3.0617,3.2054,3.281,3.2036,3.4248,3.5747,3.58,3.7348,3.8276,3.8276,3.8276,3.8295,3.8315,3.8315,3.8334,3.8373,3.8373,3.8373,3.8373,3.9224,3.9623,3.9623,3.9603,3.9584,3.9526,3.8663,3.8276,3.8276,3.8276,3.8276,3.8276,3.8218,3.8199,3.8199,3.8199,3.7677,3.6826,3.6052,3.5762,3.5742,3.5742,3.5723,3.5704,3.5704,3.5704,3.5704,3.5704,3.5704,3.5704,3.5704,3.5065,3.4427,3.4427,3.4427,3.4447,3.4515,3.5201,3.5825,3.5889,3.5272,3.5003,3.5852,3.6001,3.5991,3.5991,3.5271,0.0,3.4705,3.3964,3.3105,3.2226,3.2148,3.1797,3.0919,3.0138,2.9996,3.0742,2.9198,2.8622,2.9498,2.7873,2.6943,2.6943,2.6079,2.564,2.564,0.0,0.0,0.0,0.0,0.0,0.0,0.0,0.0,0.0,0.0,0.0,0.0,0.0,0.0,0.0,0.0,0.0,0.0,0.0,0.0,0.0,2.9932,3.1558,3.0775,3.23,3.3429,3.3173,3.47,3.5669,3.5449,3.7205,3.837,3.845,3.9475,4.0094,4.0094,4.0094,4.0346,4.0945,4.0965,4.1255,4.1893,4.1912,4.1912,4.1912,4.2144,4.226,4.2222,4.1603,4.1313,4.1274,4.0442,4.0094,4.0094,4.0094,4.0094,3.9959,3.8702,3.8199,3.8199,3.8199,3.8063,3.7812,3.7599,3.7096,3.6574,3.6574,3.6187,3.5704,3.5704,3.5704,3.5704,3.5704,3.5704,3.5704,3.5704,3.551,3.5336,3.5336,3.5336,3.5356,3.5375,3.5549,3.5718,3.5755,3.5653,3.5664,3.5945,3.5996,3.5991,3.5991,3.5798,3.5408,3.4783,3.4491,3.4003,3.3144,3.3046,3.2695,3.1816,3.1543,3.1245,3.084,2.9764,2.9538,3.0414,2.8768,2.7844,2.7848,2.6998,2.6533,0.0,0.0,0.0,0.0,0.0,0.0,0.0,0.0,0.0,0.0,0.0,0.0,0.0,0.0,0.0,0.0,0.0,0.0,0.0,0.0,0.0,0.0,3.2269,3.3949,3.3814,3.4635,3.5245,3.5238,3.679,3.7872,3.7887,3.943,4.0494,4.0539,4.1351,4.1854,4.1854,4.1854,4.2067,4.2531,4.2531,4.2783,4.3305,4.3305,4.3305,4.3305,4.3305,4.3305,4.3285,4.2783,4.2531,4.2512,4.2048,4.1854,4.1854,4.1854,4.1854,4.168,0.0,0.0,0.0,0.0,3.874,3.8682,3.8334,3.787,3.7444,3.7444,3.7135,3.6748,3.6748,3.6748,3.6748,3.6748,3.6477,3.6207,3.6207,3.5955,3.5704,3.5704,3.5704,3.5704,3.5704,3.5704,3.5716,3.5736,3.5833,0.0,3.5986,3.5991,3.5991,3.5991,3.5991,3.5818,3.531,3.5232,3.492,3.4042,3.3944,3.3593,3.2714,3.1973,0.0,0.0,0.0,2.9218,2.9687,2.8731,0.0,0.0,0.0,0.0,0.0,2.9065,0.0,0.0,2.7374,2.7648,0.0,0.0,0.0,0.0,0.0,0.0,0.0,0.0,0.0,0.0,0.0,0.0,0.0,0.0,0.0,0.0,3.4552,3.593,3.6738,3.7007,3.7084,3.7007,3.843,3.9499,3.9667,4.1205,4.2218,4.2286,4.3092,4.3576,4.3576,4.3576,0.0,0.0,0.0,4.3576,4.3576,4.3576,4.3576,4.3576,4.3576,4.3576,4.3576,4.3498,4.346,4.344,4.3343,4.3305,4.3305,4.3305,4.3305,4.315,4.1545,4.0868,4.0713,3.9932,3.9661,3.9533,3.876,0.0,0.0,3.8353,3.8276,3.8199,3.8199,3.8199,3.8199,3.8199,3.7715,3.7193,3.7193,3.6651,3.6129,3.6129,3.6052,3.5955,3.5858,3.5916,3.5974,3.5936,3.6054,3.6204,3.6269,3.6116,3.5991,3.5991,3.5991,3.5991,3.5991,3.5991,3.5701,3.494,3.4842,0.0,3.3612,3.2129,3.1524,3.2207,3.0138,2.8806,2.8658,2.8736,2.9507,3.1066,3.1081,3.1807,3.3291,3.3297,3.3335,3.3334,3.0018,2.974,0.0,0.0,0.0,0.0,0.0,0.0,0.0,0.0,0.0,0.0,0.0,0.0,0.0,0.0,0.0,3.3824,3.5412,3.679,3.7698,3.896,3.9508,3.8873,3.9662,4.0577,4.1354,4.2984,4.4013,4.4023,4.4819,4.5316,4.5316,4.5316,4.5316,4.5316,4.5316,4.5316,4.5316,4.5316,4.5316,4.5316,4.5316,0.0,4.5278,4.4639,4.4349,4.4311,4.3614,4.3305,4.3305,4.3305,4.3305,4.3208,4.2164,4.1371,4.0771,4.0597,4.0539,4.052,4.0365,3.9843,3.9243,3.9243,3.876,3.8199,3.8199,3.8199,0.0,3.8199,3.8586,3.8992,3.8992,3.8876,3.8771,3.8771,3.8237,3.7522,3.6826,3.7212,3.7522,3.6826,3.7356,3.7921,3.7926,3.6854,3.5991,3.5991,3.5991,3.5991,3.5991,3.5991,3.5932,3.5779,3.5759,3.5408,3.453,3.4139,3.3729,3.3183,3.2695,3.2087,3.1385,3.2017,3.2553,3.2881,3.2849,3.2975,3.3291,3.3301,3.4016,3.53,3.3055,3.2967,0.0,0.0,0.0,0.0,0.0,0.0,0.0,0.0,0.0,0.0,0.0,3.0279,3.1572,0.0,3.536,3.6652,3.8218,3.9441,3.9884,4.1024,4.1335,4.0046,4.1373,4.2618,4.3142,4.4349,4.5113,4.5153,4.5534,4.58,4.58,4.58,4.58,4.58,4.58,4.58,4.58,4.58,4.58,4.58,4.58,4.58,4.578,4.5374,4.52,4.5181,4.4736,4.4543,4.4543,4.4543,4.4311,4.3904,4.3479,4.2783,4.2048,4.2048,4.2048,4.2048,4.2048,4.1487,4.0752,4.0752,4.0172,3.9495,3.9495,3.9495,3.9495,3.9495,3.9495,3.9603,4.0036,3.9835,3.9507,3.9507,3.9166,3.8605,3.7735,3.7889,3.8083,3.7684,3.8014,3.8354,3.8381,3.7753,3.7109,3.6702,3.6286,3.5991,3.5991,3.5991,3.5991,3.5991,3.5991,3.5818,3.5389,3.4959,3.4334,3.3456,3.3398,3.3202,3.2773,3.3175,3.3601,3.403,3.4023,3.4417,3.5251,3.5247,3.5924,3.7176,3.614,3.6074,0.0,0.0,0.0,0.0,0.0,0.0,0.0,2.7971,2.9217,3.0037,3.1583,3.3216,3.4627,3.6269,3.7887,3.9425,4.0926,4.194,4.2043,4.2777,4.2816,4.1412,4.3047,4.4408,4.4685,4.5298,4.5731,4.5771,4.5786,4.58,4.58,4.58,4.58,4.58,4.58,4.58,4.58,4.58,4.58,4.58,4.58,4.58,4.58,4.58,4.58,4.58,4.58,4.58,4.58,4.58,4.5413,4.4833,4.4833,4.4407,4.375,4.3421,4.3305,4.3305,4.3305,4.2841,4.2222,4.2067,4.1564,4.1003,4.0848,4.079,4.0829,4.0984,4.052,4.0191,4.1061,4.0636,4.0017,4.0191,3.9978,3.9553,3.8856,3.8721,3.8682,3.8554,3.869,3.8833,3.8896,3.8824,3.8482,3.7652,3.6955,3.6501,3.6501,3.6501,3.6443,3.6267,3.6247,3.6189,3.601,3.5369,3.4725,3.4198,3.4159,3.4237,3.4393,3.4413,3.4744,3.5447,3.5467,3.6124,3.7453,3.7476,3.7917,3.875,3.8643,3.8552,2.5996,2.6785,2.7682,2.8502,2.8753,2.9381,0.0,3.2396,3.2772,3.3643,3.5162,3.64,3.6582,3.7989,3.9445,4.0397,4.1306,4.2148,4.2861,4.3657,4.4085,4.3893,4.4124,4.4605,4.5391,4.5599,4.5706,4.5715,4.5781,4.581,4.58,4.58,4.58,4.58,4.58,4.58,4.58,4.58,4.58,4.58,4.58,4.58,4.58,4.58,4.58,4.58,4.58,4.58,4.58,4.58,4.5742,4.5664,4.5664,4.5606,4.5336,4.3846,4.3305,4.3305,4.3305,4.3247,4.3034,4.2241,4.1932,4.1738,4.1023,4.079,4.0945,4.1661,4.1796,4.1912,4.2783,4.2376,4.1912,4.2686,4.1738,4.0616,4.052,4.05,4.0268,3.9514,4.0094,4.0706,4.0711,4.0169,3.9431,3.8508,3.8334,3.8316,3.8316,3.8316,3.8004,3.7243,3.7145,3.6833,3.6069,3.5916,3.615,3.6813,3.6852,3.7204,3.7985,3.8024,3.8063,3.8163,3.8163,3.8232,3.8346,3.8404,3.8853,3.9653,3.965,3.9555,2.7759,2.8406,2.8927,2.9825,3.1158,3.2376,3.2966,3.4243,3.5557,3.6439,3.7986,3.9301,3.9785,4.1261,4.251,4.2816,4.3559,4.4222,4.4504,4.4833,4.4682,4.372,4.4451,4.5235,4.5632,4.569,4.5726,4.575,4.5781,4.5795,4.5791,4.58,4.58,4.58,4.5355,4.5336,4.58,4.4833,4.4601,4.5104,4.5104,4.5104,4.5123,4.5587,4.58,4.58,4.58,4.58,4.58,4.58,4.58,4.58,4.58,4.58,4.5722,4.5007,4.4755,4.4755,4.4755,4.4446,4.3904,4.3034,4.2763,4.2512,4.1197,4.1119,4.1467,4.1332,4.1293,4.1487,4.2338,4.228,4.2086,4.2454,4.2009,4.1371,4.0887,4.079,4.0694,4.0326,4.0597,4.0868,4.0868,4.0692,4.0385,3.9955,3.916,3.8609,3.8593,3.8593,3.8456,3.8102,3.8063,3.7906,3.7536,3.7516,3.7672,3.8024,3.8063,3.8219,3.8573,3.8593,3.8593,3.8593,3.8593,3.8821,3.9263,3.9289,3.9738,4.0551,4.0558,4.0528,2.8502,2.9226,2.9951,3.1313,3.3383,3.5046,3.4911,3.6651,3.8489,3.9127,4.0442,4.1661,4.2241,4.3595,4.4554,4.4442,4.514,4.5684,4.562,4.5218,4.4624,4.3874,4.4451,4.512,4.5645,4.569,4.5706,4.5765,4.5765,4.5781,4.5795,4.5592,4.5568,4.578,4.5026,4.4987,4.578,4.4601,4.4311,4.4929,4.4929,4.4813,4.462,4.4949,4.5239,4.5471,4.5471,4.5587,4.58,4.58,4.58,4.58,4.58,4.58,4.58,4.58,4.58,4.5761,4.5548,4.5084,4.4465,4.3576,4.3305,4.3034,4.1564,4.1545,4.1874,4.1293,4.0965,4.0984,4.1796,4.1835,4.1719,4.1951,4.1835,4.1564,4.1216,4.0965,4.079,4.079,4.081,4.0829,4.0829,4.0937,4.0996,4.0921,3.9984,3.9291,3.9295,3.9078,3.8921,3.8921,3.8726,3.8593,3.8593,3.8593,3.869,3.8921,3.8921,3.9039,3.9276,3.9295,3.9295,3.9295,3.9295,3.9585,4.0151,4.0151,4.0483,4.1108,4.1108,4.1108,2.7865,2.9168,3.1081,3.3634,3.5549,3.7251,3.8934,4.0616,4.1854,4.1874,4.2609,4.3227,4.3266,4.4001,4.4587,4.4506,4.5171,4.5684,4.5709,4.4234,4.3758,4.5336,4.4124,4.3833,4.5539,4.564,4.5637,4.57,4.57,4.5727,4.58,4.5065,4.4987,4.578,4.5026,4.4987,4.578,4.5742,4.5742,4.5761,4.5761,4.5355,4.4581,4.375,4.3846,4.4639,4.4639,4.5084,4.58,4.58,4.58,4.58,4.58,4.58,4.58,4.58,4.58,4.5684,4.491,4.462,4.4465,4.3576,4.3305,4.3131,4.2241,4.197,4.199,4.197,4.139,4.0984,4.1796,4.1409,4.1023,4.1816,4.139,4.1042,4.1796,4.1351,4.079,4.079,4.0848,4.09,4.09,4.1016,4.1048,4.0926,4.0972,4.1019,4.1021,4.0288,3.9761,3.9761,3.9078,3.8593,3.8593,3.8593,3.8921,3.9702,3.9761,4.0132,4.0991,4.101,4.101,4.101,4.101,4.103,4.1049,4.1049,4.1069,4.1108,4.1108,4.1108,2.9988,3.1757,3.3564,3.5557,3.7793,3.9785,4.0906,4.2048,4.286,4.286,4.2647,4.2434,4.2434,4.2686,4.3027,4.355,4.4311,4.5012,4.5563,4.5122,4.4547,4.4008,4.4432,4.4564,4.4025,4.4968,4.564,4.5706,4.5703,4.5715,4.5727,4.552,4.551,4.578,4.5026,4.4987,4.578,4.4697,4.4427,4.5007,4.5007,4.5142,4.5374,4.4543,4.433,4.4581,4.4001,4.4214,4.5007,4.5007,4.5316,4.58,4.58,4.58,4.58,4.58,4.58,4.5684,4.4891,4.4233,4.3692,4.3401,4.3305,4.315,4.226,4.2009,4.1893,4.1351,4.1003,4.0848,4.1119,4.1003,4.0868,4.1139,4.1003,4.0868,4.1139,4.0984,4.079,4.079,4.081,4.0829,4.0829,4.0919,4.0963,4.0915,4.0986,4.1053,4.1097,4.0834,4.0659,4.0659,4.0424,4.0249,4.0249,4.0249,4.0366,4.0659,4.0659,4.0795,4.1088,4.1108,4.1108,4.1108,4.1108,4.1108,4.1108,4.1108,4.1108,4.1108,4.1693,4.1967,3.2017,3.3776,3.5411,3.7715,4.0017,4.1912,4.2744,4.3363,4.3692,4.3363,4.2609,4.1912,4.1622,4.1564,4.1938,4.3043,4.3651,4.4357,4.5481,4.5101,4.4528,4.4047,4.4412,4.4509,4.4028,4.497,4.564,4.5693,4.5706,4.5719,4.5731,4.5486,4.5476,4.578,4.5026,4.4987,4.578,4.4736,4.4465,4.5026,4.4736,4.4871,4.5336,4.4504,4.4311,4.4581,4.402,4.4253,4.5026,4.5026,4.5336,4.58,4.58,4.58,4.58,4.58,4.5626,4.5297,4.4775,4.404,4.3305,4.3305,4.3092,4.2725,4.2164,4.2009,4.1835,4.1023,4.079,4.079,4.079,4.079,4.079,4.079,4.1023,4.1139,4.0848,4.1023,4.1139,4.0848,4.079,4.079,4.079,4.0829,4.0868,4.0938,4.0933,4.0935,4.0991,4.1051,4.1097,4.1066,4.1097,4.1108,4.1108,4.1108,4.1108,4.1108,4.1108,4.1108,4.1108,4.1108,4.1108,4.1108,4.1108,4.1244,4.1557,4.1557,4.1713,4.2045,4.2591,4.2864,3.3724,3.5198,3.6748,4.0036,4.2125,4.3576,4.4407,4.4581,4.4272,4.3363,4.2434,4.1545,4.0694,4.0597,4.1197,4.2841,4.3159,4.379,4.5468,4.4232,4.3758,4.5413,4.4162,4.3797,4.5432,4.5586,4.5622,4.5693,4.5693,4.5742,4.58,4.5008,4.4945,4.5761,4.5065,4.5026,4.578,4.58,4.58,4.578,4.5026,4.4659,4.4639,4.3769,4.3827,4.4601,4.4562,4.4987,4.5742,4.5742,4.5761,4.58,4.58,4.58,4.58,4.58,4.5316,4.4659,4.4659,4.4059,4.3305,4.3343,4.2744,4.2009,4.2048,4.2009,4.1777,4.1003,4.079,4.079,4.079,4.0829,4.0848,4.0848,4.1487,4.1854,4.1081,4.1525,4.1835,4.1023,4.0829,4.079,4.079,4.0829,4.0887,4.1035,4.0974,4.0904,4.0816,4.0962,4.1071,4.1013,4.1051,4.1094,4.1091,4.1091,4.1091,4.1108,4.1108,4.1108,4.1108,4.1108,4.1108,4.1108,4.1147,4.1576,4.2396,4.2435,4.2884,4.3704,4.3743,4.3762,3.4831,3.7386,3.9843,4.1332,4.2995,4.433,4.4562,4.4098,4.3208,4.1738,4.023,3.8721,3.727,3.8025,3.9199,4.0229,4.1957,4.3759,4.5406,4.468,4.4393,4.547,4.4643,4.4412,4.549,4.5586,4.5622,4.5622,4.5657,4.5709,4.5706,4.5557,4.5583,4.5776,4.5592,4.5587,4.58,4.58,4.58,4.58,4.5587,4.549,4.5471,4.4639,4.4388,4.4562,4.3904,4.4117,4.491,4.491,4.5258,4.58,4.58,4.58,4.58,4.58,4.5664,4.549,4.549,4.4523,4.3421,4.4059,4.3247,4.2125,4.2763,4.2106,4.1061,4.0848,4.079,4.079,4.079,4.1235,4.168,4.168,4.2357,4.2918,4.2705,4.2821,4.2725,4.1854,4.1216,4.079,4.079,4.1293,4.1699,4.1738,4.2298,4.2294,4.1096,4.0944,4.0952,4.0992,4.1019,4.1053,4.111,4.1108,4.1103,4.1091,4.1108,4.1108,4.1108,4.1108,4.1108,4.1108,4.1732,4.2181,4.2396,4.304,4.3489,4.3723,4.4367,4.468,3.6806,3.9301,4.1525,4.2357,4.3305,4.3924,4.3556,4.2222,4.0597,3.8914,3.7452,3.6099,3.4795,3.5925,3.7467,3.8685,4.0993,4.32,4.4848,4.4968,4.5047,4.5528,4.5163,4.5047,4.5547,4.5586,4.5586,4.5586,4.564,4.5676,4.5693,4.5742,4.577,4.58,4.581,4.5805,4.58,4.58,4.58,4.58,4.58,4.58,4.578,4.5336,4.5123,4.5104,4.4601,4.4678,4.5123,4.5123,4.5394,4.58,4.58,4.58,4.58,4.58,4.58,4.58,4.58,4.5181,4.4427,4.4562,4.3692,4.2667,4.315,4.2376,4.1332,4.1332,4.1061,4.0868,4.1235,4.1661,4.2106,4.2473,4.3247,4.3769,4.3382,4.3595,4.3614,4.2744,4.2202,4.1893,4.1893,4.226,4.257,4.257,4.3015,4.3027,4.2131,4.17,4.1331,4.0942,4.0935,4.0971,4.1009,4.1032,4.1054,4.1054,4.1089,4.1101,4.1101,4.1094,4.1108,4.1108,4.1967,4.2591,4.2962,4.384,4.4465,4.4855,4.5343,4.5578,3.8849,4.0713,4.2183,4.2937,4.3131,4.2879,4.1893,3.9765,3.756,3.5847,3.4792,3.3892,3.3072,3.4298,3.6006,3.7732,4.0023,4.2217,4.4113,4.4908,4.5336,4.5566,4.549,4.547,4.5586,4.5586,4.5586,4.5586,4.5586,4.5622,4.5693,4.5693,4.5742,4.5781,4.58,4.5795,4.58,4.58,4.58,4.58,4.58,4.58,4.58,4.58,4.58,4.58,4.58,4.58,4.58,4.58,4.58,4.58,4.58,4.58,4.58,4.58,4.58,4.58,4.58,4.58,4.5684,4.4987,4.4175,4.3479,4.3479,4.286,4.2164,4.2164,4.1661,4.1293,4.199,4.226,4.2531,4.3285,4.4136,4.4562,4.3808,4.4136,4.4388,4.3614,4.3382,4.3305,4.3305,4.3401,4.3479,4.3479,4.3556,4.3595,4.3498,4.2712,4.1866,4.1071,4.0915,4.0944,4.1072,4.1129,4.1218,4.1319,4.1383,4.1426,4.1425,4.1437,4.1445,4.1443,4.2298,4.3118,4.386,4.4758,4.5558,4.63,4.63,4.63,3.8992,4.0713,4.2048,4.2183,4.2222,4.1816,4.0204,3.8438,3.664,3.4894,3.387,3.3051,3.218,3.3404,3.5071,3.6768,3.8579,4.0804,4.3891,4.3855,4.4047,4.5432,4.4951,4.4797,4.5528,4.5586,4.5586,4.5586,4.5586,4.5622,4.5622,4.5657,4.5706,4.5715,4.5715,4.5731,4.5795,4.5795,4.5791,4.58,4.58,4.58,4.58,4.58,4.58,4.58,4.58,4.58,4.58,4.58,4.58,4.58,4.58,4.58,4.58,4.58,4.58,4.58,4.58,4.58,4.578,4.5645,4.5045,4.4369,4.4369,4.3769,4.3073,4.3073,4.2976,4.2899,4.3034,4.3614,4.4194,4.4349,4.5007,4.5548,4.5394,4.4968,4.4562,4.4407,4.3788,4.3305,4.3305,4.3904,4.4369,4.4369,4.4949,4.5123,4.4465,4.3002,4.1986,4.1884,4.1237,4.112,4.1909,4.1993,4.2305,4.3022,4.3075,4.3111,4.3154,4.3161,4.3183,4.3258,4.4094,4.4621,4.4777,4.5656,4.6144,4.63,4.63,4.63,3.9146,4.072,4.1905,4.1487,4.1023,4.0133,3.7912,3.6134,3.4433,3.267,3.1984,3.1579,3.1193,3.2494,3.4024,3.5252,3.7255,3.9687,4.2585,4.3066,4.372,4.5393,4.522,4.5143,4.5547,4.5586,4.5586,4.5586,4.5586,4.5586,4.5586,4.5657,4.569,4.5687,4.57,4.5715,4.575,4.575,4.5746,4.5742,4.5742,4.5776,4.5791,4.5791,4.5805,4.58,4.58,4.58,4.58,4.58,4.58,4.58,4.58,4.58,4.58,4.58,4.58,4.58,4.58,4.58,4.58,4.58,4.5529,4.522,4.522,4.4639,4.3982,4.3982,4.3653,4.3401,4.3866,4.4291,4.4717,4.5123,4.551,4.58,4.58,4.549,4.522,4.522,4.4891,4.4601,4.4601,4.4949,4.522,4.522,4.5548,4.5664,4.5278,4.4136,4.3202,4.2763,4.2349,4.2276,4.2731,4.2801,4.3005,4.343,4.3479,4.352,4.3543,4.357,4.3629,4.3652,4.4544,4.5001,4.4992,4.587,4.63,4.63,4.63,4.63,3.8948,4.0308,4.126,4.0449,3.9727,3.8535,3.591,3.4171,3.2607,3.0835,3.0447,3.0417,3.0477,3.1546,3.2832,3.4007,3.6086,3.8551,4.1393,4.2547,4.372,4.5393,4.5586,4.5586,4.5586,4.5586,4.5586,4.5586,4.5586,4.5586,4.5586,4.564,4.5693,4.5693,4.5687,4.5684,4.57,4.57,4.57,4.57,4.57,4.5715,4.5781,4.5781,4.5776,4.5786,4.5786,4.5786,4.5786,4.5786,4.5786,4.5786,4.5786,4.5786,4.5786,4.5786,4.5786,4.5786,4.5786,4.5786,4.5786,4.5786,4.5786,4.58,4.58,4.5355,4.4871,4.4858,4.4355,4.4001,4.4684,4.4858,4.5026,4.5645,4.58,4.58,4.58,4.58,4.58,4.58,4.58,4.58,4.58,4.58,4.58,4.58,4.58,4.58,4.58,4.5258,4.4601,4.3904,4.3518,4.3382,4.3556,4.3634,4.3729,4.3904,4.3966,4.4015,4.4035,4.4097,4.4133,4.4169,4.4883,4.5269,4.5277,4.5977,4.6306,4.6306,4.6306,4.6306,3.7997,3.8923,3.9444,3.8633,3.8395,3.7629,3.5005,3.3735,3.2585,3.0779,3.0394,3.0406,3.0421,3.0544,3.141,3.3808,3.5064,3.7161,4.1239,4.2547,4.372,4.5393,4.5586,4.5586,4.5586,4.5586,4.5586,4.5586,4.5586,4.5586,4.5586,4.5622,4.5622,4.5622,4.5603,4.564,4.5709,4.5709,4.5706,4.57,4.57,4.5715,4.5715,4.5715,4.5715,4.5715,4.5715,4.5715,4.5715,4.5715,4.5715,4.5715,4.5715,4.5715,4.5715,4.5715,4.5715,4.5715,4.5715,4.5715,4.5715,4.5715,4.5742,4.58,4.58,4.5742,4.5684,4.5679,4.5617,4.5587,4.566,4.5689,4.5703,4.578,4.58,4.58,4.58,4.58,4.58,4.58,4.58,4.58,4.58,4.58,4.58,4.58,4.58,4.58,4.58,4.5742,4.5664,4.5568,4.4214,4.3614,4.4407,4.4485,4.4808,4.5524,4.5595,4.5647,4.5764,4.5783,4.5852,4.5956,4.6051,4.6129,4.6172,4.6265,4.63,4.63,4.63,4.63,3.7077,3.7951,3.8414,3.7617,3.7385,3.6677,3.4098,3.3277,3.254,3.0768,3.039,3.0402,3.041,3.0398,3.1064,3.3083,3.3718,3.5238,3.8988,4.0258,4.1623,4.3835,4.4509,4.5009,4.5547,4.5586,4.5586,4.5586,4.5586,4.5586,4.5586,4.5586,4.5586,4.5586,4.5586,4.5603,4.564,4.564,4.5657,4.5654,4.5654,4.5654,4.5706,4.5706,4.5703,4.57,4.57,4.57,4.57,4.57,4.57,4.57,4.57,4.57,4.57,4.57,4.57,4.57,4.57,4.57,4.57,4.57,4.5731,4.5742,4.5742,4.5742,4.5727,4.5731,4.5746,4.5727,4.5731,4.5746,4.5742,4.5791,4.5791,4.5791,4.58,4.58,4.58,4.58,4.58,4.58,4.58,4.58,4.58,4.58,4.58,4.58,4.58,4.58,4.58,4.58,4.52,4.4949,4.5297,4.5316,4.5452,4.578,4.58,4.5819,4.5877,4.5958,4.6033,4.6091,4.6118,4.6163,4.623,4.6249,4.6268,4.6307,4.6307,4.6307,3.5798,3.6845,3.7486,3.6684,3.6453,3.581,3.3516,3.281,3.2177,3.0717,3.0398,3.0398,3.0398,3.0398,3.0871,3.2314,3.2968,3.4391,3.7565,3.895,4.0508,4.2835,4.3816,4.4528,4.5163,4.5451,4.5586,4.5586,4.5586,4.5586,4.5586,4.5586,4.5586,4.5586,4.5586,4.5586,4.5586,4.5586,4.5586,4.5586,4.5586,4.5622,4.5657,4.5657,4.5673,4.5668,4.5668,4.5668,4.5668,4.5668,4.5668,4.5668,4.5668,4.5668,4.5668,4.5668,4.5668,4.5668,4.5668,4.5668,4.5668,4.5668,4.5668,4.5668,4.5668,4.5684,4.57,4.5684,4.5703,4.5703,4.57,4.57,4.5715,4.5765,4.5765,4.5781,4.5771,4.5771,4.5771,4.5805,4.5805,4.5786,4.58,4.58,4.58,4.58,4.58,4.58,4.58,4.58,4.58,4.58,4.58,4.58,4.58,4.58,4.58,4.58,4.58,4.58,4.58,4.5877,4.5969,4.6007,4.6044,4.6103,4.6171,4.6187,4.6211,4.6269,4.6289,4.6308,3.3987,3.543,3.6507,3.5714,3.5515,3.5072,3.3383,3.2324,3.1465,3.0583,3.0398,3.0398,3.0398,3.0398,3.0698,3.1564,3.3103,3.5084,3.7642,3.9431,4.1143,4.2893,4.3816,4.4297,4.4316,4.5086,4.5586,4.5586,4.5586,4.5586,4.5586,4.5586,4.5586,4.5586,4.5586,4.5586,4.5586,4.5586,4.5586,4.5586,4.5586,4.5586,4.5586,4.5586,4.5586,4.5586,4.5586,4.5586,4.5586,4.5586,4.5586,4.5586,4.5586,4.5586,4.5586,4.5586,4.5586,4.5586,4.5586,4.5586,4.5586,4.5586,4.5586,4.5586,4.5586,4.5654,4.57,4.569,4.5709,4.569,4.57,4.57,4.57,4.57,4.57,4.57,4.57,4.57,4.5715,4.58,4.58,4.5795,4.58,4.58,4.58,4.58,4.58,4.58,4.58,4.58,4.58,4.58,4.58,4.58,4.58,4.58,4.58,4.58,4.58,4.58,4.58,4.58,4.5858,4.6007,4.6007,4.6027,4.6098,4.6162,4.6191,4.6191,4.6269,4.6308,3.2256,3.3276,3.3923,3.3102,3.3313,3.3436,3.2362,3.1908,3.146,3.0583,3.0398,3.0398,3.0398,3.0398,3.1263,3.3872,3.4737,3.5988,3.8527,4.0335,4.1585,4.2162,4.397,4.5182,4.5182,4.5432,4.5586,4.5586,4.5586,4.5586,4.5586,4.5586,4.5586,4.5586,4.5586,4.5586,4.5586,4.5586,4.5586,4.5586,4.5586,4.5586,4.5586,4.5586,4.5586,4.5586,4.5586,4.5586,4.5586,4.5586,4.5586,4.5586,4.5586,4.5586,4.5586,4.5586,4.5586,4.5586,4.5586,4.5586,4.5586,4.5586,4.5586,4.5586,4.5586,4.562,4.5637,4.564,4.564,4.564,4.5637,4.5637,4.5637,4.569,4.5706,4.5706,4.57,4.57,4.5715,4.5715,4.5731,4.5731,4.5727,4.5761,4.581,4.581,4.5805,4.58,4.58,4.58,4.58,4.58,4.58,4.58,4.58,4.58,4.58,4.58,4.58,4.58,4.58,4.58,4.5819,4.5858,4.5858,4.593,4.6027,4.6053,4.6105,4.6191,4.6211,4.6269,3.0758,3.1814,3.2391,3.2204,3.2307,3.2314,3.18,3.1441,3.1064,3.0513,3.0398,3.0398,3.0398,3.0679,3.1487,3.3282,3.4391,3.5776,3.8007,3.9777,4.1335,4.2585,4.4143,4.524,4.5566,4.5586,4.5586,4.5586,4.5586,4.5586,4.5586,4.5586,4.5586,4.5586,4.5586,4.5586,4.5586,4.5586,4.5586,4.5586,4.5586,4.5586,4.5586,4.5586,4.5586,4.5586,4.5586,4.5586,0.0,4.5586,4.5586,4.5586,4.5586,4.5586,4.5586,4.5586,4.5586,4.5586,4.5586,4.5586,4.5586,4.5586,4.5586,4.5586,4.5586,4.5586,4.5586,4.5586,4.5586,4.5586,4.5586,4.5586,4.5622,4.5657,4.5657,4.5657,4.5651,4.5651,4.5668,4.5703,4.5703,4.5703,4.57,4.5731,4.5765,4.5765,4.5761,4.5757,4.5757,4.5757,4.5771,4.5805,4.5805,4.5805,4.58,4.58,4.58,4.58,4.58,4.58,4.58,4.58,4.58,4.58,4.58,4.5838,4.593,4.5988,4.6053,4.6167,4.6163,4.6175,0.0,3.072,3.1578,3.2327,3.1981,3.1501,3.1571,3.0943,0.0,3.0398,3.0398,3.0417,3.0552,3.1141,3.1468,3.1013,3.2872,3.5007,3.6815,3.8565,4.0835,4.4008,4.4393,4.4701,4.5509,4.5586,4.5586,4.5586,4.5586,4.5586,4.5586,4.5586,4.5586,4.5586,4.5586,4.5586,4.5586,4.5586,4.5586,4.5586,4.5586,4.5586,4.5586,4.5586,4.5586,4.5586,4.5586,4.5586,4.5586,4.5586,4.5586,4.5586,4.5586,4.5586,4.5586,4.5586,4.5586,4.5586,4.5586,4.5586,4.5586,4.5586,4.5586,4.5586,4.5586,4.5586,4.5586,4.5586,4.5586,4.5586,4.5586,4.5586,4.5586,4.5586,4.5586,4.5586,4.5586,4.5586,4.5622,4.5693,4.5693,4.569,4.5684,4.57,4.57,4.57,4.57,4.57,4.57,4.57,4.5715,4.58,4.5781,4.5795,4.58,4.58,4.58,4.58,4.58,4.58,4.58,4.58,4.58,4.58,4.58,4.58,4.58,4.593,4.6027,4.6085,4.6085,4.6103,2.6631,0.0,2.847,2.8655,2.9055,2.9599,0.0,3.0252,3.009,3.0343,3.0286,3.0611,3.2039,3.1429,3.191,3.5603,3.6161,3.7161,4.0181,4.2066,4.3662,4.5105,4.5278,4.5355,4.5566,4.5586,4.5586,4.5586,4.5586,4.5586,4.5586,4.5586,4.5586,4.5586,4.5586,4.5586,4.5586,4.5586,4.5586,4.5586,4.5586,4.5586,4.5586,4.5586,4.5586,4.5586,4.5586,4.5586,4.5586,4.5586,4.5586,4.5586,4.5586,4.5586,4.5586,4.5586,4.5586,4.5586,4.5586,4.5586,4.5586,4.5586,4.5586,4.5586,4.5586,4.5586,4.5586,4.5586,4.5586,4.5586,4.5586,4.5586,4.5586,4.5586,4.5586,4.5586,4.5586,4.5586,4.5603,4.5622,4.5622,4.562,4.562,4.5673,4.569,4.569,4.5703,4.57,4.57,4.57,4.5715,4.5715,4.5715,4.5731,4.5712,4.5771,4.58,4.58,4.58,4.58,4.58,4.58,4.58,4.58,4.58,4.58,4.58,4.5819,4.591,4.6027,4.6016,4.6041,2.5032,2.6239,2.7449,2.7843,2.8616,2.9368,2.9897,2.9946,2.9965,3.0215,3.0182,3.0437,3.1558,3.1968,3.2929,3.5276,3.6911,3.895,4.197,4.3835,4.5066,4.5528,4.5586,4.5586,4.5586,4.5586,4.5586,4.5586,4.5586,4.5586,4.5586,4.5586,4.5586,4.5586,4.5586,4.5586,4.5586,4.5586,4.5586,4.5586,4.5586,4.5586,4.5586,4.5586,4.5586,4.5586,4.5586,4.5586,4.5586,4.5586,4.5586,4.5586,4.5586,4.5586,4.5586,4.5586,4.5586,4.5586,4.5586,4.5586,4.5586,4.5586,4.5586,4.5586,4.5586,4.5586,4.5586,4.5586,4.5586,4.5586,4.5586,4.5586,4.5586,4.5586,4.5586,4.5586,4.5586,4.5586,4.5586,4.5586,4.5586,4.5586,4.5586,4.564,4.5657,4.5657,4.5654,4.5651,4.5651,4.5651,4.5671,4.5687,4.5703,4.5703,4.57,4.5727,4.5757,4.5757,4.5757,4.5757,4.5757,4.5757,4.5757,4.5757,4.5757,4.5757,4.5805,4.5805,4.5844,4.5896,4.5902,4.594,2.4357,2.5889,2.7579,2.8183,2.9007,2.9718,2.9848,0.0,0.0,0.0,0.0,3.0284,3.0867,3.2641,3.3968,3.3891,3.7238,4.0681,4.2951,4.4624,4.5586,4.5586,4.5586,4.5605,4.5586,4.5586,4.5586,4.5568,4.5568,4.5568,4.5568,4.5568,4.5568,4.5586,4.5568,4.5568,4.5586,4.5586,4.5586,4.5586,4.5586,4.5586,4.5586,4.5605,4.5586,4.5586,4.5605,4.5586,4.5586,4.5586,4.5586,4.5586,4.5586,4.5586,4.5586,4.5586,4.5586,4.5586,4.5586,4.5586,4.5586,4.5586,4.5586,4.5586,4.5586,4.5586,4.5586,4.5586,4.5586,4.5586,4.5586,4.5586,4.5586,4.5586,4.5586,4.5586,4.5586,4.5586,4.5586,4.5586,4.5586,4.5586,4.5586,4.5586,4.5586,4.5586,4.5586,4.5586,4.5586,4.5586,4.5622,4.5693,4.5673,4.569,4.5684,4.5684,4.5684,4.5684,4.57,4.57,4.57,4.57,4.57,4.57,4.57,4.5731,4.5781,4.5781,4.5776,4.5786,4.5776,4.5781,2.5035,2.6617,2.7904,2.7233,2.7848,2.8849,2.9718,2.9902,2.9981,0.0,0.0,3.0833,3.3173,3.3333,3.4237,3.7738,4.0681,4.2893,4.3951,4.497,4.5586,4.5586,4.5586,4.5568,4.5513,4.5513,4.5495,4.5438,4.5419,4.5419,4.5419,4.5419,4.5476,4.5513,4.5457,4.5476,4.5513,4.5568,4.5586,4.5586,4.5586,4.5568,4.5513,4.5568,4.5568,4.5513,4.5568,4.5586,4.5586,4.5586,4.5586,4.5586,4.5586,4.5586,4.5586,4.5586,4.5586,4.5586,4.5586,4.5586,4.5586,4.5586,4.5586,4.5586,4.5586,4.5586,4.5586,4.5586,4.5586,4.5586,4.5586,4.5586,4.5586,4.5586,4.5586,4.5586,4.5586,4.5586,4.5586,4.5586,4.5586,4.5586,4.5586,4.5586,4.5586,4.5586,4.5586,4.5586,4.5586,4.5586,4.5603,4.5603,4.5622,4.5622,4.562,4.562,4.562,4.562,4.5668,4.57,4.57,4.57,4.57,4.57,4.57,4.5715,4.5715,4.5715,4.5715,4.5731,4.5715,4.5715,2.4649,2.6134,2.755,2.7568,2.9027,3.0525,3.0534,3.0911,3.1336,0.0,0.0,3.1996,3.3799,3.4941,3.7017,4.1303,4.2958,4.3978,4.4839,4.5281,4.555,4.555,4.555,4.5513,4.5438,4.5438,4.5438,4.54,4.54,4.54,4.54,4.54,4.5419,4.5438,4.5419,4.5419,4.5438,4.5476,4.5495,4.5495,4.5495,4.5476,4.5438,4.5476,4.5476,4.5438,4.5476,4.5495,4.5495,4.5495,4.5495,4.5495,4.5495,4.5495,4.5495,4.5495,4.5495,4.5495,4.5495,4.5495,4.5495,4.5495,4.5495,4.5495,4.5495,4.5495,4.5495,4.5495,4.5531,4.5586,4.5586,4.5586,4.5586,4.5586,4.5586,4.5586,4.5586,4.5586,4.5586,4.5586,4.5586,4.5586,4.5586,4.5586,4.5586,4.5586,4.5586,4.5586,4.5586,4.5586,4.5586,4.5586,4.5586,4.5586,4.5586,4.5586,4.5586,4.5586,4.5637,4.5654,4.5654,4.5654,4.5654,4.5654,4.5654,4.5671,4.5687,4.5687,4.5703,4.57,4.5703,4.5687,2.4428,2.5708,2.714,2.7774,2.9869,3.1708,3.1478,3.1984,3.2602,0.0,0.0,3.3555,3.4529,3.6949,3.9925,4.3403,4.4249,4.471,4.538,4.5476,4.5476,4.5476,4.5476,4.5457,4.54,4.54,4.5381,4.538,4.538,4.538,4.538,4.538,4.5381,4.54,4.5381,4.5381,4.54,4.5381,4.5381,4.54,4.54,4.54,4.54,4.54,4.54,4.54,4.54,4.54,4.54,4.54,4.54,4.54,4.54,4.54,4.54,4.54,4.54,4.54,4.54,4.54,4.54,4.54,4.54,4.54,4.54,4.54,4.54,4.54,4.5457,4.5568,4.5568,4.5568,4.5586,4.5605,4.5586,4.5586,4.5586,4.5586,4.5586,4.5586,4.5586,4.5586,4.5586,4.5586,4.5586,4.5586,4.5586,4.5586,4.5586,4.5586,4.5568,4.5513,4.5513,4.5495,4.5419,4.5419,4.5419,4.5419,4.5531,4.5586,4.5586,4.5586,4.5586,4.5586,4.5586,4.5622,4.5693,4.5693,4.569,4.5668,4.5673,4.5693,2.5127,2.6078,2.6953,2.7134,2.8685,3.0548,3.205,3.2645,0.0,3.3843,0.0,3.547,3.6358,3.9211,4.1771,4.283,4.4288,4.5343,4.54,4.5419,4.5419,4.5419,4.5419,4.5419,4.5399,4.5399,4.5379,4.5317,4.5317,4.5317,4.5317,4.5317,4.5338,4.5418,4.5338,4.5338,4.5399,4.5338,4.5339,4.54,4.54,4.54,4.5399,4.54,4.54,4.5399,4.54,4.54,4.54,4.54,4.54,4.54,4.54,4.54,4.54,4.54,4.54,4.54,4.54,4.54,4.54,4.54,4.54,4.54,4.54,4.54,4.54,4.54,4.5419,4.5419,4.5495,4.5513,4.5513,4.5586,4.5586,4.5586,4.5586,4.5586,4.5586,4.5586,4.5586,4.5586,4.5586,4.5586,4.5586,4.5586,4.5586,4.5586,4.5586,4.5586,4.5513,4.5262,4.5222,4.5118,4.4891,4.4868,4.4868,4.4868,4.5322,4.5586,4.5586,4.5586,4.5586,4.5586,4.5586,4.5586,4.5622,4.5622,4.5622,4.5603,4.5622,4.5622,2.4557,2.6114,2.7661,2.7718,2.9138,0.0,0.0,3.3172,3.463,3.5484,3.6312,3.7313,3.869,4.0417,4.2066,4.3446,4.4135,4.4747,4.5323,4.54,4.54,4.54,4.54,4.538,4.5338,4.5338,4.5317,4.5297,4.5297,4.5297,4.5297,4.5297,4.5317,4.5338,4.5317,4.5317,4.5338,4.5317,4.5298,4.5339,4.5339,4.5339,4.5338,4.5339,4.5339,4.5338,4.5339,4.5339,4.5339,4.5339,4.5339,4.5339,4.5339,4.5339,4.5339,4.5339,4.5339,4.5339,4.5339,4.5339,4.5339,4.5339,4.5339,4.5339,4.5339,4.5339,4.5339,4.5339,4.5339,4.5341,4.5419,4.5438,4.5438,4.5476,4.5476,4.5476,4.5476,4.5476,4.5495,4.5531,4.5495,4.5495,4.5531,4.5495,4.5476,4.5476,4.5476,4.5419,4.5243,4.5263,4.5201,4.4938,4.4938,4.4896,4.48,4.48,4.4776,4.4726,4.4985,4.5096,4.5096,4.5096,4.5096,4.5096,4.5096,4.5096,4.5096,4.5096,4.5096,4.5096,4.5096,4.5096,2.419,2.5929,2.7791,2.8129,0.0,0.0,3.2008,3.3792,3.5531,3.6741,3.7852,3.8965,4.0098,4.1207,4.2336,4.3503,4.4094,4.4553,4.4919,4.5186,4.5263,4.4995,4.5206,4.5338,4.5297,4.5297,4.5297,4.5297,4.5297,4.5297,4.5297,4.5194,4.5132,4.5132,4.5065,4.5019,4.5019,4.5019,4.5019,4.5019,4.5019,4.5129,4.5297,4.5194,4.5194,4.5297,4.5194,4.5194,4.5297,4.5297,4.5297,4.5297,4.5297,4.5297,4.5297,4.5297,4.5297,4.5297,4.5297,4.5297,4.5297,4.5297,4.5297,4.5297,4.5297,4.5297,4.5297,4.5297,4.5297,4.5298,4.5361,4.538,4.54,4.54,4.54,4.54,4.54,4.54,4.5419,4.5457,4.5438,4.5419,4.5457,4.5419,4.54,4.54,4.54,4.5342,4.5159,4.5096,4.4919,4.4572,4.4511,4.4484,4.4484,4.4484,4.4457,4.4402,4.4457,4.4546,4.4726,4.4751,4.4751,4.4751,4.4776,4.48,4.48,4.48,4.48,4.48,4.48,4.48,2.419,2.5522,2.7158,2.8144,0.0,0.0,3.3363,3.4516,3.5548,3.7422,3.9193,4.0381,4.031,4.1648,4.2776,4.2775,4.4169,4.4972,4.4092,4.4743,4.4953,4.4112,4.4762,4.5277,4.5297,4.5297,4.5297,4.5297,4.5297,4.5297,4.5297,4.4981,4.48,4.48,4.4546,4.4383,4.4383,4.4383,4.4383,4.4383,4.4383,4.4739,4.5297,4.4957,4.4981,4.5256,4.4934,4.4981,4.5297,4.5297,4.5297,4.5297,4.5297,4.5297,4.5297,4.5297,4.5297,4.5297,4.5297,4.5297,4.5297,4.5297,4.5297,4.5297,4.5297,4.5297,4.5297,4.5297,4.5297,4.5297,4.5297,4.5338,4.5399,4.54,4.54,4.54,4.54,4.54,4.54,4.54,4.54,4.54,4.54,4.54,4.54,4.5381,4.5381,4.54,4.54,4.514,4.4776,4.425,4.3961,4.3804,4.3804,4.3804,4.3804,4.3804,4.3804,4.4048,4.4572,4.465,4.4676,4.4676,4.4751,4.4776,4.4776,4.4776,4.4776,4.4776,4.4776,4.4776,2.419,2.5929,2.7809,2.811,0.0,0.0,0.0,3.4975,0.0,0.0,3.9698,3.9981,3.9785,4.0159,4.065,4.1213,4.1747,4.2248,4.2788,4.3095,4.3447,4.3939,4.4246,4.4628,4.5239,4.5297,4.5297,4.5297,4.5087,4.4957,4.4957,4.4695,4.4519,4.4519,4.4438,4.4383,4.4383,4.4383,4.4383,4.4383,4.4599,4.4695,4.4669,4.4546,4.4572,4.4669,4.4546,4.4591,4.4669,4.4669,4.4669,4.4669,4.4669,4.4669,4.4669,4.4669,4.4669,4.4669,4.4669,4.4669,4.4669,4.4669,4.4669,4.4669,4.4669,4.4669,4.4669,4.4669,4.4669,4.4669,4.4669,4.4669,4.4795,4.5237,4.5339,4.5339,4.5339,4.5339,4.5279,4.5074,4.5199,4.5279,4.5074,4.5199,4.5258,4.5007,4.4985,4.4849,4.4519,4.4213,4.398,4.3929,4.3851,4.3804,4.3804,4.3804,4.3753,4.3667,4.3667,4.3781,4.4036,4.4048,4.4048,4.4048,4.4079,4.4109,4.4109,4.4109,4.4109,4.4109,4.4109,4.4109,2.4617,2.6507,2.8539,2.957,3.1017,3.2637,3.4187,3.5723,3.7376,3.935,3.9743,3.9702,3.9532,3.9746,4.0171,4.0758,4.1141,4.1539,4.1974,4.2626,4.3164,4.348,4.399,4.4516,4.5052,4.5019,4.4953,4.4953,4.4745,4.465,4.465,4.4402,4.425,4.425,4.4114,4.4053,4.4053,4.4053,4.4053,4.4053,4.4184,4.4154,4.4011,4.4289,4.4383,4.4402,4.4374,4.4374,4.4402,4.4374,4.4374,4.4374,4.4374,4.4327,4.428,4.428,4.4327,4.4355,4.4299,4.4327,4.4402,4.4374,4.4374,4.4374,4.4383,4.4383,4.4374,4.4383,4.4383,4.4383,4.4383,4.4383,4.4493,4.4862,4.4953,4.4953,4.4953,4.4953,4.4887,4.4726,4.4819,4.4887,4.4726,4.4838,4.4862,4.4676,4.465,4.4493,4.4091,4.3892,4.3749,4.3686,4.3686,4.3686,4.3686,4.3686,4.3652,4.3566,4.3548,4.36,4.3686,4.3719,4.3719,4.3719,4.3753,4.3804,4.3804,4.3804,4.3804,4.3804,4.3804,4.3804,2.5224,2.7075,2.9155,3.1614,3.2428,3.3148,3.5281,3.6462,3.7546,3.9057,3.9421,3.9477,3.9427,4.0033,4.0597,4.0881,4.159,4.1923,4.1492,4.2733,4.3477,4.2905,4.3908,4.4675,4.4751,4.4546,4.4383,4.4383,4.4374,4.4355,4.4374,4.4091,4.3942,4.3942,4.3649,4.3479,4.3479,4.3479,4.3479,4.3479,4.3446,4.3411,4.3411,4.4023,4.4299,4.427,4.4231,4.4213,4.427,4.4231,4.4202,4.4202,4.4202,4.4125,4.4028,4.4028,4.4106,4.4202,4.4058,4.4136,4.427,4.4231,4.4202,4.4202,4.427,4.426,4.4202,4.427,4.4299,4.4299,4.4299,4.4299,4.4299,4.4299,4.4355,4.4383,4.4383,4.4383,4.4383,4.4374,4.4383,4.4383,4.4374,4.4383,4.4383,4.4374,4.4346,4.4231,4.3986,4.3942,4.3846,4.3513,4.3497,4.3497,4.3497,4.3497,4.3497,4.3497,4.3497,4.3497,4.3497,4.3548,4.3582,4.3582,4.3719,4.3771,4.3771,4.3771,4.3771,4.3771,4.3771,4.3771,2.5002,2.6803,2.8651,3.0521,3.2533,3.4301,3.5272,3.564,3.6261,3.7906,3.8763,3.9129,3.8892,3.901,3.9238,3.948,3.9682,4.0068,4.0766,4.1173,4.1814,4.2925,4.3307,4.3732,4.4436,4.4438,4.4383,4.4383,4.4114,4.3962,4.4079,4.3631,4.341,4.3516,4.3358,4.3268,4.3268,4.3268,4.3268,4.3286,4.3529,4.3495,4.3251,4.3391,4.3477,4.3477,4.3442,4.3442,4.3442,4.3442,4.3461,4.3461,4.3461,4.3408,4.3408,4.3408,4.3408,4.3442,4.3408,4.3408,4.3442,4.3442,4.3461,4.3442,4.3442,4.3442,4.3442,4.3442,4.3477,4.3477,4.3477,4.3477,4.3477,4.3477,4.3943,4.4383,4.4383,4.4383,4.4346,4.4121,4.425,4.4346,4.4121,4.4279,4.4318,4.4121,4.3841,4.3664,4.3615,4.3615,4.3582,4.3532,4.3497,4.3497,4.3497,4.3497,4.3497,4.3497,4.3497,4.3497,4.3497,4.3513,4.3513,4.3513,4.3566,4.3566,4.3566,4.3566,4.3566,4.3566,4.3566,4.3566,2.5409,2.6822,2.8184,3.0541,3.2747,3.4367,3.4541,3.4895,3.5385,3.6224,3.7442,3.842,3.8646,3.8658,3.8683,3.8952,3.898,3.9212,3.9892,4.0356,4.0918,4.1761,4.21,4.2425,4.2883,4.3125,4.3243,4.3243,4.307,4.314,4.3579,4.2624,4.2448,4.3286,4.2867,4.2813,4.3214,4.3214,4.3214,4.3196,4.3321,4.3286,4.305,4.316,4.3214,4.3214,4.316,4.3178,4.3214,4.316,4.316,4.316,4.316,4.3105,4.305,4.305,4.3105,4.316,4.3087,4.3123,4.3196,4.3142,4.316,4.316,4.3178,4.3178,4.316,4.3178,4.3214,4.3214,4.3214,4.3214,4.3214,4.3214,4.3579,4.3918,4.3918,4.3949,4.3918,4.3795,4.3873,4.3918,4.3749,4.3777,4.3791,4.3716,4.3566,4.3463,4.3497,4.3497,4.3497,4.3497,4.3497,4.3497,4.3497,4.3497,4.3497,4.3497,4.3497,4.341,4.3232,4.341,4.3497,4.3497,4.3497,4.3497,4.3497,4.3497,4.3497,4.3497,4.3497,4.3497,2.5319,2.6748,2.8109,3.1084,3.2939,3.3972,3.3726,3.421,3.4694,3.4783,3.6124,3.7484,3.831,3.8358,3.842,3.8839,3.8828,3.8942,3.9303,3.9973,4.0449,4.0524,4.0922,4.1193,4.1193,4.1577,4.1774,4.1774,4.1792,4.2084,4.2759,4.1484,4.1356,4.2723,4.2103,4.2067,4.2741,4.285,4.2923,4.2923,4.3014,4.3012,4.29,4.3087,4.316,4.3142,4.3086,4.3086,4.3123,4.3086,4.3067,4.3067,4.3067,4.2994,4.2882,4.2882,4.2994,4.3049,4.2938,4.3013,4.3142,4.3086,4.3067,4.3086,4.3142,4.3105,4.3086,4.3123,4.316,4.316,4.316,4.316,4.316,4.316,4.3251,4.3359,4.334,4.3393,4.3463,4.3463,4.3463,4.3428,4.3376,4.3251,4.3251,4.334,4.3359,4.3376,4.3463,4.3463,4.3463,4.3463,4.3463,4.3463,4.3463,4.3463,4.3463,4.3375,4.3375,4.3178,4.275,4.305,4.3232,4.3232,4.341,4.3497,4.3497,4.3497,4.3497,4.3497,4.3497,4.3497,2.3014,2.5949,2.9237,3.1686,3.3048,3.3726,3.3615,3.3706,3.398,3.4673,3.559,3.6534,3.7247,3.7411,3.7686,3.8678,3.8818,3.9058,3.9801,3.9986,4.0246,4.0716,4.0833,4.0873,4.0873,4.0896,4.0969,4.0969,4.0903,4.0957,4.1099,4.076,4.069,4.1032,4.0817,4.0763,4.0872,4.156,4.1905,4.1923,4.2612,4.2938,4.2882,4.2938,4.2938,4.2938,4.2938,4.2938,4.2938,4.2938,4.2938,4.2938,4.2938,4.2938,4.2882,4.2882,4.292,4.2938,4.29,4.2938,4.2938,4.2938,4.2938,4.2938,4.2938,4.292,4.2938,4.2938,4.2938,4.2938,4.2938,4.2938,4.2938,4.2938,4.3031,4.3178,4.3214,4.3232,4.3232,4.3232,4.3232,4.3251,4.3251,4.3214,4.3214,4.3214,4.3214,4.3251,4.3251,4.3232,4.3232,4.3232,4.3232,4.3232,4.3232,4.334,4.3251,4.2826,4.2826,4.2598,4.2121,4.2144,4.2185,4.2185,4.3069,4.3497,4.3497,4.3497,4.3497,4.3497,4.3497,4.3497,2.348,2.6425,2.9296,3.1235,3.2329,3.3012,3.3458,3.3549,3.3611,3.3946,3.435,3.5046,3.6286,3.6875,3.7294,3.7778,3.8199,3.8606,3.8953,3.899,3.9071,3.9322,3.9343,3.9343,3.9343,3.9743,4.0015,4.0015,3.9999,4.018,4.0633,3.9712,3.9639,4.0581,4.0147,4.0093,4.051,4.0872,4.127,4.1723,4.252,4.2882,4.2882,4.2882,4.2882,4.2882,4.2882,4.2882,4.2882,4.2882,4.2882,4.2882,4.2882,4.2882,4.2882,4.2882,4.2882,4.2882,4.2882,4.2882,4.2882,4.2882,4.2882,4.2882,4.2882,4.2882,4.2882,4.2882,4.2882,4.2882,4.2882,4.2882,4.2882,4.2882,4.2938,4.2994,4.3013,4.3123,4.3214,4.3214,4.3178,4.316,4.316,4.3068,4.305,4.3123,4.316,4.316,4.3214,4.3214,4.3214,4.3214,4.2976,4.2808,4.2808,4.2637,4.2422,4.2203,4.2203,4.1997,4.1508,4.1768,4.1768,4.1508,4.2342,4.277,4.277,4.277,4.2714,4.2657,4.2657,4.26,2.3891,2.6304,2.8317,3.009,3.1428,3.2456,3.3027,3.3335,3.3452,3.3393,3.3452,3.3873,3.5114,3.5945,3.6531,3.6731,3.7392,3.7884,3.7884,3.8065,3.8192,3.8192,3.8192,3.8192,3.8192,3.8735,3.9097,3.9097,3.9097,3.9333,3.9894,3.8808,3.8717,3.9894,3.9369,3.9351,3.9912,4.013,4.0637,4.1379,4.2212,4.2592,4.2592,4.281,4.2882,4.2882,4.2882,4.2882,4.2882,4.2882,4.2882,4.2882,4.2882,4.2882,4.2882,4.2882,4.2882,4.2882,4.2882,4.2882,4.2882,4.2882,4.2882,4.2882,4.2882,4.2882,4.2882,4.2882,4.2882,4.2882,4.2882,4.2882,4.2882,4.2882,4.2882,4.2882,4.2882,4.3013,4.3123,4.3123,4.3068,4.3049,4.3049,4.2956,4.29,4.288,4.288,4.2862,4.2788,4.277,4.277,4.277,4.2462,4.2244,4.2244,4.1955,4.1725,4.1595,4.1578,4.1375,4.0926,4.1213,4.1258,4.0908,4.1455,4.1906,4.2098,4.2098,4.2056,4.1937,4.1937,4.1895,2.2998,2.4602,2.5936,2.8184,3.0531,3.2292,3.2262,3.285,3.3393,3.3393,3.3393,3.3429,3.3502,3.419,3.4987,3.5747,3.6526,3.7051,3.7051,3.7703,3.8192,3.8192,3.8192,3.8192,3.8192,3.8228,3.8246,3.8246,3.8246,3.8264,3.8301,3.8228,3.8228,3.8301,3.8264,3.8264,3.8301,3.9079,3.9822,4.0582,4.1397,4.1778,4.1814,4.2538,4.2882,4.2882,4.2882,4.2882,4.2882,4.2882,4.2882,4.2882,4.2882,4.2882,4.2882,4.2882,4.2882,4.2882,4.2882,4.2882,4.2882,4.2882,4.2882,4.2882,4.2882,4.2882,4.2882,4.2882,4.2882,4.2882,4.2882,4.2882,4.2882,4.2882,4.2882,4.2882,4.2882,4.292,4.2938,4.2938,4.292,4.292,4.292,4.2882,4.275,4.2338,4.2257,4.2074,4.1656,4.1569,4.1569,4.1569,4.1569,4.1569,4.1569,4.1648,4.1516,4.1065,4.0984,4.075,4.0387,4.0387,4.0387,4.0337,4.0517,4.099,4.181,4.181,4.181,4.181,4.181,4.181,2.2021,2.3671,2.5524,2.7363,2.8884,3.0323,3.1836,3.2415,3.2777,3.3284,3.3393,3.3393,3.3393,3.4063,3.4697,3.4987,3.5711,3.6399,3.6924,3.7265,3.7612,3.8119,3.8192,3.8192,3.8192,3.8192,3.8192,3.8192,3.8192,3.8192,3.8192,3.8192,3.8192,3.8192,3.8192,3.8192,3.8192,3.8989,3.9479,3.9697,4.0492,4.0853,4.0798,4.1105,4.125,4.125,4.125,4.1538,4.2029,4.1448,4.1269,4.1306,4.1232,4.1269,4.1361,4.1306,4.1324,4.1361,4.1361,4.1361,4.1361,4.1361,4.1361,4.147,4.1977,4.214,4.2248,4.2737,4.2862,4.2842,4.29,4.2862,4.2842,4.29,4.2882,4.2806,4.2498,4.2673,4.2882,4.2882,4.2882,4.2882,4.2882,4.2634,4.2378,4.2216,4.1931,4.17,4.1525,4.1481,4.1481,4.1481,4.123,4.1065,4.1065,4.0802,4.0628,4.0434,4.0385,4.0336,4.0188,4.0188,4.0188,4.0188,4.0238,4.05,4.099,4.099,4.0943,4.0849,4.0849,4.0784,2.1025,2.2437,2.4266,2.6131,2.7218,2.8431,3.084,3.16,3.2035,3.2832,3.3212,3.3393,3.3393,3.3846,3.4208,3.4208,3.4878,3.5584,3.6109,3.6417,3.6798,3.7323,3.7631,3.7794,3.7794,3.8029,3.8192,3.8192,3.8192,3.8192,3.8192,3.8192,3.8192,3.8192,3.8192,3.8174,3.8122,3.8665,3.8883,3.8779,3.959,3.9932,3.9913,4.0183,4.0291,4.0273,3.9966,4.0345,4.1122,4.0562,4.0328,4.0365,4.0328,4.0365,4.042,4.0384,4.0384,4.042,4.042,4.042,4.042,4.042,4.042,4.0564,4.1359,4.1594,4.1775,4.2551,4.2765,4.2727,4.2786,4.2765,4.2745,4.267,4.2613,4.2516,4.2074,4.232,4.2634,4.244,4.244,4.244,4.244,4.2198,4.1888,4.176,4.1455,4.123,4.1047,4.1047,4.1047,4.1047,4.0737,4.058,4.058,4.0254,4.007,4.007,4.007,4.007,4.007,4.007,4.007,4.007,4.007,4.0188,4.0387,4.0387,4.0337,4.0238,4.0238,4.0188,0.0,0.0,0.0,2.4375,2.5552,2.6783,2.9174,3.0314,3.1129,3.1962,3.2777,3.3339,3.3357,3.3375,3.3393,3.3393,3.4063,3.457,3.4606,3.5276,3.5783,3.582,3.6508,3.7011,3.7011,3.7721,3.8192,3.8192,3.8192,3.8192,3.8192,3.8192,3.8192,3.8192,3.8192,3.814,3.7984,3.7984,3.7967,3.7917,3.869,3.9067,3.9085,3.9841,4.0219,4.0183,3.9245,3.9389,4.0219,4.0219,4.0219,4.0219,4.0219,4.0219,4.0237,4.0219,4.0237,4.0237,4.0237,4.0237,4.0237,4.0237,4.0237,4.0381,4.1135,4.1369,4.1548,4.2375,4.2609,4.257,4.2552,4.2552,4.2472,4.2145,4.2061,4.1959,4.1543,4.1846,4.2015,4.1569,4.1481,4.1481,4.1481,4.1481,4.1303,4.0896,4.0802,4.0611,4.0171,4.007,4.007,4.007,4.007,4.007,4.007,4.007,4.007,4.007,4.007,4.007,4.007,4.007,4.007,4.007,4.007,4.007,4.007,4.007,4.007,4.007,4.007,4.007,1.9685,0.0,0.0,0.0,0.0,0.0,2.7652,2.825,2.8793,3.017,3.1093,3.1836,3.2415,3.3013,3.3393,3.3393,3.3592,3.3936,3.4534,3.4806,3.5168,3.5747,3.6508,3.7011,3.7011,3.7721,3.8192,3.8192,3.8192,3.8192,3.8192,3.8192,3.814,3.807,3.8036,3.8002,3.7934,3.7934,3.7881,3.7757,3.7972,3.8061,3.8043,3.8258,3.8347,3.8329,3.8078,3.8114,3.8347,3.8347,3.8384,3.8402,3.8384,3.8438,3.8546,3.8456,3.8492,3.8546,3.8546,3.8546,3.8546,3.8546,3.8546,3.8798,4.0146,4.0542,4.0829,4.2214,4.2292,4.1881,4.1481,4.142,4.1508,4.1393,4.1393,4.1303,4.0955,4.0938,4.1122,4.1437,4.1481,4.1481,4.1481,4.123,4.0926,4.0802,4.0531,4.0271,4.0138,4.007,4.007,4.007,4.007,4.007,4.007,4.007,4.007,4.007,4.007,4.007,4.007,4.007,4.007,4.007,4.007,4.007,4.007,4.007,4.007,4.007,4.007,4.007,2.0355,2.1441,2.289,2.3143,0.0,0.0,2.6892,2.7417,2.787,2.9463,3.0423,3.1129,3.16,3.2071,3.2506,3.2832,3.2904,3.3176,3.3991,3.4099,3.428,3.4751,3.5512,3.5983,3.5983,3.7015,3.7558,3.7214,3.7453,3.76,3.7584,3.7566,3.7677,3.7967,3.7951,3.7898,3.781,3.781,3.7757,3.7649,3.7649,3.7649,3.7577,3.7577,3.7577,3.7577,3.7577,3.7577,3.7577,3.7577,3.7613,3.7631,3.7613,3.7667,3.7775,3.7685,3.7685,3.7775,3.7775,3.7775,3.7775,3.7775,3.7775,3.8026,3.9263,3.9685,4.0068,4.1314,4.1505,4.1248,4.0938,4.0938,4.0938,4.0733,4.0733,4.0607,4.0319,4.022,4.0368,4.0832,4.0926,4.0926,4.0926,4.0659,4.0434,4.0434,4.0154,3.9918,3.9918,3.9918,3.9918,3.9986,4.0037,4.0037,4.0037,4.0087,4.0087,4.0037,4.0087,4.007,4.007,4.007,4.007,4.007,4.007,4.007,4.007,4.007,4.007,4.007,4.007,4.007,2.1532,2.1695,0.0,2.3454,2.3415,0.0,2.6403,2.7073,2.7544,2.8956,2.9898,3.0477,3.0568,3.0749,3.1075,3.1663,3.2017,3.2469,3.3284,3.3393,3.3393,3.3393,3.4117,3.4606,3.4606,3.5965,3.6562,3.5824,3.632,3.6633,3.6568,3.6658,3.7036,3.772,3.7863,3.781,3.7703,3.7703,3.7685,3.7577,3.7577,3.7577,3.7577,3.7577,3.7577,3.7577,3.7577,3.7577,3.7577,3.7577,3.7577,3.7577,3.7577,3.7577,3.7577,3.7577,3.7577,3.7577,3.7577,3.7577,3.7577,3.7577,3.7577,3.7646,3.8465,3.8846,3.9143,4.0018,4.0446,4.0707,4.0659,4.0611,4.0563,4.0187,4.0087,4.0037,3.9729,3.9677,3.9729,4.0037,4.0087,4.007,4.007,3.9986,3.9901,3.9901,3.9798,3.9677,3.9677,3.9677,3.9729,3.9849,3.9901,3.9901,3.9901,3.9986,3.9986,3.9901,3.9986,4.007,4.0087,4.0087,4.007,4.007,4.007,4.007,4.007,4.007,4.007,4.007,4.007,4.007,2.1676,2.289,2.4085,2.318,2.4248,0.0,2.4664,2.5009,2.557,2.5878,2.6584,2.732,2.7904,2.9078,2.9773,2.9242,3.082,3.243,3.3284,3.3393,3.3393,3.3393,3.4117,3.4606,3.4606,3.5476,3.5951,3.5756,3.575,3.5738,3.5738,3.6353,3.675,3.6843,3.7434,3.7721,3.7613,3.7613,3.7613,3.7577,3.7577,3.7577,3.7577,3.7577,3.7577,3.7577,3.7577,3.7577,3.7577,3.7577,3.7577,3.7577,3.7577,3.7577,3.7577,3.7577,3.7577,3.7577,3.7577,3.7577,3.7577,3.7577,3.7319,3.7175,3.8007,3.8,3.7958,3.8926,3.9657,4.007,3.9696,3.9609,3.9556,3.9504,3.9468,3.9468,3.9537,3.9537,3.959,3.9729,3.9884,3.9884,3.9781,3.9833,3.9833,3.9729,3.9729,3.9677,3.9677,3.9677,3.9729,3.9729,3.9729,3.9729,3.9729,3.9781,3.9781,3.9729,3.9781,3.9833,3.9935,3.9952,3.9986,4.007,4.007,4.007,4.007,4.007,4.007,4.007,4.007,4.007,2.2707,2.3354,2.4168,2.375,2.4324,0.0,0.0,2.5009,2.5226,2.5977,2.6157,2.6369,2.7114,2.7619,2.8034,2.8386,2.9476,3.0757,3.2035,3.2542,3.2795,3.2795,3.3158,3.3393,3.3393,3.4498,3.5142,3.5029,3.4555,3.4419,3.4766,3.5178,3.5735,3.6469,3.6863,3.7256,3.7577,3.7577,3.7577,3.7577,3.7577,3.7577,3.7577,3.7577,3.7577,3.7577,3.7577,3.7577,3.7577,3.7577,3.7577,3.7577,3.7577,3.7577,3.7577,3.7577,3.7577,3.7577,3.7319,3.7243,3.7206,3.6995,3.6724,3.6632,3.7015,3.7379,3.7746,3.837,3.9075,3.9592,3.9379,3.9272,3.9272,3.9272,3.9272,3.9325,3.9395,3.9379,3.9432,3.9484,3.959,3.9694,3.9677,3.9694,3.9694,3.959,3.952,3.9468,3.9468,3.9468,3.9537,3.959,3.959,3.959,3.959,3.9677,3.9677,3.959,3.9677,3.9729,3.9781,3.9781,3.9833,3.9884,4.002,4.0087,3.9986,4.0087,4.007,4.007,4.007,4.007,2.3891,2.395,2.4236,2.4587,2.4586,2.4719,0.0,0.0,0.0,2.6381,2.6092,2.5816,2.6393,2.6159,2.6237,2.736,2.8044,2.8809,2.9881,3.0867,3.159,3.1898,3.1962,3.2017,3.2151,3.3171,3.3906,3.4038,3.31,3.2912,3.3812,3.4026,3.4668,3.5917,3.6238,3.6702,3.7345,3.7505,3.7577,3.7577,3.7577,3.7577,3.7577,3.7577,3.7577,3.7577,3.7577,3.7577,3.7577,3.7503,3.7466,3.7449,3.7577,3.754,3.7466,3.7466,3.7411,3.7281,3.69,3.6781,3.6684,3.6298,3.6147,3.6062,3.5977,3.6639,3.7547,3.7884,3.851,3.9106,3.9239,3.9272,3.9272,3.9272,3.9272,3.9272,3.9272,3.9272,3.9272,3.9272,3.9395,3.9501,3.9625,3.9537,3.9501,3.9448,3.9379,3.9272,3.9272,3.9272,3.9325,3.9448,3.9448,3.9448,3.9448,3.959,3.959,3.9501,3.9573,3.9625,3.9677,3.9677,3.9677,3.9677,3.9918,3.9986,3.9849,3.9986,4.0037,4.0087,4.0087,3.9986,2.461,2.5522,2.6333,2.5226,2.5982,2.647,2.453,0.0,2.4834,2.4226,0.0,2.3965,2.4006,0.0,0.0,2.4147,2.6448,2.7896,2.6727,2.7875,2.9377,3.0856,3.1102,3.1391,3.1971,3.1498,3.1697,3.3046,3.1696,3.1439,3.2969,3.3705,3.4187,3.4365,3.5685,3.6435,3.6542,3.722,3.7577,3.7577,3.7577,3.7577,3.7577,3.7577,3.7577,3.7577,3.7577,3.7577,3.7577,3.715,3.6978,3.7034,3.7449,3.7337,3.6978,3.6978,3.6741,3.6357,3.6316,3.6256,3.6256,3.6232,3.5933,3.5571,3.5195,3.5607,3.6323,3.7019,3.7765,3.8477,3.9106,3.9272,3.9272,3.9272,3.9272,3.9272,3.9272,3.9272,3.9272,3.9272,3.9325,3.9325,3.9325,3.9432,3.9448,3.9325,3.9325,3.9272,3.9272,3.9272,3.9325,3.9325,3.9325,3.9325,3.9325,3.9325,3.9325,3.9325,3.9325,3.9379,3.9501,3.9642,3.9677,3.9677,3.9729,3.9729,3.9729,3.9729,3.9781,3.9935,3.9935,3.9833,2.4191,2.4725,2.5358,2.5273,2.5559,2.5654,2.4725,2.4378,2.4262,2.4338,0.0,0.0,0.0,0.0,0.0,0.0,2.5398,2.605,2.5452,2.5925,2.6975,2.8603,2.8853,2.9322,3.0558,3.0322,3.0535,3.1637,3.057,3.0547,3.2117,3.2509,3.3134,3.4079,3.474,3.5507,3.6381,3.672,3.7131,3.7577,3.7577,3.7577,3.7577,3.7577,3.7449,3.7188,3.7188,3.7034,3.6781,3.6563,3.6481,3.6522,3.6724,3.6684,3.6481,3.6481,3.6357,3.619,3.5933,3.5864,3.582,3.5526,3.5316,3.5148,3.493,3.5413,3.6158,3.6903,3.7649,3.8377,3.909,3.9272,3.9272,3.9272,3.9272,3.9272,3.9272,3.9272,3.9272,3.9272,3.9272,3.9272,3.9272,3.9325,3.9379,3.9325,3.9272,3.9272,3.9272,3.9272,3.9272,3.9272,3.9272,3.9272,3.9272,3.9272,3.9272,3.9272,3.9272,3.9325,3.9379,3.9537,3.9537,3.9468,3.9625,3.9677,3.959,3.9677,3.9694,3.9642,3.9746,3.9729,2.4448,2.4676,2.5007,2.5312,2.512,2.4795,2.4456,2.4034,2.3875,2.4389,2.4187,0.0,0.0,0.0,2.4063,2.467,0.0,2.4837,2.4567,2.4536,2.5039,2.6446,2.6961,2.7687,2.8873,2.873,2.9071,3.0327,2.9372,2.9601,3.1581,3.1689,3.2331,3.3723,3.399,3.474,3.606,3.6078,3.6577,3.7577,3.7362,3.738,3.7594,3.7466,3.7243,3.69,3.6764,3.6522,3.6172,3.6062,3.602,3.5977,3.589,3.5803,3.5803,3.5977,3.5933,3.5803,3.5526,3.5407,3.5362,3.5024,3.4899,3.4899,3.4899,3.5263,3.5893,3.6837,3.75,3.8112,3.904,3.9272,3.9272,3.9272,3.9272,3.9272,3.9272,3.9148,3.9094,3.9272,3.904,3.8843,3.9023,3.9202,3.9272,3.9272,3.9272,3.9272,3.9272,3.9272,3.9272,3.9272,3.9272,3.9218,3.9023,3.9202,3.9272,3.9272,3.9272,3.9272,3.9272,3.9379,3.9379,3.9272,3.9484,3.9537,3.9448,3.9537,3.9537,3.9432,3.9398,3.9276,2.6031,2.6367,2.6588,2.5558,2.5212,2.4677,2.3128,2.3284,2.3794,2.3729,2.4287,2.4862,2.5222,2.4975,2.475,2.4704,2.5031,0.0,0.0,2.3552,2.3879,2.4777,2.6136,2.7066,2.7171,2.6422,2.6889,2.9262,2.7959,2.8423,3.1528,3.1689,3.2063,3.2902,3.3687,3.4472,3.5239,3.5257,3.6024,3.7577,3.6809,3.6845,3.7577,3.7111,3.69,3.686,3.644,3.6215,3.6172,3.5776,3.5526,3.5374,3.5055,3.4835,3.4835,3.5391,3.5316,3.493,3.4947,3.4947,3.4947,3.4899,3.4899,3.4899,3.4899,3.4916,3.5247,3.6688,3.7119,3.7466,3.8907,3.9272,3.9272,3.9272,3.9272,3.9272,3.9272,3.8772,3.8535,3.9148,3.8311,3.7663,3.8222,3.8898,3.9272,3.9272,3.9272,3.9272,3.9272,3.9272,3.9272,3.9272,3.9272,3.9023,3.8407,3.8914,3.9272,3.9272,3.9272,3.9272,3.9272,3.9325,3.9325,3.9272,3.9325,3.9325,3.9325,3.9325,3.9325,3.9272,3.8772,3.8446,2.5444,2.5825,2.6019,2.5661,2.5264,2.47,2.3673,2.3584,2.3608,2.3126,2.3966,2.4672,2.4313,2.4557,2.4643,2.4102,2.4331,2.3909,0.0,2.1803,2.2018,2.2329,2.4247,2.5344,2.4825,2.5004,2.5696,2.7056,2.6558,2.7371,3.0047,3.0636,3.126,3.2063,3.2884,3.3669,3.4472,3.4198,3.4817,3.6335,3.6107,3.6221,3.6701,3.6724,3.6464,3.589,3.5671,3.5357,3.5052,3.4944,3.4866,3.4802,3.4691,3.4594,3.4594,3.5024,3.5024,3.4899,3.4899,3.4899,3.4899,3.4899,3.4899,3.4899,3.4899,3.4899,3.5214,3.6688,3.7102,3.745,3.8891,3.9272,3.9202,3.8717,3.8645,3.8535,3.8141,3.7838,3.7764,3.8026,3.7663,3.7488,3.7648,3.7895,3.801,3.801,3.801,3.801,3.801,3.801,3.801,3.801,3.8423,3.8535,3.8334,3.8535,3.8479,3.8084,3.801,3.801,3.801,3.801,3.801,3.801,3.801,3.801,3.801,3.8423,3.8423,3.8026,3.7838,3.7937,2.553,2.5749,2.5815,2.5576,2.5249,2.4717,2.3721,2.3658,2.3697,2.3238,2.4193,2.5022,2.4816,2.5043,2.5011,2.4365,2.4225,2.3418,0.0,2.1313,2.1476,2.1015,2.2963,2.4121,2.3603,2.3764,2.4461,2.5839,2.5611,2.6586,2.9262,3.0101,3.0868,3.1671,3.2328,3.3062,3.386,3.3196,3.3628,3.5147,3.4888,3.4975,3.538,3.5503,3.5309,3.4925,3.4714,3.4601,3.4497,3.4497,3.4448,3.4448,3.4497,3.4448,3.4448,3.4707,3.4804,3.4851,3.4851,3.4851,3.4851,3.4851,3.4851,3.4851,3.4851,3.4851,3.51,3.609,3.6565,3.6973,3.7992,3.8427,3.8495,3.8067,3.7994,3.7879,3.7472,3.7191,3.7131,3.7354,3.7011,3.6784,3.7011,3.6845,3.6906,3.731,3.7429,3.7429,3.7429,3.7429,3.7429,3.7429,3.7764,3.7994,3.7994,3.7764,3.7531,3.7429,3.7429,3.7429,3.7429,3.7429,3.7429,3.7429,3.7429,3.7429,3.7429,3.7764,3.7764,3.7429,3.7429,3.7472]},{"header":{"parameterUnit":"m.s-1","parameterCategory":1,"la1":30.6,"la2":29.2853,"lo1":-89.7004,"lo2":-87.6739,"dy":0.0162,"dx":0.0183,"nx":112,"ny":82,"refTime":"2024-09-12T12:00:00:Z","depth":0,"parameterNumber":3,"parameterNumberName":"V-component_of_WINDS"},"data":[0.0,0.0,0.0,0.0,0.0,0.0,0.0,0.0,0.0,0.0,0.0,0.0,0.0,0.0,0.0,0.0,0.0,0.0,0.0,0.0,0.0,0.0,0.0,0.0,0.0,0.0,0.0,0.0,0.0,0.0,0.0,0.0,0.0,0.0,0.0,0.0,0.0,0.0,0.0,0.0,0.0,0.0,0.0,0.0,0.0,0.0,0.0,0.0,0.0,0.0,0.0,0.0,0.0,0.0,0.0,0.0,0.0,0.0,0.0,0.0,0.0,0.0,0.0,0.0,0.0,0.0,0.0,0.0,0.0,0.0,0.0,0.0,0.0,0.0,0.0,0.0,0.0,0.0,0.0,0.0,0.0,0.0,0.0,0.0,0.0,0.0,0.0,0.0,0.0,0.0,0.0968,0.1064,0.2121,0.3343,0.4458,0.4492,0.4622,0.4904,0.0,0.0,0.0,0.0,0.0,0.0,0.0,0.0,0.0,0.0,0.0,0.0,0.0,0.0,0.0,0.0,0.0,0.0,0.0,0.0,0.0,0.0,0.0,0.0,0.0,0.0,0.0,0.0,0.0,0.0,0.0,0.0,0.0,0.0,0.0,0.0,0.0,0.0,0.0,0.0,0.0,0.0,0.0,0.0,0.0,0.0,0.0,0.0,0.0,0.0,0.0,0.0,0.0,0.0,0.0,0.0,0.0,0.0,0.0,0.0,0.0,0.0,0.0,0.0,0.0,0.0,0.0,0.0,0.0,0.0,0.0,0.0,0.0,0.0,0.0,0.0,0.0,0.0,0.0,0.0,0.0,0.0,0.0,0.0,0.0,0.0,0.0,0.0,0.0,0.0,0.0,0.0,0.0,0.0,0.0,0.0,0.0,0.0,0.0,0.0,0.0,0.0,0.0,0.0,0.1091,0.1704,0.2862,0.346,0.3051,0.279,0.307,0.4119,0.0,0.0,0.0,0.0,0.0,0.0,0.0,0.0,0.0,0.0,0.0,0.0,0.0,0.0,0.0,0.0,0.0,0.0,0.0,0.0,0.0,0.0,0.0,0.0,0.0,0.0,0.0,0.0,0.0,0.0,0.0,0.0,0.0,0.0,0.0,0.0,0.0,0.0,0.0,0.0,0.0,0.0,0.0,0.0,0.0,0.0,0.0,0.0,0.0,0.0,0.0,0.0,0.0,0.0,0.0,0.0,0.0,0.0,0.0,0.0,0.0,0.0,0.0,0.0,0.0,0.0,0.0,0.0,0.0,0.0,0.0,0.0,0.0,0.0,0.0,0.0,0.0,0.0,0.0,0.0,0.0,0.0,0.0,0.0,0.0,0.0,0.0,0.0,0.0,0.0,0.0,0.0,0.0,0.0,0.0,0.0,0.0,0.0,0.0,0.0,0.0,0.0,0.0,0.0915,0.1188,0.1922,0.2745,0.3132,0.2887,0.3108,0.3408,0.3677,0.3965,0.0,0.0,0.0,0.0,0.0,0.0,0.0,0.0,0.0,0.0,0.0,0.0,0.0,0.0,0.0,0.0,0.0,0.0,0.0,0.0,0.0,0.0,0.0,0.0,0.0,0.0,0.0,0.0,0.0,0.0,0.0,0.0,0.0,0.0,0.0,0.0,0.0,0.0,0.0,0.0,0.0,0.0,0.0,0.0,0.0,0.0,0.0,0.0,0.0,0.0,0.0,0.0,0.0,0.0,0.0,0.0,0.0,0.0,0.0,0.0,0.0,0.0,0.0,0.0,0.0,0.0,0.0,0.0,0.0,0.0,0.0,0.0,0.0,0.0,0.0,0.0,0.0,0.0,0.0,0.0,0.0,0.0,0.0,0.0,0.0,0.0,0.0,0.0,0.0,0.0,0.0,0.0,0.0,0.0,0.0,0.0,0.0,0.0,0.0,0.0,0.0,0.0,0.1082,0.1339,0.178,0.2287,0.2608,0.2734,0.3273,0.3547,0.34,0.3316,0.0,0.0,0.0,0.0,0.0,0.0,0.0,0.0,0.0,0.0,0.0,0.0,0.0,0.0,0.0,0.0,0.0,0.0,0.0,0.0,0.0,0.0,0.0,0.0,0.0,0.0,0.0,0.0,0.0,0.0,0.0,0.0,0.0,0.0,0.0,0.0,0.0,0.0,0.0,0.0,0.0,0.0,0.0,0.0,0.0,0.0,0.0,0.0,0.0,0.0,0.0,0.0,0.0,0.0,0.0,0.0,0.0,0.0,0.0,0.0,0.0,0.0,0.0,0.0,0.0,0.0,0.0,0.0,0.0,0.0,0.0,0.0,0.0,0.0,0.0,0.0,0.0,0.0,0.0,0.0,0.0,0.0,0.0,0.0,0.0,0.0,0.0,0.0,0.0,0.0,0.0,0.0,0.0,0.0,0.0,0.0,0.0,0.0,0.0,0.0,0.0,0.0,0.156,0.169,0.1159,0.1652,0.2,0.1887,0.189,0.2327,0.334,0.2787,0.0,0.0,0.0,0.0,0.0,0.0,0.0,0.0,0.0,0.0,0.0,0.0,0.0,0.0,0.0,0.0,0.0,0.0,0.0,0.0,0.0,0.0,0.0,0.0,0.0,0.0,0.0,0.0,0.0,0.0,0.0,0.0,0.0,0.0,0.0,0.0,0.0,0.0,0.0,0.0,0.0,0.0,0.0,0.0,0.0,0.0,0.0,0.0,0.0,0.0,0.0,0.0,0.0,0.0,0.0,0.0,0.0,0.0,0.0,0.0,0.0,0.0,0.0,0.0,0.0,0.0,0.0,0.0,0.0,0.0,0.0,0.0,0.0,0.0,0.0,0.0,0.0,0.0,0.0,0.0,0.0,0.0,0.0,0.0,0.0,0.0,0.0,0.0,0.0,0.0,0.0,0.0,0.0,0.0,0.0,0.0,0.0,0.0,0.0,0.0,0.0,0.0,0.1181,0.124,0.1025,0.1501,0.1726,0.1292,0.1921,0.2302,0.2333,0.0,0.0,0.0,0.0,0.0,0.0,0.0,0.0,0.0,0.0,0.0,0.0,0.0,0.0,0.0,0.0,0.0,0.0,0.0,0.0,0.0,0.0,0.0,0.0,0.0,0.0,0.0,0.0,0.0,0.0,0.0,0.0,0.0,0.0,0.0,0.0,0.0,0.0,0.0,0.0,0.0,0.0,0.0,0.0,0.0,0.0,0.0,0.0,0.0,0.0,0.0,0.0,0.0,0.0,0.0,0.0,0.0,0.0,0.0,0.0,0.0,0.0,0.0,0.0,0.0,0.0,0.0,0.0,0.0,0.0,0.0,0.0,0.0,0.0,0.0,0.0,0.0,0.0,0.0,0.0,0.0,0.0,0.0,0.0,0.0,0.0,0.0,0.0,0.0,0.0,0.0,0.0,0.0,0.0,0.0,0.0,0.0,0.0,0.0,0.0,0.0,0.0,0.0973,0.0935,0.0929,0.1011,0.13,0.1356,0.1042,0.1857,0.224,0.1867,0.0,0.0,0.0,0.0,0.0,0.0,0.0,0.0,0.0,0.0,0.0,0.0,0.0,0.0,0.0,0.0,0.0,0.0,0.0,0.0,0.0,0.0,0.0,0.0,0.0,0.0,0.0,0.0,0.0,0.0,0.0,0.0,0.0,0.0,0.0,0.0,0.0,0.0,0.0,0.0,0.0,0.0,0.0,0.0,0.0,0.0,0.0,0.0,0.0,0.0,0.0,0.0,0.0,0.0,0.0,0.0,0.0,0.0,0.0,0.0,0.0,0.0,0.0,0.0,0.0,0.0,0.0,0.0,0.0,0.0,0.0,0.0,0.0,0.0,0.0,0.0,0.0,0.0,0.0,0.0,0.0,0.0,0.0,0.0,0.0,0.0,0.0,0.0,0.0,0.0,0.0,0.0,0.0,0.0,0.0,0.0,0.0,0.0,0.0,0.0,0.0,0.0,0.0973,0.0935,0.0921,0.0982,0.0934,0.101,0.129,0.1524,0.1812,0.0,0.0,0.0,0.0,0.0,0.0,0.0,0.0,0.0,0.0,0.0,0.0,0.0,0.0,0.0,0.0,0.0,0.0,0.0,0.0,0.0,0.0,0.0,0.0,0.0,0.0,0.0,0.0,0.0,0.0,0.0,0.0,0.0,0.0,0.0,0.0,0.0,0.0,0.0,0.0,0.0,0.0,0.0,0.0,0.0,0.0,0.0,0.0,0.0,0.0,0.0,0.0,0.0,0.0,0.0,0.0,0.0,0.0,0.0,0.0,0.0,0.0,0.0,0.0,0.0,0.0,0.0,0.0,0.0,0.0,0.0,0.0,0.0,0.0,0.0,0.0,0.0,0.0,0.0,0.0,0.0,0.0,0.0,0.0,0.0,0.0,0.0,0.0,0.0,0.0,0.0,0.0,0.0,0.0,0.0,0.0,0.0,0.0,0.0,0.0,0.0,0.0,0.0,0.0975,0.0954,0.0945,0.0984,0.0934,0.0954,0.101,0.1499,0.1729,0.1697,0.0,0.0,0.0,0.0,0.0,0.0,0.0,0.0,0.0,0.0,0.0,0.0,0.0,0.0,0.0,0.0,0.0,0.0,0.0,0.0,0.0,0.0,0.0,0.0,0.0,0.0,0.0,0.0,0.0,0.0,0.0,0.0,0.0,0.0,0.0,0.0,0.0,0.0,0.0,0.0,0.0,0.0,0.0,0.0,0.0,0.0,0.0,0.0,0.0,0.0,0.0,0.0,0.0,0.0,0.0,0.0,0.0,0.0,0.0,0.0,0.0,0.0,0.0,0.0,0.0,0.0,0.0,0.0,0.0,0.0,0.0,0.0,0.0,0.0,0.0,0.0,0.0,0.0,0.0,0.0,0.0,0.0,0.0,0.0,0.0,0.0,0.0,0.0,0.0,0.0,0.0,0.0,0.0,0.0,0.0,0.0,0.0,0.0,0.0,0.0,0.0,0.0,0.0976,0.0962,0.0954,0.0985,0.0934,0.0954,0.1066,0.1401,0.1641,0.1707,0.0,0.0,0.0,0.0,0.0,0.0,0.0,0.0,0.0,0.0,0.0,0.0,0.0,0.0,0.0,0.0,0.0,0.0,0.0,0.0,0.0,0.0,0.0,0.0,0.0,0.0,0.0,0.0,0.0,0.0,0.0,0.0,0.0,0.0,0.0,0.0,0.0,0.0,0.0,0.0,0.0,0.0,0.0,0.0,0.0,0.0,0.0,0.0,0.0,0.0,0.0,0.0,0.0,0.0,0.0,0.0,0.0,0.0,0.0,0.0,0.0,0.0,0.0,0.0,0.0,0.0,0.0,0.0,0.0,0.0,0.0,0.0,0.0,0.0,0.0,0.0,0.0,0.0,0.0,0.0,0.0,0.0,0.0,0.0,0.0,0.0,0.0,0.0,0.0,0.0,0.0,0.0,0.0,0.0,0.0,0.0,0.0,0.0,0.0,0.0,0.0,0.0,0.0977,0.0967,0.096,0.0986,0.0937,0.1013,0.1235,0.129,0.1492,0.2025,0.0,0.0,0.0,0.0,0.0,0.0,0.0,0.0,0.0,0.0,0.0,0.0,0.0,0.0,0.0,0.0,0.0,0.0,0.0,0.0,0.0,0.0,0.0,0.0,0.0,0.0,0.0,0.0,0.0,0.0,0.0,0.0,0.0,0.0,0.0,0.0,0.0,0.0,0.0,0.0,0.0,0.0,0.0,0.0,0.0,0.0,0.0,0.0,0.0,0.0,0.0,0.0,0.0,0.0,0.0,0.0,0.0,0.0,0.0,0.0,-0.3213,-0.3197,0.0,0.0,0.0,0.0,0.0,0.0,0.0,0.0,0.0,0.0,0.0,0.0,0.0,0.0,0.0,0.0,0.0,0.0,0.0,0.0,0.0,0.0,0.0,0.0,0.0,0.0,0.0,0.0,0.0,0.0,0.0,0.0,0.0,0.0,0.0,0.0,0.0,0.0,0.0,0.0,0.098,0.1003,0.1007,0.099,0.0955,0.0924,0.0956,0.1178,0.1437,0.1762,0.1893,0.0,0.0,0.0,0.0,0.0,0.0,0.0,0.0,0.0,0.0,0.0,0.0,0.0,0.0,0.0,0.0,0.0,0.0,0.0,0.0,0.0,0.0,0.0,0.0,0.0,0.0,0.0,0.0,0.0,0.0,0.0,0.0,0.0,0.0,0.0,0.0,0.0,0.0,0.0,0.0,0.0,0.0,0.0,0.0,0.0,0.0,0.0,0.0,0.0,0.0,0.0,0.0,0.0,0.0,0.0,0.0,0.0,0.0,0.0,-0.3471,-0.3395,0.0,0.0,0.0,0.0,0.0,0.0,0.0,0.0,0.0,0.0,0.0,0.0,0.0,0.0,0.0,0.0,0.0,0.0,0.0,0.0,0.0,0.0,0.0,0.0,0.0,0.0,0.0,0.0,0.0,0.0,0.0,0.0,0.0,0.0,0.0,0.0,0.0,0.0,0.0,0.0,0.0982,0.1015,0.1022,0.0991,0.0961,0.0872,0.09,0.101,0.128,0.1695,0.1798,0.0,0.0,0.0,0.0,0.0,0.0,0.0,0.0,0.0,0.0,0.0,0.0,0.0,0.0,0.0,0.0,0.0,0.0,0.0,0.0,0.0,0.0,0.0,0.0,0.0,0.0,0.0,0.0,0.0,0.0,0.0,0.0,0.0,0.0,0.0,0.0,0.0,0.0,0.0,0.0,0.0,0.0,0.0,0.0,0.0,0.0,0.0,0.0,0.0,0.0,0.0,0.0,0.0,-0.3939,-0.3941,-0.3996,-0.3914,-0.3922,-0.3988,-0.3814,-0.3702,-0.3645,-0.3645,0.0,0.0,0.0,0.0,0.0,0.0,0.0,0.0,0.0,0.0,0.0,0.0,0.0,0.0,0.0,0.0,0.0,0.0,0.0,0.0,0.0,0.0,-0.3721,-0.3892,-0.3875,-0.3773,-0.3334,0.0,0.0,0.0,0.0,0.0,0.0,0.0,0.0,0.0,0.0,0.0,0.0991,0.1022,0.1029,0.0999,0.0969,0.0939,0.0908,0.09,0.1177,0.1734,0.1747,0.1962,0.0,0.0,0.0,0.0,0.0,0.0,0.0,0.0,0.0,0.0,0.0,0.0,0.0,0.0,0.0,0.0,0.0,0.0,0.0,0.0,0.0,0.0,0.0,0.0,0.0,0.0,0.0,0.0,0.0,0.0,0.0,0.0,-0.3991,-0.3914,0.0,0.0,0.0,0.0,0.0,0.0,0.0,0.0,0.0,0.0,0.0,0.0,0.0,-0.3757,-0.3863,-0.4107,-0.4175,-0.4072,-0.4384,-0.4433,-0.4257,-0.4338,-0.433,-0.4257,-0.4325,0.0,-0.3887,-0.3887,0.0,0.0,0.0,0.0,0.0,0.0,0.0,0.0,0.0,0.0,0.0,0.0,0.0,0.0,0.0,0.0,0.0,0.0,0.0,0.0,0.0,0.0,-0.4028,-0.3891,-0.3886,-0.388,-0.3819,-0.3672,-0.3249,-0.2193,-0.2428,-0.206,0.0,0.0,0.0,0.0,0.0,0.0,0.102,0.1052,0.1059,0.1031,0.1001,0.097,0.0881,0.0913,0.1177,0.1734,0.1783,0.2054,0.2654,0.2578,0.0,0.0,0.0,0.0,0.0,0.0,0.0,0.0,0.0,0.0,0.0,0.0,0.0,0.0,0.0,0.0,0.0,0.0,0.0,0.0,0.0,0.0,0.0,0.0,0.0,0.0,0.0,0.0,0.0,-0.3771,-0.409,-0.4035,-0.4376,-0.4442,0.0,0.0,0.0,0.0,0.0,0.0,0.0,0.0,0.0,-0.4056,-0.4124,-0.4181,-0.4235,-0.4412,-0.4471,-0.442,-0.4649,-0.4671,-0.4501,-0.4621,-0.4545,-0.4501,-0.4621,-0.4485,-0.4327,-0.4194,-0.4099,-0.4031,0.0,0.0,0.0,0.0,-0.4115,-0.4077,-0.4194,-0.4126,-0.3982,-0.3966,0.0,0.0,0.0,0.0,0.0,0.0,0.0,-0.4126,-0.4075,-0.414,-0.4205,-0.4153,-0.4148,-0.3957,-0.3432,-0.3011,-0.2386,-0.1032,-0.1139,-0.1114,-0.0277,0.0447,0.0,0.0,0.0,0.0941,0.0966,0.1058,0.1065,0.1037,0.1022,0.0994,0.0888,0.0872,0.1143,0.1737,0.179,0.2071,0.2691,0.2652,0.2589,0.0,0.0,0.0,0.0,0.0,0.0,0.0,0.0,0.0,0.0,0.0,0.0,0.0,0.0,0.0,0.0,0.0,0.0,0.0,0.0,0.0,0.0,0.0,0.0,0.0,0.0,0.0,0.0,-0.3893,-0.421,-0.4157,-0.419,-0.4185,0.0,0.0,0.0,0.0,0.0,0.0,-0.4195,-0.4291,-0.4397,-0.4387,-0.4471,-0.4515,-0.4515,-0.4637,-0.47,-0.47,-0.476,-0.4864,-0.4864,-0.4864,-0.4864,-0.4861,-0.4757,-0.473,-0.4683,-0.4477,-0.4338,-0.4254,-0.4254,-0.4311,-0.4401,-0.4485,-0.4463,-0.4404,-0.4488,-0.4439,-0.4336,-0.4273,-0.417,-0.4056,-0.3963,0.0,0.0,0.0,0.0,-0.439,-0.439,-0.4365,-0.4344,-0.4344,-0.4346,-0.4141,-0.3389,-0.2935,-0.2165,-0.0321,0.0,-0.0128,-0.0482,0.037,0.0,0.096,0.1005,0.1047,0.1055,0.1067,0.1067,0.1046,0.1038,0.0952,0.0909,0.0899,0.118,0.1839,0.1837,0.2125,0.2758,0.2738,0.2695,0.2625,0.0,0.0,0.0,0.0,0.0,0.0,0.0,0.0,0.0,0.0,0.0,0.0,0.0,0.0,0.0,0.0,0.0,0.0,0.0,0.0,0.0,0.0,0.0,0.0,0.0,0.0,0.0,0.0,0.0,-0.4015,-0.4241,0.0,0.0,0.0,0.0,-0.4273,-0.4392,-0.4451,-0.4505,-0.4519,-0.4577,-0.4704,-0.4712,-0.4715,-0.4715,-0.4765,-0.4825,-0.4828,-0.5053,-0.5159,-0.5159,-0.5159,-0.5159,-0.5154,-0.5045,-0.4934,-0.4814,-0.4686,-0.4704,-0.4698,-0.4698,-0.4701,-0.4706,-0.4715,-0.4712,-0.4706,-0.4715,-0.4635,-0.448,-0.466,-0.4613,-0.4442,-0.4436,-0.4436,0.0,0.0,-0.4615,-0.4706,-0.4706,-0.4618,-0.4461,-0.4461,-0.4469,-0.4477,-0.4274,-0.4222,-0.3395,-0.056,0.0,0.0135,0.0484,0.0,0.1082,0.1106,0.1089,0.1084,0.1113,0.1093,0.1075,0.1074,0.105,0.0968,0.0965,0.1003,0.1293,0.1963,0.1963,0.2268,0.2942,0.2862,0.2817,0.2813,0.2638,0.0,0.0,0.0,0.0,0.0,0.0,0.0,0.0,0.0,0.0,0.0,0.0,0.0,0.0,0.0,0.0,0.0,0.0,0.0,0.0,0.0,0.0,0.0,0.0,0.0,0.0,0.0,0.0,-0.4722,-0.4778,0.0,-0.4562,-0.4716,-0.4754,-0.4481,-0.4524,-0.4646,-0.4697,-0.4703,-0.4795,-0.4991,-0.4996,-0.5034,-0.5113,-0.5156,-0.5178,-0.5178,-0.5262,-0.5303,-0.5303,-0.5303,-0.5303,-0.5301,-0.526,-0.5219,-0.5175,-0.5132,-0.4977,-0.477,-0.477,-0.4817,-0.4887,-0.4887,-0.4887,-0.4876,-0.4798,-0.4741,-0.4697,-0.4664,-0.4695,-0.4602,-0.4681,-0.4703,-0.4722,-0.48,-0.4852,-0.4868,-0.479,-0.4738,-0.4683,-0.4607,-0.466,-0.4594,-0.4594,-0.3691,-0.2557,-0.1543,-0.0649,0.0141,0.0561,0.0917,0.1203,0.1123,0.1128,0.1131,0.1122,0.1112,0.1097,0.1078,0.1067,0.1053,0.1035,0.1024,0.1261,0.1974,0.1971,0.2279,0.2954,0.2872,0.2828,0.2828,0.2705,0.2523,0.0,0.0,0.0,0.0,0.0,0.0,0.0,0.0,0.0,0.0,0.0,0.0,0.0,0.0,0.0,0.0,0.0,0.0,0.0,0.0,0.0,0.0,0.0,0.0,0.0,-0.4781,-0.5046,-0.5094,-0.5138,-0.5047,-0.4842,-0.4962,-0.4945,-0.4726,-0.4803,-0.4928,-0.501,-0.5015,-0.5086,-0.5243,-0.5249,-0.5287,-0.5368,-0.5368,-0.5368,-0.5368,-0.5412,-0.5431,-0.5431,-0.5431,-0.5431,-0.5428,-0.5388,-0.5368,-0.5368,-0.5368,-0.523,-0.5015,-0.5015,-0.5064,-0.5135,-0.5135,-0.511,-0.5056,-0.4936,-0.4896,-0.4882,-0.48,-0.4776,-0.479,-0.4871,-0.4896,-0.4912,-0.4993,-0.5018,-0.4999,-0.4917,-0.4866,-0.4814,-0.4732,-0.4713,-0.4713,-0.4719,-0.3858,-0.2851,-0.2213,-0.075,0.0442,0.0584,0.0962,0.1264,0.117,0.1175,0.1174,0.1154,0.1142,0.1125,0.1094,0.1091,0.1079,0.105,0.1039,0.1221,0.1844,0.187,0.2103,0.2688,0.2649,0.265,0.265,0.2679,0.2601,0.2419,0.0,0.0,0.0,0.0,0.0,0.0,0.0,0.0,0.0,0.0,0.0,0.0,0.0,0.0,0.0,0.0,0.0,0.0,0.0,0.0,0.0,0.0,0.0,-0.502,-0.5321,-0.5477,-0.5192,-0.5364,-0.5343,-0.4859,-0.5118,-0.5263,-0.5031,-0.5249,-0.5379,-0.5379,-0.5379,-0.5382,-0.5385,-0.5385,-0.5388,-0.5393,-0.5393,-0.5393,-0.5393,-0.5513,-0.548,-0.548,-0.5478,-0.5475,-0.5467,-0.5434,-0.5379,-0.5379,-0.5379,-0.5379,-0.5379,-0.5371,-0.5368,-0.5368,-0.5368,-0.5295,-0.5175,-0.5067,-0.5026,-0.5023,-0.5023,-0.5021,-0.5018,-0.5018,-0.5018,-0.5018,-0.5018,-0.5018,-0.5018,-0.5018,-0.4928,-0.4838,-0.4838,-0.4838,-0.4841,-0.4774,-0.4947,-0.4399,-0.251,-0.0308,0.1069,0.0704,0.1021,0.1335,0.1335,0.1232,0.0,0.1212,0.1186,0.1156,0.1125,0.1123,0.111,0.108,0.1052,0.1179,0.1544,0.153,0.1688,0.2063,0.2316,0.2416,0.2416,0.2626,0.2695,0.2695,0.0,0.0,0.0,0.0,0.0,0.0,0.0,0.0,0.0,0.0,0.0,0.0,0.0,0.0,0.0,0.0,0.0,0.0,0.0,0.0,0.0,-0.548,-0.5707,-0.5426,-0.555,-0.5669,-0.5775,-0.5885,-0.5889,-0.5535,-0.581,-0.582,-0.5404,-0.5548,-0.5635,-0.5635,-0.5635,-0.567,-0.5754,-0.5757,-0.5798,-0.5888,-0.589,-0.589,-0.589,-0.5923,-0.5939,-0.5934,-0.5847,-0.5806,-0.5801,-0.5684,-0.5635,-0.5635,-0.5635,-0.5635,-0.5616,-0.5439,-0.5368,-0.5368,-0.5368,-0.5349,-0.5314,-0.5284,-0.5214,-0.514,-0.514,-0.5086,-0.5018,-0.5018,-0.5018,-0.5018,-0.5018,-0.5018,-0.5018,-0.5018,-0.4991,-0.4966,-0.4966,-0.4966,-0.4969,-0.4972,-0.4996,-0.4623,-0.3207,-0.1479,0.0078,0.0941,0.1178,0.1335,0.1335,0.125,0.1236,0.1215,0.1204,0.1187,0.1157,0.1154,0.1142,0.1111,0.1102,0.1228,0.1549,0.156,0.1742,0.2127,0.2138,0.2191,0.2375,0.2659,0.2789,0.0,0.0,0.0,0.0,0.0,0.0,0.0,0.0,0.0,0.0,0.0,0.0,0.0,0.0,0.0,0.0,0.0,0.0,0.0,0.0,0.0,0.0,-0.5617,-0.5986,-0.5962,-0.6029,-0.6056,-0.6213,-0.6404,-0.6338,-0.6001,-0.6245,-0.6142,-0.5697,-0.5812,-0.5882,-0.5882,-0.5882,-0.5912,-0.5977,-0.5977,-0.6013,-0.6086,-0.6086,-0.6086,-0.6086,-0.6086,-0.6086,-0.6083,-0.6013,-0.5977,-0.5975,-0.5909,-0.5882,-0.5882,-0.5882,-0.5882,-0.5858,0.0,0.0,0.0,0.0,-0.5445,-0.5436,-0.5388,-0.5322,-0.5262,-0.5262,-0.5219,-0.5165,-0.5165,-0.5165,-0.5165,-0.5165,-0.5127,-0.5089,-0.5089,-0.5053,-0.5018,-0.5018,-0.5018,-0.5018,-0.5018,-0.5018,-0.4781,-0.4151,-0.3214,0.0,0.0864,0.1335,0.1335,0.1335,0.1335,0.1251,0.1233,0.123,0.1219,0.1189,0.1185,0.1173,0.1142,0.1117,0.0,0.0,0.0,0.1531,0.1881,0.182,0.0,0.0,0.0,0.0,0.0,0.2799,0.0,0.0,0.4336,0.4937,0.0,0.0,0.0,0.0,0.0,0.0,0.0,0.0,0.0,0.0,0.0,0.0,0.0,0.0,0.0,0.0,-0.5937,-0.6335,-0.6478,-0.6525,-0.6539,-0.6525,-0.6776,-0.6787,-0.6371,-0.6526,-0.6498,-0.6037,-0.6056,-0.6124,-0.6124,-0.6124,0.0,0.0,0.0,-0.6124,-0.6124,-0.6124,-0.6124,-0.6124,-0.6124,-0.6124,-0.6124,-0.6113,-0.6108,-0.6105,-0.6092,-0.6086,-0.6086,-0.6086,-0.6086,-0.6064,-0.5839,-0.5744,-0.5722,-0.5523,-0.5486,-0.5556,-0.5447,0.0,0.0,-0.539,-0.5379,-0.5368,-0.5368,-0.5368,-0.5368,-0.5368,-0.5301,-0.5227,-0.5227,-0.5151,-0.5078,-0.5078,-0.5067,-0.5053,-0.504,-0.5048,-0.5056,-0.505,-0.4907,-0.3646,0.0158,0.1103,0.1335,0.1335,0.1335,0.1335,0.1335,0.1335,0.1247,0.122,0.1217,0.0,0.1174,0.1122,0.1101,0.1125,0.1052,0.1132,0.1377,0.138,0.1611,0.2036,0.2105,0.2364,0.2913,0.284,0.3283,0.4167,0.4486,0.511,0.0,0.0,0.0,0.0,0.0,0.0,0.0,0.0,0.0,0.0,0.0,0.0,0.0,0.0,0.0,-0.5433,-0.6005,-0.6404,-0.6309,-0.6695,-0.6966,-0.6854,-0.6993,-0.6972,-0.6828,-0.6904,-0.6774,-0.6579,-0.6399,-0.6369,-0.6369,-0.6369,-0.6369,-0.6369,-0.6369,-0.6369,-0.6369,-0.6369,-0.6369,-0.6369,-0.6369,0.0,-0.6363,-0.6274,-0.6233,-0.6227,-0.613,-0.6086,-0.6086,-0.6086,-0.6086,-0.6072,-0.5926,-0.5814,-0.573,-0.5706,-0.5697,-0.5695,-0.5673,-0.56,-0.5515,-0.5515,-0.5447,-0.5368,-0.5368,-0.5368,0.0,-0.5368,-0.5423,-0.548,-0.548,-0.5464,-0.5363,-0.5363,-0.5374,-0.5273,-0.5175,-0.523,-0.5273,-0.5175,-0.4256,-0.3318,-0.2486,-0.0322,0.1335,0.1335,0.1335,0.1335,0.1335,0.1335,0.1333,0.1249,0.1249,0.1236,0.1206,0.1192,0.1178,0.1159,0.1142,0.1191,0.1165,0.1468,0.1706,0.1795,0.2009,0.245,0.2913,0.2548,0.2677,0.3244,0.4499,0.5591,0.0,0.0,0.0,0.0,0.0,0.0,0.0,0.0,0.0,0.0,0.0,-0.4593,-0.4789,0.0,-0.56,-0.5805,-0.6396,-0.6777,-0.6853,-0.7141,-0.7288,-0.7061,-0.7295,-0.7323,-0.7026,-0.7024,-0.6944,-0.6547,-0.6501,-0.6437,-0.6437,-0.6437,-0.6437,-0.6437,-0.6437,-0.6437,-0.6437,-0.6437,-0.6437,-0.6437,-0.6437,-0.6437,-0.6434,-0.6377,-0.6352,-0.635,-0.6287,-0.626,-0.626,-0.626,-0.6227,-0.617,-0.6111,-0.6013,-0.5909,-0.5909,-0.5909,-0.5909,-0.5909,-0.5831,-0.5727,-0.5727,-0.5646,-0.5551,-0.5551,-0.5551,-0.5551,-0.5551,-0.5551,-0.5478,-0.5627,-0.551,-0.5464,-0.5464,-0.5504,-0.5426,-0.5303,-0.5325,-0.5352,-0.538,-0.4836,-0.4116,-0.3442,-0.1731,-0.0081,0.1121,0.1267,0.1335,0.1335,0.1335,0.1335,0.1335,0.1335,0.1251,0.1236,0.1221,0.1199,0.1168,0.1166,0.1159,0.1144,0.1376,0.1467,0.1486,0.1634,0.1954,0.2388,0.2156,0.2276,0.2844,0.3878,0.4909,0.0,0.0,0.0,0.0,0.0,0.0,0.0,-0.4305,-0.4432,-0.4623,-0.472,-0.489,-0.5098,-0.534,-0.5747,-0.6156,-0.6665,-0.7112,-0.7319,-0.7543,-0.755,-0.7302,-0.759,-0.7631,-0.7277,-0.7276,-0.7039,-0.6637,-0.6537,-0.6437,-0.6437,-0.6437,-0.6437,-0.6437,-0.6437,-0.6437,-0.6437,-0.6437,-0.6437,-0.6437,-0.6437,-0.6437,-0.6437,-0.6437,-0.6437,-0.6437,-0.6437,-0.6437,-0.6437,-0.6437,-0.6382,-0.6301,-0.6301,-0.6241,-0.6149,-0.6102,-0.6086,-0.6086,-0.6086,-0.6021,-0.5934,-0.5912,-0.5841,-0.5763,-0.5741,-0.5733,-0.5738,-0.576,-0.5695,-0.5648,-0.5771,-0.5711,-0.5624,-0.5648,-0.5619,-0.5559,-0.5461,-0.5442,-0.5436,-0.5504,-0.5524,-0.5199,-0.4002,-0.3311,-0.2017,0.0575,0.1129,0.1275,0.1275,0.1275,0.1273,0.1266,0.1266,0.1264,0.1336,0.1235,0.1213,0.1194,0.1193,0.1196,0.1201,0.1202,0.1213,0.1238,0.1239,0.1419,0.1881,0.18,0.1987,0.2455,0.2872,0.3712,-0.4409,-0.4542,-0.4508,-0.4323,-0.4361,-0.4522,0.0,-0.4697,-0.4825,-0.4803,-0.4942,-0.5116,-0.5223,-0.5593,-0.5895,-0.6128,-0.6635,-0.7053,-0.7172,-0.7502,-0.7773,-0.774,-0.778,-0.7865,-0.7902,-0.7733,-0.7444,-0.7138,-0.6842,-0.6642,-0.6437,-0.6437,-0.6437,-0.6437,-0.6437,-0.6437,-0.6437,-0.6437,-0.6437,-0.6437,-0.6437,-0.6437,-0.6437,-0.6437,-0.6437,-0.6437,-0.6437,-0.6437,-0.6437,-0.6437,-0.6429,-0.6418,-0.6418,-0.641,-0.6372,-0.6162,-0.6086,-0.6086,-0.6086,-0.6078,-0.6048,-0.5937,-0.5893,-0.5866,-0.5765,-0.5733,-0.5754,-0.5855,-0.5874,-0.589,-0.6013,-0.5956,-0.589,-0.5999,-0.5866,-0.5708,-0.5695,-0.5692,-0.5659,-0.5553,-0.5635,-0.563,-0.545,-0.5378,-0.4144,-0.0756,0.0669,0.1338,0.1338,0.1338,0.1327,0.1301,0.1297,0.1286,0.1338,0.1254,0.1262,0.1286,0.1287,0.1299,0.1326,0.1328,0.1329,0.1249,0.1249,0.1502,0.201,0.1593,0.1611,0.2078,0.1731,0.2419,-0.4397,-0.4436,-0.4388,-0.4324,-0.4518,-0.4694,-0.4706,-0.4889,-0.5076,-0.5121,-0.5339,-0.5523,-0.5591,-0.5891,-0.6258,-0.659,-0.6899,-0.7202,-0.7647,-0.7805,-0.7879,-0.7709,-0.7838,-0.7773,-0.7534,-0.7543,-0.7447,-0.7042,-0.6842,-0.6742,-0.6639,-0.6437,-0.6437,-0.6437,-0.6374,-0.6372,-0.6437,-0.6301,-0.6268,-0.6339,-0.6339,-0.6339,-0.6342,-0.6407,-0.6437,-0.6437,-0.6437,-0.6437,-0.6437,-0.6437,-0.6437,-0.6437,-0.6437,-0.6437,-0.6426,-0.6325,-0.629,-0.629,-0.629,-0.6246,-0.617,-0.6048,-0.601,-0.5975,-0.579,-0.5779,-0.5828,-0.5809,-0.5803,-0.5831,-0.595,-0.5942,-0.5915,-0.5966,-0.5904,-0.5814,-0.5746,-0.5733,-0.5719,-0.5667,-0.5706,-0.5744,-0.5744,-0.4816,-0.3622,-0.2269,-0.0085,0.1348,0.1263,0.1263,0.1259,0.1331,0.1329,0.1324,0.1311,0.131,0.1316,0.1328,0.1329,0.1335,0.1263,0.1263,0.1263,0.1263,0.1263,0.144,0.1628,0.1458,0.1474,0.1682,0.1505,0.1769,-0.4451,-0.4368,-0.4409,-0.4401,-0.4692,-0.4925,-0.4906,-0.5151,-0.5409,-0.5499,-0.5684,-0.5855,-0.5937,-0.6127,-0.646,-0.694,-0.715,-0.7338,-0.7839,-0.7872,-0.7868,-0.7736,-0.7838,-0.7753,-0.7332,-0.7543,-0.7444,-0.6942,-0.6942,-0.6842,-0.6742,-0.6509,-0.6404,-0.6434,-0.6328,-0.6323,-0.6434,-0.6268,-0.6227,-0.6314,-0.6314,-0.6298,-0.6271,-0.6317,-0.6358,-0.6391,-0.6391,-0.6407,-0.6437,-0.6437,-0.6437,-0.6437,-0.6437,-0.6437,-0.6437,-0.6437,-0.6437,-0.6431,-0.6401,-0.6336,-0.6249,-0.6124,-0.6086,-0.6048,-0.5841,-0.5839,-0.5885,-0.5803,-0.5757,-0.576,-0.5874,-0.588,-0.5863,-0.5896,-0.588,-0.5841,-0.5793,-0.5757,-0.5733,-0.5733,-0.5735,-0.5738,-0.5738,-0.4574,-0.3587,-0.331,-0.1134,0.0686,0.1286,0.1365,0.1359,0.1359,0.1352,0.1263,0.1263,0.1263,0.1267,0.1359,0.1359,0.1363,0.1286,0.1286,0.1286,0.1286,0.1286,0.1382,0.1402,0.1402,0.1414,0.1436,0.1436,0.1436,-0.4601,-0.4489,-0.4645,-0.4727,-0.4996,-0.5235,-0.5472,-0.5708,-0.5882,-0.5885,-0.5988,-0.6075,-0.6081,-0.6184,-0.6365,-0.6651,-0.6952,-0.7338,-0.7547,-0.7601,-0.7716,-0.7994,-0.778,-0.763,-0.7621,-0.7842,-0.7739,-0.7238,-0.7238,-0.6936,-0.6437,-0.6333,-0.6323,-0.6434,-0.6328,-0.6323,-0.6434,-0.6429,-0.6429,-0.6431,-0.6431,-0.6374,-0.6265,-0.6149,-0.6162,-0.6274,-0.6274,-0.6336,-0.6437,-0.6437,-0.6437,-0.6437,-0.6437,-0.6437,-0.6437,-0.6437,-0.6437,-0.642,-0.6312,-0.6271,-0.6249,-0.6124,-0.6086,-0.6062,-0.5937,-0.5899,-0.5901,-0.5899,-0.5817,-0.576,-0.5874,-0.582,-0.5765,-0.5877,-0.5817,-0.5768,-0.5874,-0.5812,-0.5733,-0.5733,-0.5741,-0.5657,-0.5657,-0.5673,-0.5131,-0.3491,-0.2596,-0.1164,0.1074,0.1407,0.1388,0.1388,0.1365,0.1263,0.1263,0.1263,0.1359,0.1386,0.1388,0.1401,0.1431,0.1432,0.1432,0.1432,0.1432,0.1433,0.1433,0.1433,0.1434,0.1436,0.1436,0.1436,-0.4683,-0.4746,-0.4941,-0.5076,-0.5311,-0.5591,-0.5749,-0.5909,-0.6024,-0.6024,-0.5994,-0.5964,-0.5964,-0.5999,-0.6239,-0.6703,-0.7018,-0.7331,-0.7829,-0.7855,-0.7855,-0.776,-0.7834,-0.7758,-0.7664,-0.7828,-0.7842,-0.7444,-0.7341,-0.7138,-0.6936,-0.66,-0.6396,-0.6434,-0.6328,-0.6323,-0.6434,-0.6282,-0.6244,-0.6325,-0.6325,-0.6344,-0.6377,-0.626,-0.623,-0.6265,-0.6184,-0.6214,-0.6325,-0.6325,-0.6369,-0.6437,-0.6437,-0.6437,-0.6437,-0.6437,-0.6437,-0.642,-0.6309,-0.6217,-0.614,-0.61,-0.6086,-0.6064,-0.5939,-0.5904,-0.5888,-0.5812,-0.5763,-0.5741,-0.5779,-0.5763,-0.5744,-0.5782,-0.5763,-0.5744,-0.5782,-0.576,-0.5733,-0.5733,-0.5735,-0.5738,-0.5738,-0.566,-0.5484,-0.4933,-0.2686,-0.0358,0.1166,0.1426,0.142,0.142,0.1412,0.1406,0.1406,0.1406,0.141,0.142,0.142,0.1425,0.1435,0.1436,0.1436,0.1436,0.1436,0.1436,0.1436,0.1436,0.1436,0.1436,0.1456,0.1466,-0.4856,-0.4973,-0.5134,-0.5301,-0.5624,-0.589,-0.6007,-0.6094,-0.614,-0.6094,-0.5988,-0.589,-0.585,-0.5841,-0.5987,-0.6529,-0.6816,-0.7224,-0.7611,-0.775,-0.7851,-0.7767,-0.7831,-0.7848,-0.7763,-0.7929,-0.7842,-0.7646,-0.7444,-0.7241,-0.7039,-0.6697,-0.6492,-0.6434,-0.6328,-0.6323,-0.6434,-0.6287,-0.6249,-0.6328,-0.6287,-0.6306,-0.6372,-0.6255,-0.6227,-0.6265,-0.6187,-0.6219,-0.6328,-0.6328,-0.6372,-0.6437,-0.6437,-0.6437,-0.6437,-0.6437,-0.6412,-0.6366,-0.6293,-0.6189,-0.6086,-0.6086,-0.6056,-0.6005,-0.5926,-0.5904,-0.588,-0.5765,-0.5733,-0.5733,-0.5733,-0.5733,-0.5733,-0.5733,-0.5765,-0.5782,-0.5741,-0.5765,-0.5782,-0.5741,-0.5733,-0.5733,-0.5733,-0.5738,-0.5744,-0.5662,-0.3401,-0.134,-0.0626,0.0537,0.1166,0.0806,0.1166,0.1436,0.1436,0.1436,0.1436,0.1436,0.1436,0.1436,0.1436,0.1436,0.1436,0.1436,0.1436,0.144,0.1451,0.1451,0.1457,0.1468,0.1487,0.1497,-0.5191,-0.5104,-0.5165,-0.5627,-0.592,-0.6124,-0.6241,-0.6265,-0.6222,-0.6094,-0.5964,-0.5839,-0.5719,-0.5706,-0.579,-0.6021,-0.6546,-0.6936,-0.7201,-0.7501,-0.7716,-0.8007,-0.7787,-0.7723,-0.8011,-0.8038,-0.7942,-0.7646,-0.7646,-0.7347,-0.6845,-0.6726,-0.6617,-0.6431,-0.6333,-0.6328,-0.6434,-0.6437,-0.6437,-0.6434,-0.6328,-0.6276,-0.6274,-0.6151,-0.6159,-0.6268,-0.6263,-0.6323,-0.6429,-0.6429,-0.6431,-0.6437,-0.6437,-0.6437,-0.6437,-0.6437,-0.6369,-0.6276,-0.6276,-0.6192,-0.6086,-0.6092,-0.6007,-0.5904,-0.5909,-0.5904,-0.5871,-0.5763,-0.5733,-0.5733,-0.5733,-0.5738,-0.5741,-0.5741,-0.5831,-0.5882,-0.5773,-0.5836,-0.588,-0.5765,-0.5738,-0.5733,-0.5733,-0.5738,-0.5746,-0.5676,-0.4759,-0.3939,-0.384,-0.1073,0.0538,-0.0447,0.0537,0.1256,0.1345,0.1345,0.1345,0.1436,0.1436,0.1436,0.1436,0.1436,0.1436,0.1436,0.1437,0.1452,0.148,0.1482,0.1498,0.1526,0.1528,0.1528,-0.505,-0.5254,-0.56,-0.5809,-0.6043,-0.623,-0.6263,-0.6198,-0.6072,-0.5866,-0.5654,-0.5442,-0.5238,-0.5344,-0.5684,-0.6192,-0.6645,-0.7127,-0.77,-0.7778,-0.7828,-0.8018,-0.7872,-0.7831,-0.8021,-0.8038,-0.7942,-0.7942,-0.7743,-0.7547,-0.7444,-0.7012,-0.6711,-0.6739,-0.6509,-0.6407,-0.6437,-0.6437,-0.6437,-0.6437,-0.6407,-0.6393,-0.6391,-0.6274,-0.6238,-0.6263,-0.617,-0.62,-0.6312,-0.6312,-0.6361,-0.6437,-0.6437,-0.6437,-0.6437,-0.6437,-0.6418,-0.6393,-0.6393,-0.6257,-0.6102,-0.6192,-0.6078,-0.592,-0.601,-0.5918,-0.5771,-0.5741,-0.5733,-0.5733,-0.5733,-0.5795,-0.5858,-0.5858,-0.5953,-0.6032,-0.6002,-0.6018,-0.6005,-0.5882,-0.5793,-0.5733,-0.5733,-0.5803,-0.586,-0.5866,-0.5663,-0.4912,-0.3325,-0.2056,-0.143,-0.1879,-0.1164,-0.0358,0.0538,0.0628,0.0897,0.1345,0.1436,0.1436,0.1436,0.1436,0.1436,0.1436,0.1457,0.1473,0.148,0.1503,0.1519,0.1527,0.1549,0.156,-0.5173,-0.5523,-0.5836,-0.5953,-0.6086,-0.6173,-0.6121,-0.5934,-0.5706,-0.5469,-0.5347,-0.5154,-0.489,-0.5129,-0.5516,-0.5954,-0.6493,-0.7036,-0.7606,-0.7828,-0.7943,-0.8028,-0.7963,-0.7943,-0.8031,-0.8038,-0.8038,-0.8038,-0.7842,-0.7746,-0.7646,-0.7347,-0.7045,-0.6845,-0.6642,-0.6539,-0.6437,-0.6437,-0.6437,-0.6437,-0.6437,-0.6437,-0.6434,-0.6372,-0.6342,-0.6339,-0.6268,-0.6279,-0.6342,-0.6342,-0.638,-0.6437,-0.6437,-0.6437,-0.6437,-0.6437,-0.6437,-0.6437,-0.6437,-0.635,-0.6244,-0.6263,-0.614,-0.5996,-0.6064,-0.5956,-0.5809,-0.5809,-0.5771,-0.5744,-0.5795,-0.5855,-0.5918,-0.5969,-0.6078,-0.6151,-0.6097,-0.6127,-0.613,-0.6007,-0.5931,-0.5888,-0.5888,-0.5939,-0.5983,-0.5983,-0.6045,-0.5665,-0.4428,-0.3373,-0.28,-0.3042,-0.2235,-0.1431,-0.0716,-0.0537,-0.0269,0.0179,0.0628,0.0987,0.0987,0.1256,0.1436,0.1436,0.1466,0.1487,0.15,0.1531,0.1553,0.1566,0.1583,0.1592,-0.5373,-0.5722,-0.5928,-0.6034,-0.6062,-0.6026,-0.5888,-0.5589,-0.5279,-0.5118,-0.5045,-0.499,-0.4795,-0.5049,-0.5381,-0.5723,-0.625,-0.6875,-0.7382,-0.7717,-0.7994,-0.8035,-0.8021,-0.8018,-0.8038,-0.8038,-0.8038,-0.8038,-0.8038,-0.7942,-0.7646,-0.7646,-0.7347,-0.6842,-0.6845,-0.6742,-0.6437,-0.6437,-0.6437,-0.6437,-0.6437,-0.6437,-0.6437,-0.6437,-0.6437,-0.6437,-0.6437,-0.6437,-0.6437,-0.6437,-0.6437,-0.6437,-0.6437,-0.6437,-0.6437,-0.6437,-0.6437,-0.6437,-0.6437,-0.6437,-0.642,-0.6323,-0.6208,-0.6111,-0.6111,-0.6024,-0.5926,-0.5926,-0.5855,-0.5803,-0.5901,-0.5939,-0.5977,-0.6083,-0.6203,-0.6263,-0.6157,-0.6203,-0.6238,-0.613,-0.6097,-0.6086,-0.6086,-0.61,-0.6111,-0.6111,-0.6121,-0.6127,-0.6113,-0.4866,-0.3939,-0.4045,-0.313,-0.2415,-0.2242,-0.1886,-0.1619,-0.1533,-0.0542,0.009,0.0181,0.0814,0.1266,0.1357,0.1477,0.1506,0.1532,0.1563,0.1591,0.1617,0.1617,0.1617,-0.548,-0.5722,-0.5909,-0.5928,-0.5934,-0.5877,-0.5829,-0.5488,-0.5231,-0.5293,-0.5138,-0.4939,-0.4953,-0.5216,-0.5555,-0.607,-0.6369,-0.692,-0.764,-0.7733,-0.7767,-0.8011,-0.7926,-0.7899,-0.8028,-0.8038,-0.8038,-0.8038,-0.8038,-0.7942,-0.7942,-0.7743,-0.7444,-0.7138,-0.7138,-0.7039,-0.6742,-0.6742,-0.6639,-0.6437,-0.6437,-0.6437,-0.6437,-0.6437,-0.6437,-0.6437,-0.6437,-0.6437,-0.6437,-0.6437,-0.6437,-0.6437,-0.6437,-0.6437,-0.6437,-0.6437,-0.6437,-0.6437,-0.6437,-0.6437,-0.6434,-0.6415,-0.6331,-0.6236,-0.6236,-0.6151,-0.6053,-0.6053,-0.604,-0.6029,-0.6048,-0.613,-0.6211,-0.6233,-0.6325,-0.6401,-0.638,-0.632,-0.6263,-0.6241,-0.6154,-0.6086,-0.6086,-0.617,-0.6236,-0.6236,-0.6317,-0.6342,-0.6249,-0.5852,-0.5341,-0.505,-0.4698,-0.4141,-0.3206,-0.3121,-0.2866,-0.2349,-0.2069,-0.1694,-0.0942,-0.0471,0.0283,0.1416,0.154,0.1558,0.1564,0.1594,0.1611,0.1617,0.1617,0.1617,-0.5502,-0.5813,-0.6076,-0.5831,-0.5765,-0.564,-0.5581,-0.532,-0.5069,-0.5101,-0.5066,-0.5002,-0.4941,-0.5219,-0.5541,-0.5899,-0.6234,-0.673,-0.7509,-0.7594,-0.7709,-0.8004,-0.7974,-0.796,-0.8031,-0.8038,-0.8038,-0.8038,-0.8038,-0.8038,-0.8038,-0.7743,-0.7543,-0.7441,-0.7238,-0.7138,-0.7042,-0.7042,-0.6939,-0.6836,-0.6836,-0.6739,-0.6639,-0.6639,-0.6539,-0.6437,-0.6437,-0.6437,-0.6437,-0.6437,-0.6437,-0.6437,-0.6437,-0.6437,-0.6437,-0.6437,-0.6437,-0.6437,-0.6437,-0.6437,-0.6437,-0.6437,-0.6399,-0.6355,-0.6355,-0.6274,-0.6181,-0.6181,-0.6135,-0.61,-0.6165,-0.6225,-0.6285,-0.6342,-0.6396,-0.6437,-0.6437,-0.6393,-0.6355,-0.6355,-0.6309,-0.6268,-0.6268,-0.6317,-0.6355,-0.6355,-0.6401,-0.6418,-0.6363,-0.6203,-0.5976,-0.5725,-0.5575,-0.5378,-0.4869,-0.4593,-0.433,-0.3991,-0.3422,-0.2852,-0.2473,-0.1426,-0.0571,0.0,0.0778,0.1277,0.1571,0.1602,0.1617,0.1617,0.1617,0.1617,-0.5647,-0.5934,-0.6166,-0.5775,-0.5583,-0.5501,-0.5367,-0.5107,-0.4873,-0.4953,-0.5027,-0.509,-0.4964,-0.5208,-0.5568,-0.5767,-0.612,-0.6538,-0.7299,-0.7502,-0.7709,-0.8004,-0.8038,-0.8038,-0.8038,-0.8038,-0.8038,-0.8038,-0.8038,-0.8038,-0.8038,-0.7842,-0.7646,-0.7646,-0.7441,-0.7338,-0.7238,-0.7238,-0.7238,-0.7238,-0.7238,-0.7138,-0.6842,-0.6842,-0.6739,-0.6537,-0.6537,-0.6537,-0.6537,-0.6537,-0.6537,-0.6537,-0.6537,-0.6537,-0.6537,-0.6537,-0.6537,-0.6537,-0.6537,-0.6537,-0.6537,-0.6537,-0.6537,-0.6437,-0.6437,-0.6374,-0.6306,-0.6404,-0.6332,-0.6184,-0.6379,-0.6404,-0.6328,-0.6415,-0.6437,-0.6437,-0.6437,-0.6437,-0.6437,-0.6437,-0.6437,-0.6437,-0.6437,-0.6437,-0.6437,-0.6437,-0.6437,-0.6437,-0.6437,-0.6361,-0.6268,-0.617,-0.6116,-0.6097,-0.6121,-0.5841,-0.5563,-0.5585,-0.4718,-0.4238,-0.424,-0.2697,-0.1541,-0.0964,-0.0098,0.0593,0.1186,0.1304,0.1415,0.1415,0.1415,0.1415,-0.5933,-0.6078,-0.6159,-0.5774,-0.5653,-0.5624,-0.5466,-0.5117,-0.5015,-0.5289,-0.5223,-0.5156,-0.5296,-0.5386,-0.5538,-0.5885,-0.6183,-0.6552,-0.7272,-0.7502,-0.7709,-0.8004,-0.8038,-0.8038,-0.8038,-0.8038,-0.8038,-0.8038,-0.8038,-0.8038,-0.8038,-0.7942,-0.7942,-0.7942,-0.7939,-0.7842,-0.7547,-0.7547,-0.7444,-0.7238,-0.7238,-0.7138,-0.7138,-0.7138,-0.7138,-0.7138,-0.7138,-0.7138,-0.7138,-0.7138,-0.7138,-0.7138,-0.7138,-0.7138,-0.7138,-0.7138,-0.7138,-0.7138,-0.7138,-0.7138,-0.7138,-0.7138,-0.6836,-0.6437,-0.6437,-0.6429,-0.642,-0.6725,-0.6614,-0.6407,-0.6722,-0.6523,-0.6423,-0.6434,-0.6437,-0.6437,-0.6437,-0.6437,-0.6437,-0.6437,-0.6437,-0.6437,-0.6437,-0.6437,-0.6437,-0.6437,-0.6437,-0.6437,-0.6437,-0.6429,-0.6418,-0.6404,-0.6214,-0.613,-0.6241,-0.6252,-0.6198,-0.6297,-0.6205,-0.6111,-0.6126,-0.4812,-0.2804,-0.0201,-0.0603,-0.0604,0.0101,0.0606,0.0909,0.0909,0.0909,0.0909,-0.5872,-0.6096,-0.617,-0.5706,-0.5671,-0.5645,-0.5324,-0.527,-0.5299,-0.5356,-0.5359,-0.5292,-0.5362,-0.5428,-0.5477,-0.5833,-0.5945,-0.6213,-0.6875,-0.7099,-0.7339,-0.7729,-0.7848,-0.7936,-0.8031,-0.8038,-0.8038,-0.8038,-0.8038,-0.8038,-0.8038,-0.8038,-0.8038,-0.8038,-0.8038,-0.7939,-0.7842,-0.7842,-0.7743,-0.764,-0.764,-0.764,-0.7444,-0.7444,-0.7341,-0.7238,-0.7238,-0.7238,-0.7238,-0.7238,-0.7238,-0.7238,-0.7238,-0.7238,-0.7238,-0.7238,-0.7238,-0.7238,-0.7238,-0.7238,-0.7238,-0.7238,-0.7039,-0.6836,-0.6836,-0.6836,-0.6936,-0.7039,-0.6939,-0.6936,-0.7039,-0.6939,-0.6836,-0.6639,-0.6639,-0.6639,-0.6437,-0.6437,-0.6437,-0.6437,-0.6437,-0.6437,-0.6437,-0.6437,-0.6437,-0.6437,-0.6437,-0.6437,-0.6437,-0.6437,-0.6437,-0.6437,-0.6352,-0.6317,-0.6366,-0.6369,-0.6388,-0.6434,-0.6437,-0.6439,-0.6448,-0.5847,-0.5041,-0.383,-0.2922,-0.1612,0.0,0.0202,0.0303,0.0303,0.0303,0.0303,-0.583,-0.6083,-0.6273,-0.5728,-0.5692,-0.5752,-0.5383,-0.5343,-0.5457,-0.5416,-0.5428,-0.5428,-0.5428,-0.5428,-0.5443,-0.5698,-0.5813,-0.6064,-0.6624,-0.6868,-0.7143,-0.7553,-0.7726,-0.7851,-0.7963,-0.8014,-0.8038,-0.8038,-0.8038,-0.8038,-0.8038,-0.8038,-0.8038,-0.8038,-0.8038,-0.8038,-0.8038,-0.8038,-0.8038,-0.8038,-0.8038,-0.7942,-0.7743,-0.7743,-0.7643,-0.7437,-0.7437,-0.7437,-0.7437,-0.7437,-0.7437,-0.7437,-0.7437,-0.7437,-0.7437,-0.7437,-0.7437,-0.7437,-0.7437,-0.7437,-0.7437,-0.7437,-0.7437,-0.7437,-0.7437,-0.7338,-0.7238,-0.7338,-0.7341,-0.7341,-0.7238,-0.7238,-0.7138,-0.6942,-0.6942,-0.6842,-0.6637,-0.6637,-0.6637,-0.6539,-0.6539,-0.6537,-0.6437,-0.6437,-0.6437,-0.6437,-0.6437,-0.6437,-0.6437,-0.6437,-0.6437,-0.6437,-0.6437,-0.6437,-0.6437,-0.6437,-0.6437,-0.6437,-0.6437,-0.6437,-0.6437,-0.6448,-0.6358,-0.6364,-0.4941,-0.3426,-0.1915,-0.0605,0.0,0.0,0.0,0.0,-0.5993,-0.6247,-0.6437,-0.5977,-0.5864,-0.579,-0.5586,-0.5409,-0.5336,-0.5393,-0.5428,-0.5428,-0.5428,-0.5428,-0.5413,-0.5566,-0.5837,-0.6186,-0.6637,-0.6953,-0.7255,-0.7563,-0.7726,-0.7811,-0.7814,-0.795,-0.8038,-0.8038,-0.8038,-0.8038,-0.8038,-0.8038,-0.8038,-0.8038,-0.8038,-0.8038,-0.8038,-0.8038,-0.8038,-0.8038,-0.8038,-0.8038,-0.8038,-0.8038,-0.8038,-0.8038,-0.8038,-0.8038,-0.8038,-0.8038,-0.8038,-0.8038,-0.8038,-0.8038,-0.8038,-0.8038,-0.8038,-0.8038,-0.8038,-0.8038,-0.8038,-0.8038,-0.8038,-0.8038,-0.8038,-0.764,-0.7238,-0.7543,-0.7547,-0.7543,-0.7238,-0.7238,-0.7238,-0.7238,-0.7238,-0.7238,-0.7238,-0.7238,-0.7138,-0.6845,-0.6845,-0.6742,-0.6437,-0.6437,-0.6437,-0.6437,-0.6437,-0.6437,-0.6437,-0.6437,-0.6437,-0.6437,-0.6437,-0.6437,-0.6437,-0.6437,-0.6437,-0.6437,-0.6437,-0.6437,-0.6437,-0.6437,-0.6445,-0.6364,-0.6364,-0.6366,-0.6274,-0.2116,0.0,0.0,0.0,0.0,-0.5688,-0.5867,-0.5905,-0.5614,-0.5649,-0.5745,-0.5416,-0.5411,-0.5477,-0.5393,-0.5428,-0.5428,-0.5428,-0.5428,-0.5583,-0.5973,-0.6125,-0.6346,-0.6793,-0.7112,-0.7333,-0.7434,-0.7753,-0.7967,-0.7967,-0.8011,-0.8038,-0.8038,-0.8038,-0.8038,-0.8038,-0.8038,-0.8038,-0.8038,-0.8038,-0.8038,-0.8038,-0.8038,-0.8038,-0.8038,-0.8038,-0.8038,-0.8038,-0.8038,-0.8038,-0.8038,-0.8038,-0.8038,-0.8038,-0.8038,-0.8038,-0.8038,-0.8038,-0.8038,-0.8038,-0.8038,-0.8038,-0.8038,-0.8038,-0.8038,-0.8038,-0.8038,-0.8038,-0.8038,-0.8038,-0.7839,-0.7739,-0.7842,-0.7842,-0.7842,-0.7739,-0.7739,-0.7739,-0.7543,-0.7444,-0.7444,-0.7238,-0.7238,-0.7138,-0.7138,-0.7039,-0.7039,-0.6936,-0.6839,-0.6642,-0.6642,-0.6539,-0.6437,-0.6437,-0.6437,-0.6437,-0.6437,-0.6437,-0.6437,-0.6437,-0.6437,-0.6437,-0.6437,-0.6437,-0.6437,-0.6437,-0.6437,-0.6439,-0.6445,-0.6445,-0.6353,-0.6366,-0.5044,-0.282,0.0,0.0,0.0,-0.5631,-0.561,-0.5711,-0.5534,-0.5624,-0.5698,-0.5464,-0.5473,-0.5477,-0.5449,-0.5428,-0.5428,-0.5428,-0.541,-0.5552,-0.5943,-0.6064,-0.6308,-0.6702,-0.7014,-0.7288,-0.7509,-0.7784,-0.7977,-0.8035,-0.8038,-0.8038,-0.8038,-0.8038,-0.8038,-0.8038,-0.8038,-0.8038,-0.8038,-0.8038,-0.8038,-0.8038,-0.8038,-0.8038,-0.8038,-0.8038,-0.8038,-0.8038,-0.8038,-0.8038,-0.8038,-0.8038,-0.8038,0.0,-0.8038,-0.8038,-0.8038,-0.8038,-0.8038,-0.8038,-0.8038,-0.8038,-0.8038,-0.8038,-0.8038,-0.8038,-0.8038,-0.8038,-0.8038,-0.8038,-0.8038,-0.8038,-0.8038,-0.8038,-0.8038,-0.8038,-0.8038,-0.7942,-0.7743,-0.7743,-0.7743,-0.7537,-0.7537,-0.7437,-0.7341,-0.7341,-0.7341,-0.7238,-0.7039,-0.6942,-0.6942,-0.6839,-0.6736,-0.6736,-0.6736,-0.6637,-0.6539,-0.6539,-0.6539,-0.6437,-0.6437,-0.6437,-0.6437,-0.6437,-0.6437,-0.6437,-0.6437,-0.6437,-0.6437,-0.6437,-0.6442,-0.6353,-0.6361,-0.5044,-0.242,-0.1612,-0.1209,0.0,-0.5624,-0.571,-0.5846,-0.5783,-0.5696,-0.5638,-0.5595,0.0,-0.5428,-0.5428,-0.5432,-0.5456,-0.5491,-0.5549,-0.5538,-0.5796,-0.6173,-0.6491,-0.68,-0.72,-0.776,-0.7828,-0.7882,-0.8024,-0.8038,-0.8038,-0.8038,-0.8038,-0.8038,-0.8038,-0.8038,-0.8038,-0.8038,-0.8038,-0.8038,-0.8038,-0.8038,-0.8038,-0.8038,-0.8038,-0.8038,-0.8038,-0.8038,-0.8038,-0.8038,-0.8038,-0.8038,-0.8038,-0.8038,-0.8038,-0.8038,-0.8038,-0.8038,-0.8038,-0.8038,-0.8038,-0.8038,-0.8038,-0.8038,-0.8038,-0.8038,-0.8038,-0.8038,-0.8038,-0.8038,-0.8038,-0.8038,-0.8038,-0.8038,-0.8038,-0.8038,-0.8038,-0.8038,-0.8038,-0.8038,-0.8038,-0.8038,-0.7942,-0.7646,-0.7646,-0.7543,-0.7338,-0.7238,-0.7238,-0.7238,-0.7238,-0.7238,-0.7238,-0.7238,-0.7138,-0.6845,-0.6842,-0.6742,-0.6437,-0.6437,-0.6437,-0.6437,-0.6437,-0.6437,-0.6437,-0.6437,-0.6437,-0.6437,-0.6437,-0.6437,-0.6437,-0.6353,-0.6366,-0.6374,-0.4336,-0.3426,-0.6702,0.0,-0.6573,-0.655,-0.6641,-0.663,0.0,-0.6568,-0.6671,-0.5624,-0.5818,-0.6089,-0.5794,-0.5542,-0.5627,-0.6278,-0.6376,-0.6552,-0.7085,-0.7417,-0.7699,-0.7953,-0.7984,-0.7997,-0.8035,-0.8038,-0.8038,-0.8038,-0.8038,-0.8038,-0.8038,-0.8038,-0.8038,-0.8038,-0.8038,-0.8038,-0.8038,-0.8038,-0.8038,-0.8038,-0.8038,-0.8038,-0.8038,-0.8038,-0.8038,-0.8038,-0.8038,-0.8038,-0.8038,-0.8038,-0.8038,-0.8038,-0.8038,-0.8038,-0.8038,-0.8038,-0.8038,-0.8038,-0.8038,-0.8038,-0.8038,-0.8038,-0.8038,-0.8038,-0.8038,-0.8038,-0.8038,-0.8038,-0.8038,-0.8038,-0.8038,-0.8038,-0.8038,-0.8038,-0.8038,-0.8038,-0.8038,-0.8038,-0.7939,-0.7942,-0.7942,-0.7839,-0.7839,-0.7643,-0.7543,-0.7543,-0.7341,-0.7238,-0.7238,-0.7238,-0.7138,-0.7138,-0.7138,-0.7039,-0.7036,-0.6637,-0.6437,-0.6437,-0.6437,-0.6437,-0.6437,-0.6437,-0.6437,-0.6437,-0.6437,-0.6437,-0.6437,-0.6439,-0.635,-0.6366,-0.5854,-0.5653,-0.7773,-0.7338,-0.6971,-0.7007,-0.7135,-0.7186,-0.6902,-0.712,-0.7125,-0.6079,-0.6141,-0.6262,-0.5707,-0.5637,-0.5806,-0.622,-0.6508,-0.6868,-0.74,-0.7729,-0.7946,-0.8028,-0.8038,-0.8038,-0.8038,-0.8038,-0.8038,-0.8038,-0.8038,-0.8038,-0.8038,-0.8038,-0.8038,-0.8038,-0.8038,-0.8038,-0.8038,-0.8038,-0.8038,-0.8038,-0.8038,-0.8038,-0.8038,-0.8038,-0.8038,-0.8038,-0.8038,-0.8038,-0.8038,-0.8038,-0.8038,-0.8038,-0.8038,-0.8038,-0.8038,-0.8038,-0.8038,-0.8038,-0.8038,-0.8038,-0.8038,-0.8038,-0.8038,-0.8038,-0.8038,-0.8038,-0.8038,-0.8038,-0.8038,-0.8038,-0.8038,-0.8038,-0.8038,-0.8038,-0.8038,-0.8038,-0.8038,-0.8038,-0.8038,-0.8038,-0.8038,-0.8038,-0.8038,-0.7842,-0.7743,-0.7743,-0.764,-0.7537,-0.7537,-0.7537,-0.754,-0.7441,-0.7341,-0.7341,-0.7238,-0.6936,-0.6736,-0.6736,-0.6736,-0.6736,-0.6736,-0.6736,-0.6736,-0.6736,-0.6736,-0.6736,-0.6539,-0.6539,-0.6545,-0.645,-0.6553,-0.6559,-0.8685,-0.7977,-0.7325,-0.7486,-0.7502,-0.7478,-0.7442,0.0,0.0,0.0,0.0,-0.623,-0.5582,-0.5755,-0.5989,-0.5976,-0.6566,-0.7173,-0.7573,-0.7868,-0.8038,-0.8038,-0.8038,-0.8041,-0.8038,-0.8038,-0.8038,-0.8137,-0.8137,-0.8137,-0.8137,-0.8137,-0.8137,-0.8038,-0.8137,-0.8137,-0.8038,-0.8038,-0.8038,-0.8038,-0.8038,-0.8038,-0.8038,-0.8041,-0.8038,-0.8038,-0.8041,-0.8038,-0.8038,-0.8038,-0.8038,-0.8038,-0.8038,-0.8038,-0.8038,-0.8038,-0.8038,-0.8038,-0.8038,-0.8038,-0.8038,-0.8038,-0.8038,-0.8038,-0.8038,-0.8038,-0.8038,-0.8038,-0.8038,-0.8038,-0.8038,-0.8038,-0.8038,-0.8038,-0.8038,-0.8038,-0.8038,-0.8038,-0.8038,-0.8038,-0.8038,-0.8038,-0.8038,-0.8038,-0.8038,-0.8038,-0.8038,-0.8038,-0.8038,-0.8038,-0.7942,-0.7646,-0.7643,-0.7543,-0.7338,-0.7338,-0.7338,-0.7338,-0.7238,-0.7238,-0.7238,-0.7238,-0.7238,-0.7238,-0.7238,-0.7039,-0.6842,-0.6842,-0.6739,-0.6537,-0.6739,-0.6842,-0.905,-0.8777,-0.8465,-0.8717,-0.8381,-0.7865,-0.7478,-0.7386,-0.706,0.0,0.0,-0.6273,-0.5999,-0.5878,-0.6037,-0.6654,-0.7173,-0.7563,-0.775,-0.7929,-0.8038,-0.8038,-0.8038,-0.8137,-0.8333,-0.8333,-0.8432,-0.8627,-0.8726,-0.8726,-0.8726,-0.8726,-0.8531,-0.8333,-0.8528,-0.8531,-0.8333,-0.8137,-0.8038,-0.8038,-0.8038,-0.8137,-0.8333,-0.8137,-0.8137,-0.8333,-0.8137,-0.8038,-0.8038,-0.8038,-0.8038,-0.8038,-0.8038,-0.8038,-0.8038,-0.8038,-0.8038,-0.8038,-0.8038,-0.8038,-0.8038,-0.8038,-0.8038,-0.8038,-0.8038,-0.8038,-0.8038,-0.8038,-0.8038,-0.8038,-0.8038,-0.8038,-0.8038,-0.8038,-0.8038,-0.8038,-0.8038,-0.8038,-0.8038,-0.8038,-0.8038,-0.8038,-0.8038,-0.8038,-0.8038,-0.8038,-0.8038,-0.8038,-0.8038,-0.8038,-0.7939,-0.7939,-0.7942,-0.7942,-0.7839,-0.7839,-0.7839,-0.7839,-0.7437,-0.7238,-0.7238,-0.7238,-0.7238,-0.7238,-0.7238,-0.7138,-0.7138,-0.7138,-0.7138,-0.7039,-0.7138,-0.7138,-0.8971,-0.8744,-0.8555,-0.8758,-0.8598,-0.8179,-0.7755,-0.7779,-0.7523,0.0,0.0,-0.6728,-0.6264,-0.6318,-0.6694,-0.7469,-0.7865,-0.8151,-0.8108,-0.8188,-0.8237,-0.8237,-0.8237,-0.8333,-0.8627,-0.8627,-0.8627,-0.8825,-0.8825,-0.8825,-0.8825,-0.8825,-0.8726,-0.8627,-0.8726,-0.8726,-0.8627,-0.8531,-0.8432,-0.8432,-0.8432,-0.8531,-0.8627,-0.8531,-0.8531,-0.8627,-0.8531,-0.8432,-0.8432,-0.8432,-0.8432,-0.8432,-0.8432,-0.8432,-0.8432,-0.8432,-0.8432,-0.8432,-0.8432,-0.8432,-0.8432,-0.8432,-0.8432,-0.8432,-0.8432,-0.8432,-0.8432,-0.8432,-0.8233,-0.8038,-0.8038,-0.8038,-0.8038,-0.8038,-0.8038,-0.8038,-0.8038,-0.8038,-0.8038,-0.8038,-0.8038,-0.8038,-0.8038,-0.8038,-0.8038,-0.8038,-0.8038,-0.8038,-0.8038,-0.8038,-0.8038,-0.8038,-0.8038,-0.8038,-0.8038,-0.8038,-0.8038,-0.8038,-0.7739,-0.764,-0.764,-0.764,-0.764,-0.764,-0.764,-0.754,-0.7441,-0.7441,-0.7341,-0.7238,-0.7341,-0.7441,-0.8891,-0.8664,-0.8427,-0.8491,-0.8283,-0.8053,-0.7848,-0.7753,-0.7602,0.0,0.0,-0.6903,-0.64,-0.6848,-0.74,-0.8142,-0.8501,-0.8589,-0.8513,-0.8531,-0.8531,-0.8531,-0.8531,-0.863,-0.8825,-0.8928,-0.8924,-0.9027,-0.9027,-0.9027,-0.9027,-0.9027,-0.8924,-0.8928,-0.8924,-0.8924,-0.8928,-0.8924,-0.8924,-0.8825,-0.8825,-0.8825,-0.8928,-0.8825,-0.8825,-0.8928,-0.8825,-0.8825,-0.8825,-0.8825,-0.8825,-0.8825,-0.8825,-0.8825,-0.8825,-0.8825,-0.8825,-0.8825,-0.8825,-0.8825,-0.8825,-0.8825,-0.8825,-0.8825,-0.8825,-0.8825,-0.8825,-0.8825,-0.8528,-0.8137,-0.8137,-0.8137,-0.8038,-0.8041,-0.8038,-0.8038,-0.8038,-0.8038,-0.8038,-0.8038,-0.8038,-0.8038,-0.8038,-0.8038,-0.8038,-0.8038,-0.8038,-0.8038,-0.8038,-0.8038,-0.8137,-0.8333,-0.8333,-0.8432,-0.8726,-0.8726,-0.8726,-0.8726,-0.8233,-0.8038,-0.8038,-0.8038,-0.8038,-0.8038,-0.8038,-0.7942,-0.7646,-0.7646,-0.7543,-0.7437,-0.7643,-0.7646,-0.9084,-0.8852,-0.8369,-0.7973,-0.7418,-0.7123,-0.7473,-0.6865,0.0,-0.6349,0.0,-0.6574,-0.6493,-0.7179,-0.7836,-0.8228,-0.8609,-0.8814,-0.8722,-0.8726,-0.8726,-0.8726,-0.8726,-0.8829,-0.9133,-0.9133,-0.9232,-0.9529,-0.9529,-0.9529,-0.9529,-0.9529,-0.943,-0.9137,-0.943,-0.943,-0.9133,-0.943,-0.9327,-0.8825,-0.8825,-0.8928,-0.9133,-0.8928,-0.8928,-0.9133,-0.8928,-0.8825,-0.8825,-0.8825,-0.8825,-0.8825,-0.8825,-0.8825,-0.8825,-0.8825,-0.8825,-0.8825,-0.8825,-0.8825,-0.8825,-0.8825,-0.8825,-0.8825,-0.8825,-0.8825,-0.8825,-0.8825,-0.8726,-0.8726,-0.8432,-0.8333,-0.8333,-0.8038,-0.8038,-0.8038,-0.8038,-0.8038,-0.8038,-0.8038,-0.8038,-0.8038,-0.8038,-0.8038,-0.8038,-0.8038,-0.8038,-0.8038,-0.8038,-0.8038,-0.8333,-0.9414,-0.9509,-0.9899,-1.0881,-1.0979,-1.0979,-1.0979,-0.9118,-0.8038,-0.8038,-0.8038,-0.8038,-0.8038,-0.8038,-0.8038,-0.7942,-0.7942,-0.7942,-0.7939,-0.7942,-0.7942,-0.8938,-0.8928,-0.8788,-0.854,-0.8286,0.0,0.0,-0.6824,-0.681,-0.6817,-0.7058,-0.7337,-0.7521,-0.7948,-0.8368,-0.8642,-0.8979,-0.9104,-0.9015,-0.9031,-0.9031,-0.9031,-0.9031,-0.913,-0.943,-0.943,-0.9529,-0.9628,-0.9628,-0.9628,-0.9628,-0.9628,-0.9529,-0.943,-0.9529,-0.9529,-0.943,-0.9529,-0.9525,-0.9327,-0.9327,-0.9327,-0.943,-0.9327,-0.9327,-0.943,-0.9327,-0.9327,-0.9327,-0.9327,-0.9327,-0.9327,-0.9327,-0.9327,-0.9327,-0.9327,-0.9327,-0.9327,-0.9327,-0.9327,-0.9327,-0.9327,-0.9327,-0.9327,-0.9327,-0.9327,-0.9327,-0.9327,-0.9327,-0.9225,-0.8726,-0.8627,-0.8627,-0.8531,-0.8531,-0.8531,-0.8531,-0.8531,-0.8432,-0.8233,-0.8432,-0.8432,-0.8233,-0.8432,-0.8531,-0.8531,-0.8531,-0.8726,-0.941,-0.9312,-0.9608,-1.0685,-1.0685,-1.0779,-1.117,-1.117,-1.1268,-1.1463,-1.0489,-0.9998,-0.9998,-0.9998,-0.9998,-0.9998,-0.9998,-0.9998,-0.9998,-0.9998,-0.9998,-0.9998,-0.9998,-0.9998,-0.8804,-0.8865,-0.8896,-0.8667,0.0,0.0,-0.695,-0.7106,-0.7471,-0.7308,-0.7529,-0.7839,-0.8249,-0.8477,-0.871,-0.895,-0.9272,-0.9368,-0.9241,-0.9296,-0.9312,-0.9257,-0.93,-0.943,-0.9628,-0.9628,-0.9628,-0.9628,-0.9628,-0.9628,-0.9628,-0.9916,-1.0109,-1.0109,-1.0404,-1.06,-1.06,-1.06,-1.06,-1.06,-1.06,-1.0212,-0.9628,-0.9916,-0.9916,-0.9628,-0.9916,-0.9916,-0.9628,-0.9628,-0.9628,-0.9628,-0.9628,-0.9628,-0.9628,-0.9628,-0.9628,-0.9628,-0.9628,-0.9628,-0.9628,-0.9628,-0.9628,-0.9628,-0.9628,-0.9628,-0.9628,-0.9628,-0.9628,-0.9525,-0.9126,-0.9027,-0.8928,-0.8825,-0.8825,-0.8825,-0.8825,-0.8825,-0.8726,-0.8528,-0.8627,-0.8726,-0.8528,-0.8726,-0.8825,-0.8825,-0.8825,-0.9019,-0.9805,-0.9998,-1.0681,-1.2047,-1.2344,-1.2441,-1.2441,-1.2441,-1.2538,-1.2732,-1.2538,-1.2145,-1.1463,-1.1365,-1.1365,-1.1365,-1.1268,-1.117,-1.117,-1.117,-1.117,-1.117,-1.117,-1.117,-0.8804,-0.8726,-0.8498,-0.8137,0.0,0.0,-0.7244,-0.7731,-0.8125,-0.7784,-0.7796,-0.8032,-0.8568,-0.8663,-0.88,-0.9092,-0.9388,-0.9559,-0.9473,-0.951,-0.9555,-0.9376,-0.9514,-0.9624,-0.9628,-0.9628,-0.9628,-0.9628,-0.9628,-0.9628,-0.9628,-1.0592,-1.117,-1.117,-1.2145,-1.2727,-1.2727,-1.2727,-1.2727,-1.2727,-1.2727,-1.157,-0.9628,-1.069,-1.0592,-0.9723,-1.0788,-1.0592,-0.9628,-0.9628,-0.9628,-0.9628,-0.9628,-0.9628,-0.9628,-0.9628,-0.9628,-0.9628,-0.9628,-0.9628,-0.9628,-0.9628,-0.9628,-0.9628,-0.9628,-0.9628,-0.9628,-0.9628,-0.9628,-0.9628,-0.9628,-0.943,-0.9133,-0.8825,-0.8825,-0.8825,-0.8825,-0.8825,-0.8825,-0.8825,-0.8825,-0.8825,-0.8825,-0.8825,-0.8825,-0.8821,-0.8821,-0.8825,-0.8825,-0.9801,-1.1268,-1.3318,-1.4496,-1.5083,-1.5083,-1.5083,-1.5083,-1.5083,-1.5083,-1.41,-1.2047,-1.1755,-1.1658,-1.1658,-1.1365,-1.1268,-1.1268,-1.1268,-1.1268,-1.1268,-1.1268,-1.1268,-0.8804,-0.8865,-0.8902,-0.8661,0.0,0.0,0.0,-0.7914,0.0,0.0,-0.9165,-0.9414,-1.0289,-1.0479,-1.0608,-1.085,-1.0894,-1.0828,-1.0272,-1.0247,-1.0031,-0.944,-0.9405,-0.9486,-0.9616,-0.9628,-0.9628,-0.9628,-1.0306,-1.069,-1.069,-1.1663,-1.2242,-1.2242,-1.2533,-1.2727,-1.2727,-1.2727,-1.2727,-1.2727,-1.195,-1.1663,-1.176,-1.2145,-1.2047,-1.176,-1.2145,-1.2052,-1.176,-1.176,-1.176,-1.176,-1.176,-1.176,-1.176,-1.176,-1.176,-1.176,-1.176,-1.176,-1.176,-1.176,-1.176,-1.176,-1.176,-1.176,-1.176,-1.176,-1.176,-1.176,-1.176,-1.176,-1.1272,-0.9719,-0.9327,-0.9327,-0.9327,-0.9327,-0.9521,-1.0096,-0.971,-0.9521,-1.0096,-0.971,-0.962,-1.0391,-1.0489,-1.0974,-1.2242,-1.3307,-1.4184,-1.4592,-1.4885,-1.5083,-1.5083,-1.5083,-1.5172,-1.5356,-1.5356,-1.4968,-1.4202,-1.41,-1.41,-1.41,-1.4004,-1.3908,-1.3908,-1.3908,-1.3908,-1.3908,-1.3908,-1.3908,-0.8536,-0.8485,-0.8386,-0.8479,-0.8675,-0.8822,-0.9001,-0.8741,-0.8801,-1.0177,-1.0371,-1.0453,-1.1149,-1.1397,-1.1329,-1.1112,-1.112,-1.0839,-0.998,-0.9939,-0.9866,-0.9341,-0.9752,-1.0175,-1.0194,-1.06,-1.0792,-1.0792,-1.1468,-1.1755,-1.1755,-1.2732,-1.3318,-1.3318,-1.3698,-1.389,-1.389,-1.389,-1.389,-1.389,-1.3403,-1.3499,-1.4088,-1.3119,-1.2727,-1.2732,-1.2829,-1.2829,-1.2732,-1.2829,-1.2829,-1.2829,-1.2829,-1.292,-1.3011,-1.3011,-1.292,-1.2823,-1.3017,-1.292,-1.2732,-1.2829,-1.2829,-1.2829,-1.2727,-1.2727,-1.2829,-1.2727,-1.2727,-1.2727,-1.2727,-1.2727,-1.2339,-1.1082,-1.0792,-1.0792,-1.0792,-1.0792,-1.0984,-1.1463,-1.1175,-1.0984,-1.1463,-1.1179,-1.1082,-1.1658,-1.1755,-1.2339,-1.3902,-1.458,-1.5064,-1.5363,-1.5363,-1.5363,-1.5363,-1.5363,-1.5458,-1.5642,-1.5635,-1.5547,-1.5363,-1.5267,-1.5267,-1.5267,-1.5172,-1.5083,-1.5083,-1.5083,-1.5083,-1.5083,-1.5083,-1.5083,-0.8135,-0.7828,-0.7472,-0.8029,-0.8236,-0.8727,-1.0033,-0.9941,-0.9973,-1.1107,-1.1397,-1.1413,-1.1585,-1.1669,-1.1545,-1.0573,-1.0562,-1.0356,-0.9199,-0.9376,-0.9539,-0.9414,-1.0541,-1.1346,-1.1365,-1.2145,-1.2727,-1.2727,-1.2829,-1.2823,-1.2829,-1.3902,-1.449,-1.449,-1.535,-1.5825,-1.5825,-1.5825,-1.5825,-1.5825,-1.6028,-1.6123,-1.6123,-1.3986,-1.3017,-1.3113,-1.3312,-1.3307,-1.3113,-1.3312,-1.3409,-1.3409,-1.3409,-1.3596,-1.3776,-1.3776,-1.359,-1.3409,-1.368,-1.3494,-1.3113,-1.3312,-1.3409,-1.3409,-1.3113,-1.3216,-1.3409,-1.3113,-1.3017,-1.3017,-1.3017,-1.3017,-1.3017,-1.3017,-1.2823,-1.2727,-1.2727,-1.2727,-1.2727,-1.2829,-1.2727,-1.2727,-1.2829,-1.2727,-1.2727,-1.2829,-1.2926,-1.3312,-1.4292,-1.449,-1.4777,-1.573,-1.5832,-1.5832,-1.5832,-1.5832,-1.5832,-1.5832,-1.5832,-1.5832,-1.5832,-1.5635,-1.554,-1.554,-1.5267,-1.5178,-1.5178,-1.5178,-1.5178,-1.5178,-1.5178,-1.5178,-0.8854,-0.8838,-0.8828,-0.9258,-0.9482,-0.9836,-1.0952,-1.1152,-1.1259,-1.1952,-1.2222,-1.2619,-1.3392,-1.3528,-1.3224,-1.2353,-1.2227,-1.1964,-1.1305,-1.1225,-1.14,-1.1703,-1.201,-1.2231,-1.2323,-1.2533,-1.2727,-1.2727,-1.3698,-1.4178,-1.4004,-1.5343,-1.6015,-1.5838,-1.6211,-1.6393,-1.6393,-1.6393,-1.6393,-1.64,-1.5629,-1.5724,-1.6494,-1.6008,-1.5717,-1.5717,-1.5812,-1.5812,-1.5812,-1.5812,-1.5818,-1.5818,-1.5818,-1.5906,-1.5906,-1.5906,-1.5906,-1.5812,-1.5906,-1.5906,-1.5812,-1.5812,-1.5818,-1.5812,-1.5812,-1.5812,-1.5812,-1.5812,-1.5717,-1.5717,-1.5717,-1.5717,-1.5717,-1.5717,-1.4172,-1.2727,-1.2727,-1.2727,-1.2926,-1.3806,-1.3318,-1.2926,-1.3806,-1.3221,-1.3022,-1.3806,-1.4669,-1.5248,-1.5445,-1.5445,-1.554,-1.5737,-1.5832,-1.5832,-1.5832,-1.5832,-1.5832,-1.5832,-1.5832,-1.5832,-1.5832,-1.573,-1.573,-1.573,-1.5642,-1.5642,-1.5642,-1.5642,-1.5642,-1.5642,-1.5642,-1.5642,-0.8873,-0.8844,-0.8819,-0.985,-1.0325,-1.0836,-1.1809,-1.2101,-1.2357,-1.2739,-1.2984,-1.3323,-1.3971,-1.4166,-1.3984,-1.3033,-1.2948,-1.2741,-1.2006,-1.1954,-1.2121,-1.237,-1.2871,-1.3275,-1.3315,-1.3908,-1.4364,-1.4364,-1.4935,-1.5383,-1.5432,-1.5831,-1.6188,-1.64,-1.6348,-1.6434,-1.6588,-1.6588,-1.6588,-1.6581,-1.6197,-1.6292,-1.6958,-1.6676,-1.6588,-1.6588,-1.6784,-1.6683,-1.6588,-1.6784,-1.6784,-1.6784,-1.6784,-1.6871,-1.6958,-1.6958,-1.6871,-1.6784,-1.6864,-1.677,-1.6581,-1.6777,-1.6784,-1.6784,-1.6683,-1.6683,-1.6784,-1.6683,-1.6588,-1.6588,-1.6588,-1.6588,-1.6588,-1.6588,-1.5432,-1.4376,-1.4376,-1.428,-1.4376,-1.4867,-1.4573,-1.4376,-1.5064,-1.486,-1.4758,-1.5159,-1.5642,-1.5927,-1.5832,-1.5832,-1.5832,-1.5832,-1.5832,-1.5832,-1.5832,-1.5832,-1.5832,-1.5832,-1.5832,-1.6015,-1.6487,-1.6015,-1.5832,-1.5832,-1.5832,-1.5832,-1.5832,-1.5832,-1.5832,-1.5832,-1.5832,-1.5832,-0.8656,-0.8691,-0.8863,-1.0325,-1.1181,-1.1781,-1.2526,-1.2791,-1.3058,-1.3265,-1.3416,-1.3736,-1.4038,-1.4246,-1.4079,-1.3184,-1.3275,-1.3124,-1.2392,-1.2412,-1.2657,-1.2874,-1.3792,-1.4385,-1.4385,-1.5339,-1.6036,-1.6036,-1.6043,-1.6155,-1.6413,-1.6028,-1.5979,-1.6507,-1.6267,-1.6253,-1.6514,-1.6664,-1.6692,-1.6692,-1.6943,-1.716,-1.7333,-1.6864,-1.6676,-1.6777,-1.6972,-1.6972,-1.677,-1.6972,-1.7073,-1.7073,-1.7073,-1.7153,-1.7326,-1.7326,-1.7153,-1.7066,-1.7239,-1.7052,-1.6777,-1.6972,-1.7073,-1.6972,-1.6777,-1.6871,-1.6972,-1.677,-1.6676,-1.6676,-1.6676,-1.6676,-1.6676,-1.6676,-1.6494,-1.6319,-1.6312,-1.6116,-1.5927,-1.5927,-1.5927,-1.6021,-1.6218,-1.6494,-1.6494,-1.6312,-1.6319,-1.6218,-1.5927,-1.5927,-1.5927,-1.5927,-1.5927,-1.5927,-1.5927,-1.5927,-1.5927,-1.6109,-1.6109,-1.6574,-1.7598,-1.685,-1.6379,-1.6379,-1.6015,-1.5832,-1.5832,-1.5832,-1.5832,-1.5832,-1.5832,-1.5832,-0.8662,-0.9509,-1.0641,-1.1847,-1.2274,-1.2526,-1.282,-1.2854,-1.2959,-1.3223,-1.3395,-1.3659,-1.4204,-1.4267,-1.409,-1.3412,-1.3366,-1.3449,-1.351,-1.3573,-1.3956,-1.5021,-1.5267,-1.5383,-1.5383,-1.5596,-1.5624,-1.5624,-1.5906,-1.5927,-1.5777,-1.6056,-1.6234,-1.6059,-1.6284,-1.6366,-1.641,-1.6686,-1.6824,-1.6832,-1.7108,-1.7239,-1.7326,-1.7239,-1.7239,-1.7239,-1.7239,-1.7239,-1.7239,-1.7239,-1.7239,-1.7239,-1.7239,-1.7239,-1.7326,-1.7326,-1.7232,-1.7239,-1.7333,-1.7239,-1.7239,-1.7239,-1.7239,-1.7239,-1.7239,-1.7232,-1.7239,-1.7239,-1.7239,-1.7239,-1.7239,-1.7239,-1.7239,-1.7239,-1.7059,-1.6791,-1.6588,-1.6487,-1.6487,-1.6487,-1.6487,-1.6494,-1.6494,-1.6588,-1.6588,-1.6588,-1.6588,-1.6494,-1.6494,-1.6487,-1.6487,-1.6487,-1.6487,-1.6487,-1.6487,-1.6312,-1.6494,-1.7412,-1.7412,-1.7863,-1.8864,-1.8764,-1.8672,-1.8672,-1.6749,-1.5832,-1.5832,-1.5832,-1.5832,-1.5832,-1.5832,-1.5832,-0.919,-1.0077,-1.1099,-1.199,-1.241,-1.2755,-1.3011,-1.3046,-1.3155,-1.3372,-1.3358,-1.3453,-1.3929,-1.4247,-1.4409,-1.4125,-1.4282,-1.453,-1.4661,-1.4675,-1.49,-1.539,-1.5498,-1.5498,-1.5498,-1.5655,-1.5762,-1.5762,-1.5857,-1.5929,-1.6006,-1.5944,-1.5915,-1.619,-1.6119,-1.6199,-1.6367,-1.6513,-1.6674,-1.6857,-1.7179,-1.7326,-1.7326,-1.7326,-1.7326,-1.7326,-1.7326,-1.7326,-1.7326,-1.7326,-1.7326,-1.7326,-1.7326,-1.7326,-1.7326,-1.7326,-1.7326,-1.7326,-1.7326,-1.7326,-1.7326,-1.7326,-1.7326,-1.7326,-1.7326,-1.7326,-1.7326,-1.7326,-1.7326,-1.7326,-1.7326,-1.7326,-1.7326,-1.7326,-1.7239,-1.7153,-1.7052,-1.677,-1.6588,-1.6588,-1.6683,-1.6784,-1.6784,-1.6965,-1.6958,-1.6878,-1.6784,-1.6784,-1.6588,-1.6588,-1.6588,-1.6588,-1.7037,-1.7404,-1.7404,-1.777,-1.8226,-1.868,-1.868,-1.9139,-2.0133,-1.9588,-1.9588,-2.0133,-1.8411,-1.7498,-1.7498,-1.7498,-1.7584,-1.7669,-1.7669,-1.7755,-0.9532,-1.0229,-1.087,-1.1701,-1.2301,-1.2785,-1.3093,-1.3215,-1.3346,-1.3492,-1.3346,-1.3343,-1.3655,-1.4159,-1.4482,-1.4561,-1.5012,-1.5306,-1.5306,-1.5379,-1.5431,-1.5431,-1.5431,-1.5431,-1.5431,-1.565,-1.5796,-1.5796,-1.5796,-1.5891,-1.6118,-1.5679,-1.5643,-1.6118,-1.5906,-1.5899,-1.6126,-1.6213,-1.6418,-1.6823,-1.7055,-1.7208,-1.7208,-1.7296,-1.7326,-1.7326,-1.7326,-1.7326,-1.7326,-1.7326,-1.7326,-1.7326,-1.7326,-1.7326,-1.7326,-1.7326,-1.7326,-1.7326,-1.7326,-1.7326,-1.7326,-1.7326,-1.7326,-1.7326,-1.7326,-1.7326,-1.7326,-1.7326,-1.7326,-1.7326,-1.7326,-1.7326,-1.7326,-1.7326,-1.7326,-1.7326,-1.7326,-1.7052,-1.677,-1.677,-1.6965,-1.7066,-1.7066,-1.7246,-1.7333,-1.7434,-1.7434,-1.7426,-1.7505,-1.7498,-1.7498,-1.7498,-1.8133,-1.8588,-1.8588,-1.9231,-1.9679,-1.9951,-1.9943,-2.0404,-2.1418,-2.0773,-2.0683,-2.1409,-2.0331,-1.943,-1.8964,-1.8964,-1.9055,-1.9222,-1.9222,-1.9314,-0.9292,-0.9753,-1.0151,-1.1316,-1.2181,-1.272,-1.2953,-1.3272,-1.3492,-1.3492,-1.3492,-1.3506,-1.3536,-1.3814,-1.4136,-1.4443,-1.4757,-1.497,-1.497,-1.5233,-1.5431,-1.5431,-1.5431,-1.5431,-1.5431,-1.5445,-1.5452,-1.5452,-1.5452,-1.546,-1.5474,-1.5445,-1.5445,-1.5474,-1.546,-1.546,-1.5474,-1.5789,-1.6089,-1.6396,-1.6726,-1.6879,-1.6894,-1.7186,-1.7326,-1.7326,-1.7326,-1.7326,-1.7326,-1.7326,-1.7326,-1.7326,-1.7326,-1.7326,-1.7326,-1.7326,-1.7326,-1.7326,-1.7326,-1.7326,-1.7326,-1.7326,-1.7326,-1.7326,-1.7326,-1.7326,-1.7326,-1.7326,-1.7326,-1.7326,-1.7326,-1.7326,-1.7326,-1.7326,-1.7326,-1.7326,-1.7326,-1.7232,-1.7239,-1.7239,-1.7232,-1.7232,-1.7232,-1.7326,-1.7598,-1.8519,-1.8703,-1.9063,-1.9869,-2.0051,-2.0051,-2.0051,-2.0051,-2.0051,-2.0051,-1.9977,-2.0249,-2.115,-2.1221,-2.1667,-2.2618,-2.2618,-2.2618,-2.2706,-2.2344,-2.1338,-1.9497,-1.9497,-1.9497,-1.9497,-1.9497,-1.9497,-0.8897,-0.9504,-1.0183,-1.1055,-1.167,-1.2174,-1.2862,-1.3097,-1.3243,-1.3448,-1.3492,-1.3492,-1.3492,-1.3762,-1.4018,-1.4136,-1.4428,-1.4706,-1.4918,-1.4961,-1.5196,-1.5401,-1.5431,-1.5431,-1.5431,-1.5431,-1.5431,-1.5431,-1.5431,-1.5431,-1.5431,-1.5431,-1.5431,-1.5431,-1.5431,-1.5431,-1.5431,-1.5752,-1.6051,-1.624,-1.6566,-1.6818,-1.7003,-1.7026,-1.7086,-1.7086,-1.7086,-1.7206,-1.7194,-1.7168,-1.6989,-1.6899,-1.7079,-1.6989,-1.6711,-1.6899,-1.6801,-1.6711,-1.6711,-1.6711,-1.6711,-1.6711,-1.6711,-1.6755,-1.696,-1.7026,-1.7069,-1.7267,-1.7426,-1.7527,-1.7333,-1.7426,-1.7527,-1.7333,-1.7326,-1.7512,-1.8149,-1.7785,-1.7326,-1.7326,-1.7326,-1.7326,-1.7326,-1.7878,-1.8427,-1.8796,-1.933,-1.9778,-2.0141,-2.0232,-2.0232,-2.0232,-2.0782,-2.115,-2.115,-2.1695,-2.2059,-2.2413,-2.2501,-2.2589,-2.2969,-2.2969,-2.2969,-2.2969,-2.2882,-2.2334,-2.1338,-2.1338,-2.1427,-2.1606,-2.1606,-2.1686,-0.8494,-0.9065,-0.9804,-1.0558,-1.0997,-1.1487,-1.246,-1.2767,-1.2943,-1.3265,-1.3418,-1.3492,-1.3492,-1.3675,-1.3821,-1.3821,-1.4092,-1.4377,-1.4589,-1.4714,-1.4867,-1.5079,-1.5204,-1.527,-1.527,-1.5365,-1.5431,-1.5431,-1.5431,-1.5431,-1.5431,-1.5431,-1.5431,-1.5431,-1.5431,-1.5423,-1.5499,-1.572,-1.5908,-1.6162,-1.65,-1.6745,-1.684,-1.6953,-1.6999,-1.6991,-1.6965,-1.7022,-1.7139,-1.7009,-1.6911,-1.6823,-1.6911,-1.6823,-1.6639,-1.6727,-1.6727,-1.6639,-1.6639,-1.6639,-1.6639,-1.6639,-1.6639,-1.6699,-1.7026,-1.7123,-1.7197,-1.7517,-1.7714,-1.7807,-1.7613,-1.7714,-1.7815,-1.7893,-1.7978,-1.8156,-1.9063,-1.8511,-1.7878,-1.8234,-1.8234,-1.8234,-1.8234,-1.8788,-1.9422,-1.9695,-2.0331,-2.0782,-2.1141,-2.1141,-2.1141,-2.1141,-2.1774,-2.2148,-2.2148,-2.2775,-2.3135,-2.3135,-2.3135,-2.3135,-2.3135,-2.3135,-2.3135,-2.3135,-2.3135,-2.2969,-2.2618,-2.2618,-2.2706,-2.2882,-2.2882,-2.2969,0.0,0.0,0.0,-0.9848,-1.0324,-1.0821,-1.1787,-1.2248,-1.2577,-1.2914,-1.3243,-1.347,-1.3477,-1.3484,-1.3492,-1.3492,-1.3762,-1.3967,-1.3982,-1.4253,-1.4457,-1.4472,-1.475,-1.486,-1.486,-1.524,-1.5431,-1.5431,-1.5431,-1.5431,-1.5431,-1.5431,-1.5431,-1.5431,-1.5431,-1.5506,-1.5733,-1.5733,-1.5824,-1.6095,-1.6423,-1.6583,-1.6591,-1.6911,-1.6969,-1.6953,-1.6962,-1.6923,-1.6969,-1.6969,-1.6969,-1.6969,-1.6969,-1.6969,-1.6976,-1.6969,-1.6976,-1.6976,-1.6976,-1.6976,-1.6976,-1.6976,-1.6976,-1.7037,-1.7461,-1.756,-1.7636,-1.7987,-1.8087,-1.8179,-1.8172,-1.8172,-1.8357,-1.9096,-1.9279,-1.9455,-2.015,-1.9513,-1.9147,-2.0051,-2.0232,-2.0232,-2.0232,-2.0232,-2.0593,-2.1516,-2.1695,-2.205,-2.296,-2.3135,-2.3135,-2.3135,-2.3135,-2.3135,-2.3135,-2.3135,-2.3135,-2.3135,-2.3135,-2.3135,-2.3135,-2.3135,-2.3135,-2.3135,-2.3135,-2.3135,-2.3135,-2.3135,-2.3135,-2.3135,-2.3135,-2.3135,-0.7953,0.0,0.0,0.0,0.0,0.0,-1.1172,-1.1414,-1.1633,-1.2189,-1.2562,-1.2862,-1.3097,-1.3338,-1.3492,-1.3492,-1.3572,-1.3711,-1.3953,-1.4062,-1.4209,-1.4443,-1.475,-1.486,-1.486,-1.524,-1.5431,-1.5431,-1.5431,-1.5431,-1.5431,-1.5431,-1.5506,-1.5575,-1.5658,-1.5741,-1.6004,-1.6004,-1.6079,-1.6319,-1.6412,-1.655,-1.664,-1.6734,-1.6773,-1.6766,-1.6755,-1.6771,-1.6773,-1.6773,-1.669,-1.6598,-1.669,-1.6614,-1.6362,-1.6522,-1.6438,-1.6362,-1.6362,-1.6362,-1.6362,-1.6362,-1.6362,-1.6469,-1.7041,-1.7209,-1.7331,-1.7919,-1.8719,-1.953,-2.0232,-2.0314,-2.0133,-2.0413,-2.0413,-2.0593,-2.132,-2.1311,-2.0953,-2.0322,-2.0232,-2.0232,-2.0232,-2.0782,-2.1418,-2.1695,-2.2236,-2.2784,-2.3057,-2.3135,-2.3135,-2.3135,-2.3135,-2.3135,-2.3135,-2.3135,-2.3135,-2.3135,-2.3135,-2.3135,-2.3135,-2.3135,-2.3135,-2.3135,-2.3135,-2.3135,-2.3135,-2.3135,-2.3135,-2.3135,-2.3135,-2.3135,-0.8224,-0.8663,-0.9248,-0.9351,0.0,0.0,-1.0865,-1.1077,-1.126,-1.1904,-1.2292,-1.2577,-1.2767,-1.2958,-1.3133,-1.3265,-1.3294,-1.3404,-1.3733,-1.3777,-1.385,-1.404,-1.4348,-1.4538,-1.4538,-1.4955,-1.5174,-1.5035,-1.5227,-1.5383,-1.5472,-1.5465,-1.5606,-1.5824,-1.5914,-1.5989,-1.6245,-1.6245,-1.6319,-1.6566,-1.6566,-1.6566,-1.673,-1.673,-1.673,-1.673,-1.673,-1.673,-1.673,-1.673,-1.6648,-1.6558,-1.6648,-1.6574,-1.6327,-1.6484,-1.6484,-1.6327,-1.6327,-1.6327,-1.6327,-1.6327,-1.6327,-1.6436,-1.697,-1.7565,-1.8049,-1.8611,-1.9686,-2.0791,-2.1311,-2.1311,-2.1311,-2.1658,-2.1658,-2.1933,-2.258,-2.2755,-2.2492,-2.1596,-2.1418,-2.1418,-2.1418,-2.1961,-2.2413,-2.2413,-2.295,-2.3396,-2.3396,-2.3396,-2.3396,-2.3319,-2.3232,-2.3232,-2.3232,-2.3144,-2.3144,-2.3232,-2.3144,-2.3135,-2.3135,-2.3135,-2.3135,-2.3135,-2.3135,-2.3135,-2.3135,-2.3135,-2.3135,-2.3135,-2.3135,-2.3135,-0.8699,-0.8765,0.0,-0.9416,-0.946,0.0,-1.0667,-1.0938,-1.1128,-1.1699,-1.208,-1.2314,-1.235,-1.2423,-1.2555,-1.2873,-1.2936,-1.3119,-1.3448,-1.3492,-1.3492,-1.3492,-1.3784,-1.3982,-1.3982,-1.4531,-1.4772,-1.4565,-1.4952,-1.5268,-1.5522,-1.5561,-1.5721,-1.6108,-1.6072,-1.6245,-1.6394,-1.6394,-1.6484,-1.673,-1.673,-1.673,-1.673,-1.673,-1.673,-1.673,-1.673,-1.673,-1.673,-1.673,-1.673,-1.673,-1.673,-1.673,-1.673,-1.673,-1.673,-1.673,-1.673,-1.673,-1.673,-1.673,-1.673,-1.6958,-1.7327,-1.8321,-1.941,-1.9843,-2.0943,-2.1872,-2.1961,-2.205,-2.2138,-2.2853,-2.3028,-2.3115,-2.3754,-2.3841,-2.3754,-2.3232,-2.3144,-2.3135,-2.3135,-2.3319,-2.3503,-2.3503,-2.3677,-2.3841,-2.3841,-2.3841,-2.3754,-2.359,-2.3503,-2.3503,-2.3503,-2.3319,-2.3319,-2.3503,-2.3319,-2.3135,-2.3144,-2.3144,-2.3135,-2.3135,-2.3135,-2.3135,-2.3135,-2.3135,-2.3135,-2.3135,-2.3135,-2.3135,-0.8758,-0.9248,-0.9731,-0.9365,-0.9797,0.0,-0.9965,-1.0104,-1.0331,-1.0455,-1.0741,-1.1108,-1.1487,-1.197,-1.2333,-1.2187,-1.2766,-1.3267,-1.3448,-1.3492,-1.3492,-1.3492,-1.3784,-1.3982,-1.3982,-1.4333,-1.4616,-1.4628,-1.49,-1.5078,-1.5078,-1.5431,-1.5694,-1.5924,-1.618,-1.6402,-1.6648,-1.6648,-1.6648,-1.673,-1.673,-1.673,-1.673,-1.673,-1.673,-1.673,-1.673,-1.673,-1.673,-1.673,-1.673,-1.673,-1.673,-1.673,-1.673,-1.673,-1.673,-1.673,-1.673,-1.673,-1.673,-1.673,-1.7204,-1.7831,-1.8129,-1.8946,-1.997,-2.1466,-2.2323,-2.3018,-2.3734,-2.3917,-2.4003,-2.409,-2.4186,-2.4186,-2.411,-2.411,-2.4024,-2.3754,-2.3493,-2.3493,-2.3667,-2.358,-2.358,-2.3754,-2.3754,-2.3841,-2.3841,-2.3841,-2.3754,-2.3754,-2.3754,-2.3754,-2.3754,-2.3667,-2.3667,-2.3754,-2.3667,-2.358,-2.3406,-2.3416,-2.3319,-2.3135,-2.3135,-2.3135,-2.3135,-2.3135,-2.3135,-2.3135,-2.3135,-2.3135,-0.9639,-0.9913,-1.0196,-1.0081,-1.0075,0.0,0.0,-1.0104,-1.0192,-1.0627,-1.0701,-1.0855,-1.13,-1.1511,-1.1684,-1.1903,-1.2285,-1.2662,-1.2943,-1.3148,-1.325,-1.325,-1.3397,-1.3492,-1.3492,-1.3938,-1.4377,-1.4599,-1.4668,-1.4787,-1.5117,-1.5296,-1.5631,-1.6047,-1.622,-1.6393,-1.673,-1.673,-1.673,-1.673,-1.673,-1.673,-1.673,-1.673,-1.673,-1.673,-1.673,-1.673,-1.673,-1.673,-1.673,-1.673,-1.673,-1.673,-1.673,-1.673,-1.673,-1.673,-1.7204,-1.7367,-1.7448,-1.7844,-1.831,-1.8665,-1.886,-1.977,-2.1139,-2.2715,-2.3478,-2.3907,-2.4368,-2.454,-2.454,-2.454,-2.454,-2.4454,-2.4378,-2.4368,-2.4282,-2.4196,-2.4024,-2.3851,-2.3841,-2.3851,-2.3851,-2.4024,-2.41,-2.4186,-2.4186,-2.4186,-2.411,-2.4024,-2.4024,-2.4024,-2.4024,-2.3841,-2.3841,-2.4024,-2.3841,-2.3754,-2.3667,-2.3667,-2.358,-2.3493,-2.3222,-2.3144,-2.3319,-2.3144,-2.3135,-2.3135,-2.3135,-2.3135,-1.0637,-1.0601,-1.0727,-1.0754,-1.031,-0.9987,0.0,0.0,0.0,-1.0927,-1.0808,-1.076,-1.1203,-1.1104,-1.1069,-1.1473,-1.176,-1.2007,-1.2225,-1.2549,-1.2844,-1.2969,-1.2914,-1.2936,-1.3072,-1.3571,-1.4044,-1.4536,-1.4392,-1.4482,-1.5054,-1.5149,-1.5435,-1.5991,-1.6134,-1.6341,-1.6627,-1.6698,-1.673,-1.673,-1.673,-1.673,-1.673,-1.673,-1.673,-1.673,-1.673,-1.673,-1.673,-1.6894,-1.6976,-1.6968,-1.673,-1.6812,-1.6976,-1.6976,-1.7049,-1.7286,-1.7997,-1.8238,-1.839,-1.9097,-1.9423,-1.958,-1.9737,-2.0835,-2.2227,-2.3443,-2.4064,-2.4436,-2.4519,-2.454,-2.454,-2.454,-2.454,-2.454,-2.454,-2.454,-2.454,-2.454,-2.4378,-2.4206,-2.3927,-2.411,-2.4206,-2.4292,-2.4368,-2.454,-2.454,-2.454,-2.4454,-2.4292,-2.4292,-2.4292,-2.4292,-2.4024,-2.4024,-2.4206,-2.4013,-2.3927,-2.3841,-2.3841,-2.3841,-2.3841,-2.3396,-2.3319,-2.359,-2.3319,-2.3232,-2.3144,-2.3144,-2.3319,-1.1086,-1.1296,-1.1587,-1.0449,-1.0563,-1.0762,-1.0036,0.0,-1.0223,-1.0159,0.0,-1.0173,-1.0376,0.0,0.0,-1.0688,-1.1568,-1.2057,-1.1414,-1.176,-1.2319,-1.2781,-1.2645,-1.2763,-1.3406,-1.337,-1.37,-1.4369,-1.3947,-1.3997,-1.4593,-1.5006,-1.5221,-1.53,-1.5888,-1.6222,-1.6269,-1.6571,-1.673,-1.673,-1.673,-1.673,-1.673,-1.673,-1.673,-1.673,-1.673,-1.673,-1.673,-1.7521,-1.7836,-1.7764,-1.6968,-1.7212,-1.7836,-1.7836,-1.8318,-1.9027,-1.9107,-1.9177,-1.9177,-1.9265,-1.9816,-2.0537,-2.1252,-2.1927,-2.2587,-2.3132,-2.3598,-2.4043,-2.4436,-2.454,-2.454,-2.454,-2.454,-2.454,-2.454,-2.454,-2.454,-2.454,-2.4454,-2.4454,-2.4454,-2.4282,-2.4292,-2.4454,-2.4454,-2.454,-2.454,-2.454,-2.4454,-2.4454,-2.4454,-2.4454,-2.4454,-2.4454,-2.4454,-2.4454,-2.4454,-2.4368,-2.4206,-2.3937,-2.3841,-2.3841,-2.3754,-2.3754,-2.3754,-2.3754,-2.3667,-2.3406,-2.3406,-2.358,-1.2061,-1.1993,-1.1892,-1.1517,-1.1114,-1.0692,-1.0178,-1.0098,-1.0174,-1.0394,0.0,0.0,0.0,0.0,0.0,0.0,-1.1043,-1.1259,-1.0869,-1.1005,-1.1381,-1.1994,-1.1951,-1.2146,-1.2736,-1.2793,-1.304,-1.3592,-1.3451,-1.36,-1.4299,-1.4474,-1.4752,-1.5173,-1.5467,-1.5809,-1.6198,-1.6349,-1.6532,-1.673,-1.673,-1.673,-1.673,-1.673,-1.6968,-1.744,-1.744,-1.7764,-1.8238,-1.863,-1.8789,-1.8709,-1.831,-1.839,-1.8789,-1.8789,-1.9027,-1.9344,-1.9816,-1.9982,-2.006,-2.0615,-2.1011,-2.1328,-2.1721,-2.2128,-2.2594,-2.306,-2.3525,-2.3981,-2.4426,-2.454,-2.454,-2.454,-2.454,-2.454,-2.454,-2.454,-2.454,-2.454,-2.454,-2.454,-2.454,-2.4454,-2.4368,-2.4454,-2.454,-2.454,-2.454,-2.454,-2.454,-2.454,-2.454,-2.454,-2.454,-2.454,-2.454,-2.454,-2.454,-2.4454,-2.4368,-2.411,-2.411,-2.4186,-2.3927,-2.3841,-2.4024,-2.3841,-2.3851,-2.3937,-2.3764,-2.3754,-1.3136,-1.2914,-1.2742,-1.2483,-1.1847,-1.1104,-1.0761,-1.0701,-1.0817,-1.1243,-1.1214,0.0,0.0,0.0,-1.1157,-1.0855,0.0,-1.1058,-1.0555,-1.0478,-1.0693,-1.1226,-1.1514,-1.1752,-1.2107,-1.2195,-1.249,-1.303,-1.2924,-1.3179,-1.4061,-1.4109,-1.4395,-1.5014,-1.5133,-1.5467,-1.6055,-1.6063,-1.6285,-1.673,-1.6635,-1.6643,-1.6738,-1.6976,-1.7367,-1.7997,-1.823,-1.8709,-1.9335,-1.958,-1.9659,-1.9737,-1.9894,-2.0051,-2.0051,-1.9737,-1.9816,-2.0051,-2.0615,-2.0857,-2.0934,-2.1568,-2.1807,-2.1807,-2.1807,-2.2035,-2.2428,-2.3018,-2.3432,-2.3815,-2.4395,-2.454,-2.454,-2.454,-2.454,-2.454,-2.454,-2.47,-2.4786,-2.454,-2.4871,-2.5105,-2.4861,-2.4615,-2.454,-2.454,-2.454,-2.454,-2.454,-2.454,-2.454,-2.454,-2.454,-2.4625,-2.4861,-2.4615,-2.454,-2.454,-2.454,-2.454,-2.454,-2.4368,-2.4368,-2.454,-2.4196,-2.411,-2.4292,-2.411,-2.411,-2.4282,-2.4262,-2.4423,-1.4355,-1.4391,-1.4436,-1.2952,-1.2639,-1.2573,-1.1912,-1.2121,-1.2452,-1.2617,-1.2982,-1.315,-1.2575,-1.2932,-1.2815,-1.1258,-1.1806,0.0,0.0,-1.0486,-1.0569,-1.0709,-1.15,-1.1909,-1.1814,-1.1626,-1.1972,-1.3028,-1.2448,-1.2655,-1.4037,-1.4109,-1.4275,-1.4649,-1.4998,-1.5348,-1.569,-1.5697,-1.6039,-1.673,-1.6389,-1.6404,-1.673,-1.7602,-1.7997,-1.8078,-1.8868,-1.9256,-1.9335,-2.0138,-2.0615,-2.0837,-2.1482,-2.1873,-2.1873,-2.0847,-2.1011,-2.1721,-2.1731,-2.1731,-2.1731,-2.1807,-2.1807,-2.1807,-2.1807,-2.1818,-2.2025,-2.2925,-2.3194,-2.3412,-2.4312,-2.454,-2.454,-2.454,-2.454,-2.454,-2.454,-2.5179,-2.5505,-2.47,-2.5841,-2.6741,-2.5902,-2.502,-2.454,-2.454,-2.454,-2.454,-2.454,-2.454,-2.454,-2.454,-2.454,-2.4861,-2.5663,-2.5031,-2.454,-2.454,-2.454,-2.454,-2.454,-2.4454,-2.4454,-2.454,-2.4454,-2.4454,-2.4454,-2.4454,-2.4454,-2.454,-2.5179,-2.5568,-1.4913,-1.476,-1.4497,-1.3933,-1.3433,-1.2995,-1.2389,-1.2474,-1.2553,-1.2296,-1.2878,-1.3257,-1.2724,-1.3057,-1.3103,-1.2281,-1.2131,-1.1661,0.0,-0.9994,-0.9803,-0.9825,-1.0606,-1.102,-1.0794,-1.0872,-1.124,-1.1835,-1.1755,-1.2186,-1.3378,-1.364,-1.3918,-1.4275,-1.4641,-1.499,-1.5348,-1.5856,-1.6514,-1.7234,-1.7029,-1.7471,-1.8399,-1.831,-1.878,-1.9894,-2.0285,-2.0827,-2.1375,-2.1624,-2.1787,-2.1852,-2.2101,-2.2252,-2.2252,-2.1568,-2.1568,-2.1807,-2.1807,-2.1807,-2.1807,-2.1807,-2.1807,-2.1807,-2.1807,-2.1807,-2.2004,-2.2925,-2.3184,-2.3401,-2.4302,-2.454,-2.4615,-2.5263,-2.5337,-2.5505,-2.6091,-2.6494,-2.6565,-2.6257,-2.6741,-2.6987,-2.673,-2.6412,-2.6246,-2.6246,-2.6246,-2.6246,-2.6246,-2.6246,-2.6246,-2.6246,-2.5673,-2.5505,-2.5735,-2.5505,-2.5589,-2.6174,-2.6246,-2.6246,-2.6246,-2.6246,-2.6246,-2.6246,-2.6246,-2.6246,-2.6246,-2.5673,-2.5673,-2.6257,-2.6494,-2.6318,-1.5492,-1.5395,-1.513,-1.4841,-1.4431,-1.3984,-1.3284,-1.3317,-1.3407,-1.3147,-1.348,-1.3798,-1.3685,-1.3597,-1.3368,-1.2751,-1.2211,-1.1422,0.0,-1.0166,-1.0186,-0.9744,-1.0224,-1.0551,-1.0324,-1.0394,-1.07,-1.1302,-1.1336,-1.1837,-1.3028,-1.3402,-1.3743,-1.4101,-1.4733,-1.5242,-1.561,-1.6191,-1.6858,-1.762,-1.7395,-1.7917,-1.8911,-1.8679,-1.9371,-2.0675,-2.1065,-2.1621,-2.2402,-2.2402,-2.2478,-2.2478,-2.2402,-2.2478,-2.2478,-2.2111,-2.1959,-2.1883,-2.1883,-2.1883,-2.1883,-2.1883,-2.1883,-2.1883,-2.1883,-2.1883,-2.2039,-2.3103,-2.352,-2.3896,-2.4909,-2.5314,-2.56,-2.6163,-2.6235,-2.64,-2.6976,-2.7395,-2.7476,-2.7139,-2.7637,-2.7971,-2.7637,-2.7891,-2.781,-2.7232,-2.7069,-2.7069,-2.7069,-2.7069,-2.7069,-2.7069,-2.6565,-2.6235,-2.6235,-2.6565,-2.6894,-2.7069,-2.7069,-2.7069,-2.7069,-2.7069,-2.7069,-2.7069,-2.7069,-2.7069,-2.7069,-2.6565,-2.6565,-2.7069,-2.7069,-2.6976]}]]